GFSSGP_prec_cloud_003.txt.gz
Cloud_Cover
100 100 94 100 100 100 100 36 100 98 100 100 100 100 100 61 100 96 100 100 100 70 62 98 100 96 98 99 33 59 99 100 100 94 77 6 11 97 98 98 100 98 100 100 100 100 100 100 100
100 76 100 100 100 100 90 94 24 15 74 99 14 41 42 96 100 100 100 96 96 87 100 100 75 100 31 9 38 61 100 100 100 69 15 19 4 6 5 16 4 97 100 100 100 100 100 100 100
98 100 100 99 97 100 100 100 100 100 100 100 100 100 100 100 100 100 92 26 5 4 52 92 2 4 5 11 5 4 4 0 0 18 88 42 0 14 82 62 0 16 100 97 100 100 100 100 100
100 100 100 100 100 100 100 100 100 100 100 100 100 100 55 62 4 27 82 87 20 56 10 38 88 93 68 17 5 1 5 0 0 0 0 2 9 5 16 1 58 98 76 100 100 100 100 100 100
100 100 100 100 100 100 99 65 100 88 100 100 69 39 86 86 100 20 54 30 43 27 98 94 19 1 0 0 17 38 14 0 0 0 0 0 0 1 18 0 0 46 100 100 100 100 100 100 100
100 97 95 100 7 100 100 33 93 59 58 18 25 23 53 100 100 99 100 64 99 41 75 12 0 1 2 2 2 0 0 0 0 0 0 0 0 8 11 3 1 3 100 100 100 100 100 100 100
100 47 100 75 42 74 70 100 61 25 19 0 0 0 0 95 100 100 99 51 93 49 0 0 0 0 0 0 0 0 0 0 0 0 0 0 0 0 8 0 0 0 100 100 100 100 100 100 100
50 12 89 5 94 93 99 48 64 0 0 0 0 0 0 4 100 84 47 8 2 0 0 0 0 0 0 0 0 0 0 0 0 0 0 1 0 0 0 0 0 0 56 100 100 100 100 100 100
53 100 100 88 92 48 1 0 0 0 0 0 0 0 0 1 24 26 0 0 0 0 0 0 0 0 0 0 0 0 0 0 0 0 0 0 0 0 0 0 0 0 0 100 100 100 100 100 100
53 40 100 34 5 0 0 0 0 0 0 0 0 0 0 0 0 0 0 0 0 0 0 0 0 0 0 1 0 0 2 3 0 4 4 0 4 0 0 0 0 0 0 4 99 100 100 100 100
65 72 3 0 0 0 0 0 0 0 0 0 0 0 0 0 0 0 0 0 0 0 0 0 0 0 0 0 0 0 0 0 0 0 0 0 0 0 0 6 1 5 0 24 3 94 100 100 100
0 0 0 0 0 0 0 0 0 0 0 0 0 0 0 0 0 0 0 0 0 0 0 0 0 0 0 0 0 0 0 0 0 0 0 0 1 0 0 0 0 0 0 1 9 14 100 100 100
0 0 0 0 0 0 0 0 0 0 0 0 0 0 0 0 0 0 0 0 0 0 0 0 0 1 4 2 1 8 9 23 5 1 0 4 5 9 0 0 0 0 12 6 5 55 41 99 100
0 0 0 0 0 0 0 0 0 0 0 0 0 0 0 0 0 0 0 1 2 2 2 0 0 3 3 0 5 6 5 5 4 14 4 2 1 6 2 3 0 0 0 0 1 0 0 50 100
0 0 0 0 0 0 0 0 0 0 0 0 0 0 0 0 0 1 4 5 0 5 1 1 0 5 5 78 96 19 5 52 13 19 5 5 0 0 0 0 0 0 5 5 5 38 5 1 6
0 0 0 0 0 0 0 0 0 0 0 0 0 0 0 0 1 4 5 7 6 80 30 19 37 12 38 58 55 97 22 49 55 73 19 10 5 5 0 3 5 4 5 6 55 97 89 14 5
0 0 0 0 0 0 0 0 0 0 0 4 5 5 36 13 13 11 56 100 100 100 100 100 100 99 100 100 100 100 100 98 99 66 92 66 9 5 5 5 4 0 0 5 4 9 90 17 73
0 0 0 0 0 0 0 0 0 3 4 5 60 38 56 100 100 100 100 100 100 100 100 100 100 100 100 100 100 99 100 79 13 6 46 97 73 52 99 48 5 5 0 0 0 0 9 4 5
0 0 0 0 0 0 0 0 0 5 5 5 6 100 100 100 100 100 100 100 100 100 100 100 58 61 100 100 100 98 78 68 5 5 27 100 86 15 98 99 44 5 5 5 5 5 5 5 5
0 0 0 0 0 0 0 0 0 0 23 92 98 93 40 100 100 100 94 100 100 26 86 93 88 5 5 6 11 30 5 19 98 100 39 5 11 30 100 100 79 23 97 42 5 5 5 5 5
0 0 0 0 0 0 0 1 0 1 3 2 2 9 96 100 70 100 100 88 82 84 94 60 5 5 5 5 26 20 5 56 100 92 6 82 88 91 96 100 100 100 63 81 5 5 5 5 5
0 0 0 0 3 0 0 0 6 19 5 2 36 52 92 100 100 100 100 68 26 57 86 98 58 5 5 5 5 5 5 5 6 87 72 100 100 100 33 100 100 100 100 72 42 11 6 87 28
4 0 0 0 0 5 0 0 0 0 0 4 100 100 99 100 100 100 100 100 78 52 74 27 45 100 100 98 19 6 5 6 88 95 79 92 98 100 100 100 100 100 100 89 96 60 24 100 69
0 1 0 2 1 1 0 2 0 0 3 5 5 5 5 21 55 100 100 85 100 100 100 100 79 30 11 52 79 93 100 100 98 99 85 64 41 55 100 100 100 100 100 93 100 100 100 84 74
0 5 2 0 2 10 3 40 16 0 32 97 89 44 5 5 12 73 32 99 100 100 100 67 46 88 66 5 5 5 72 97 100 100 100 100 100 100 100 100 100 100 100 100 100 100 100 100 99
0 0 1 3 22 100 78 65 43 2 65 21 52 32 5 9 9 51 92 44 96 27 6 5 97 64 7 15 5 5 5 5 64 100 100 100 100 100 100 100 100 100 100 100 100 100 100 100 100
4 2 0 5 3 5 45 68 6 5 8 99 5 14 37 6 44 94 100 98 77 14 5 96 99 32 5 5 6 12 48 85 99 80 100 100 100 100 100 100 100 100 100 100 100 100 100 100 100
5 5 4 5 23 64 9 82 5 5 0 93 90 38 5 56 34 50 63 31 5 5 29 99 89 5 4 5 35 100 100 100 100 94 100 100 100 100 100 100 100 100 100 100 100 100 100 100 100
5 5 93 100 98 99 98 100 9 44 53 39 85 91 10 72 86 71 62 76 51 65 100 74 97 32 5 96 92 100 100 100 100 100 100 100 100 100 100 100 100 100 100 100 100 100 100 100 97
5 6 48 100 61 18 81 100 99 7 95 99 99 80 100 97 97 93 38 74 92 44 61 47 66 100 100 91 98 100 100 100 100 100 100 100 100 100 100 100 100 100 100 100 100 100 99 86 100

GFSSGP_prec_cloud_006.txt.gz
Cloud_Cover
100 98 46 50 18 100 100 100 100 94 82 100 100 100 100 100 100 96 94 100 100 100 100 100 100 100 100 100 100 100 100 68 97 13 66 100 86 100 100 99 100 90 32 77 100 98 99 100 100
100 100 89 68 98 100 100 100 100 99 100 100 100 100 100 100 100 100 100 83 43 97 60 100 88 70 71 100 100 51 10 7 4 0 9 35 61 99 100 97 99 28 78 68 100 100 100 100 100
92 27 42 100 100 100 100 100 100 100 100 100 100 100 100 100 100 5 81 24 92 32 57 100 56 67 100 100 100 71 23 8 4 3 21 20 1 0 4 100 69 46 100 8 100 100 76 100 100
79 99 68 94 100 100 100 98 99 100 100 100 100 74 91 93 80 9 36 100 100 28 15 34 99 100 100 80 96 10 4 21 11 1 8 24 5 0 0 12 35 91 100 38 96 100 100 100 100
87 60 100 100 100 100 100 100 100 100 100 100 100 90 11 55 21 100 97 100 73 60 100 100 100 100 100 74 5 4 3 0 0 0 0 6 1 0 0 0 2 0 0 28 66 100 100 100 100
100 100 100 100 100 89 100 100 100 100 100 100 74 19 34 100 51 29 78 96 98 100 100 100 80 28 9 2 0 0 0 0 0 0 0 0 0 0 3 7 0 0 6 0 3 63 100 100 100
100 100 100 100 100 60 52 86 36 80 100 10 54 100 66 60 0 29 100 100 100 77 62 51 9 0 0 0 0 0 0 0 0 0 0 0 0 0 1 0 0 0 0 0 0 74 100 100 100
100 100 96 99 100 100 100 100 100 97 8 48 5 0 1 0 0 0 1 100 97 1 0 0 0 0 0 0 0 0 0 0 0 0 0 0 0 0 0 0 0 0 0 0 0 49 100 100 100
56 92 100 84 100 97 100 100 77 1 0 0 0 0 0 0 0 0 0 0 0 0 2 0 0 0 0 0 0 0 0 0 0 0 0 0 0 1 0 1 2 0 0 0 0 2 100 100 100
100 68 100 72 52 41 10 52 15 0 0 0 0 0 0 0 0 0 0 0 0 0 0 0 0 0 0 0 0 0 0 0 0 0 24 7 0 0 0 1 0 0 0 0 0 1 84 100 100
58 39 20 14 10 5 87 0 0 0 0 0 0 0 0 0 0 0 0 0 0 0 0 0 0 0 0 0 0 10 2 2 0 0 0 0 0 0 6 10 16 0 0 14 4 5 7 100 100
5 1 0 0 5 0 0 0 0 0 0 0 0 0 0 0 0 0 0 0 0 0 0 0 0 0 1 4 5 5 0 5 5 5 5 18 5 1 6 12 6 0 1 1 0 4 6 28 100
0 0 0 0 0 0 0 0 0 0 0 0 0 0 0 0 0 0 0 0 1 5 5 5 5 5 27 43 8 16 5 5 7 80 39 7 49 7 19 24 3 0 0 2 0 9 72 100 95
0 0 0 0 0 0 0 0 0 0 0 0 0 0 0 0 0 0 0 4 5 5 6 7 6 24 5 22 95 100 100 99 82 33 88 77 64 90 87 68 6 5 5 3 0 0 0 0 0
0 0 0 0 0 0 0 0 0 0 0 0 0 0 0 2 5 5 5 18 28 16 95 100 100 100 100 76 34 30 85 100 79 100 16 6 50 80 64 20 5 5 4 1 0 0 0 0 2
0 0 0 0 0 0 0 0 0 0 0 0 0 5 69 93 95 99 100 100 100 100 100 100 100 92 95 98 99 100 100 72 100 100 13 5 50 27 83 30 5 11 20 6 4 1 0 0 0
0 0 0 0 0 0 0 0 0 0 2 1 2 18 96 96 57 54 17 42 68 96 100 100 100 100 70 97 100 100 100 100 99 100 100 48 87 51 9 45 5 8 24 6 5 5 5 0 0
0 0 0 0 0 0 0 0 0 1 5 5 20 100 100 100 100 100 100 100 100 100 95 70 35 37 62 64 32 8 5 10 5 1 9 94 100 67 12 95 100 80 100 93 17 5 5 5 5
0 0 0 0 0 0 0 0 0 4 28 14 100 100 41 98 100 100 100 100 86 13 6 8 5 5 5 5 5 5 5 5 5 5 5 5 5 6 5 5 29 69 64 10 22 5 5 5 5
0 0 0 0 0 0 0 0 0 0 4 2 0 0 0 35 38 0 20 71 9 16 18 5 2 5 5 62 11 13 60 6 8 7 5 20 12 44 70 28 5 5 39 69 55 8 40 36 25
0 0 0 0 0 0 0 0 0 0 0 0 0 0 4 5 100 3 5 5 5 14 48 28 5 5 5 88 64 64 19 29 18 41 5 5 35 44 31 66 56 57 90 99 32 63 100 99 82
0 0 0 0 0 0 0 0 0 0 0 4 8 5 21 44 100 100 69 28 5 5 5 5 5 59 20 7 35 5 5 5 5 5 5 2 4 4 5 5 7 39 78 82 94 68 88 100 60
0 0 0 0 0 0 0 0 0 5 5 5 2 66 100 100 100 100 82 59 5 43 5 6 6 52 100 100 100 100 100 100 100 41 5 5 5 5 5 5 5 5 5 24 86 100 83 93 65
0 0 0 1 0 0 0 0 3 2 0 5 5 5 5 5 13 57 13 23 19 7 80 35 55 100 98 100 98 100 84 61 9 14 5 19 32 36 100 98 98 100 95 67 48 96 100 100 80
0 0 0 0 5 1 5 0 0 4 38 8 32 76 100 86 100 52 5 5 36 76 44 97 100 100 66 85 100 100 19 5 5 5 5 7 60 99 100 48 98 100 97 100 100 97 25 88 100
0 2 4 4 5 1 0 0 0 0 2 32 100 100 98 66 74 5 5 5 5 9 48 60 7 46 7 42 83 24 5 5 5 5 12 17 21 94 95 100 100 100 100 87 100 99 100 100 99
5 5 3 1 5 5 4 2 0 3 5 5 5 20 77 6 5 47 48 5 5 5 59 96 54 5 5 6 5 5 5 6 56 51 40 60 100 100 100 100 100 100 100 100 100 100 100 100 100
5 6 5 5 5 74 51 100 5 4 5 54 5 5 5 5 10 10 13 5 8 21 20 5 56 46 7 5 4 6 6 5 5 5 5 12 93 100 100 100 100 100 100 100 100 100 100 100 100
5 5 40 57 13 88 98 100 7 5 5 56 88 21 14 51 92 16 21 7 41 34 56 58 48 31 52 87 93 28 5 5 5 5 5 62 99 100 100 100 100 100 100 100 100 100 100 100 100
10 90 41 93 79 53 85 90 5 20 7 18 5 5 52 8 5 5 5 8 61 42 5 37 98 89 36 17 5 5 5 5 21 5 50 100 100 100 51 84 100 100 100 100 100 100 100 100 100

GFSSGP_prec_cloud_009.txt.gz
Cloud_Cover
100 100 100 100 100 100 100 100 100 100 89 20 100 93 14 68 23 100 100 100 100 100 100 100 96 100 100 100 98 100 100 92 30 82 82 99 95 91 89 22 42 5 51 22 100 13 98 78 100
100 100 100 100 100 100 100 99 100 100 98 100 91 87 70 100 100 100 100 100 100 100 100 100 100 100 51 84 100 100 100 45 98 100 99 67 21 3 2 58 9 9 6 26 100 100 68 18 100
100 74 98 100 100 100 97 80 100 100 100 100 100 66 100 100 100 100 100 90 97 92 100 34 94 58 86 100 100 57 100 100 100 100 41 5 22 48 4 0 0 4 3 0 16 100 42 100 100
87 100 100 100 100 57 7 87 100 100 100 75 100 100 100 100 100 100 53 100 5 9 6 32 49 8 5 33 100 97 100 34 88 100 25 87 4 0 0 0 0 0 0 0 5 92 50 98 100
100 100 100 100 100 100 100 100 100 100 100 100 100 100 100 100 100 100 100 82 95 92 61 8 3 47 88 100 85 79 10 5 14 2 0 0 0 0 0 0 0 0 0 0 0 14 1 70 100
100 99 100 100 83 100 85 95 100 100 100 100 100 100 100 100 83 100 82 17 2 41 7 70 62 99 56 3 0 0 0 0 0 0 0 0 0 0 5 0 0 0 0 37 0 0 0 2 78
100 99 98 100 100 100 100 100 100 100 100 100 100 100 100 92 81 54 4 8 8 8 50 56 18 0 0 0 0 0 0 0 0 0 0 0 0 0 0 0 0 0 0 0 0 1 0 0 6
100 64 100 100 100 100 100 100 100 100 100 97 100 99 64 1 8 3 0 0 0 2 0 0 0 0 0 0 0 0 0 0 0 0 0 0 0 0 0 0 0 0 0 0 0 0 0 24 6
100 100 100 96 100 100 100 87 92 85 100 63 6 5 12 1 0 0 0 0 0 1 0 0 0 0 0 0 0 0 0 0 0 3 0 0 0 0 0 4 5 2 0 0 0 0 2 0 6
100 100 58 85 100 100 100 100 100 99 30 16 0 0 0 0 0 0 0 0 0 0 1 0 0 0 0 0 0 0 0 0 0 17 12 7 0 0 0 0 0 1 5 3 1 0 0 0 0
100 100 100 100 100 100 100 100 100 14 1 0 0 0 0 0 0 0 0 0 0 0 0 0 0 0 2 2 5 5 6 27 34 5 60 17 5 6 3 25 9 0 0 0 4 5 13 0 0
90 100 100 100 61 43 54 0 0 0 0 0 0 0 0 0 0 0 0 0 0 4 5 6 5 9 84 96 100 100 100 100 67 43 5 14 32 14 22 91 100 100 20 4 1 8 2 5 5
100 100 89 92 30 1 0 0 0 0 0 0 0 0 0 0 0 0 0 0 1 2 6 35 36 47 20 84 100 100 100 100 100 100 93 22 85 42 62 50 65 85 98 100 100 90 13 0 2
86 40 2 0 0 0 0 0 0 0 0 0 0 0 0 4 5 8 64 64 45 34 26 28 72 69 96 62 17 22 36 28 5 76 49 40 65 37 7 30 60 35 75 48 37 92 97 100 58
6 0 0 0 0 0 0 0 0 0 0 0 0 0 2 5 60 78 74 91 75 70 56 15 5 10 7 5 5 5 5 5 5 5 6 5 5 5 5 5 4 2 5 5 25 36 19 5 5
0 0 0 0 0 0 0 0 0 0 0 0 0 0 1 4 5 13 5 16 58 24 5 4 0 0 0 1 4 5 5 5 7 5 5 5 5 5 13 5 5 5 5 5 3 3 1 3 3
0 0 0 0 0 0 0 0 0 0 0 0 0 0 2 5 1 0 2 78 30 5 2 1 4 5 5 5 5 5 5 5 5 5 5 6 5 5 5 5 5 14 25 5 10 10 4 0 0
0 0 0 0 0 0 0 0 0 0 0 3 3 34 74 5 5 50 6 8 5 5 5 5 5 1 0 0 1 3 5 5 16 94 35 5 5 5 5 5 5 5 7 23 39 15 5 5 0
0 0 0 0 0 0 0 0 0 0 0 0 2 87 34 5 19 16 1 1 1 0 0 0 0 0 5 5 5 5 5 3 5 6 25 48 28 5 5 5 5 5 5 5 5 5 5 5 2
0 0 0 0 0 0 0 0 0 0 1 5 5 3 4 5 2 4 2 0 1 5 5 1 0 5 5 5 4 0 0 0 1 0 0 1 3 4 4 4 4 3 4 5 5 5 54 36 5
0 0 0 0 0 0 0 0 0 0 0 0 5 2 0 0 0 4 2 5 0 1 0 0 0 0 0 1 5 9 2 3 3 36 51 62 34 4 5 5 5 7 43 12 5 5 27 96 58
0 0 0 0 0 0 0 0 3 1 0 0 3 1 0 0 3 4 5 5 5 5 5 11 100 100 100 100 100 100 100 100 100 100 100 100 100 100 99 43 25 67 98 95 95 93 58 7 46
0 0 0 0 0 0 0 0 5 5 5 3 0 3 8 22 82 98 6 5 27 5 30 55 44 62 58 6 85 89 98 100 100 100 100 100 100 100 95 19 59 100 100 100 100 100 100 100 100
0 0 0 0 0 0 0 0 0 2 5 66 7 58 99 100 95 6 62 90 34 11 6 5 92 67 16 5 5 11 60 34 5 7 3 2 1 0 0 4 36 87 37 16 100 100 97 59 100
0 0 3 0 3 0 2 0 0 0 5 43 93 100 100 87 18 60 77 31 5 5 5 5 5 5 5 5 6 74 5 5 0 1 1 0 0 0 0 0 0 93 74 97 100 95 100 99 100
0 0 4 0 16 15 5 4 0 0 5 90 100 22 6 49 29 56 18 5 5 5 3 5 5 14 5 5 2 1 5 2 3 0 0 0 0 0 0 1 15 94 98 100 100 100 100 100 100
0 0 0 1 31 73 100 28 0 0 3 36 5 5 5 5 5 5 5 5 5 4 0 5 4 5 3 0 0 0 3 5 0 0 0 0 0 0 5 5 13 99 100 100 100 100 100 100 100
0 0 2 5 24 80 62 82 10 0 3 3 2 3 3 4 5 5 5 5 5 4 4 5 5 6 4 5 4 3 3 0 0 0 0 2 4 8 40 73 97 97 100 100 100 100 100 100 100
5 3 5 15 5 9 46 88 1 5 2 11 2 1 4 5 5 5 41 68 11 42 80 5 5 14 5 5 5 2 0 0 0 2 5 5 36 92 100 90 98 100 100 100 100 100 100 100 100
10 5 5 83 20 5 15 32 5 3 5 3 5 5 5 5 6 7 77 74 100 79 44 91 80 94 13 5 5 14 1 5 5 5 60 90 100 100 100 84 76 98 100 100 100 100 100 100 100

GFSSGP_prec_cloud_012.txt.gz
Cloud_Cover
5 41 79 100 100 96 99 98 100 100 100 85 100 100 71 35 59 92 97 83 100 98 94 100 100 100 100 100 100 100 55 53 100 100 100 98 85 99 97 10 85 100 93 83 71 71 100 51 100
5 39 59 61 100 97 79 76 100 100 100 100 54 64 65 47 73 96 93 92 100 100 100 100 100 100 100 100 97 93 94 84 100 100 100 99 37 95 100 48 84 100 61 14 75 6 30 94 69
91 57 42 100 91 88 88 34 33 100 100 86 99 79 47 81 100 100 100 100 100 100 100 100 100 100 100 65 33 5 19 82 100 95 100 92 58 90 100 49 24 6 20 98 14 2 0 2 0
100 100 99 99 85 39 61 9 30 85 74 51 9 100 100 100 100 100 100 100 100 100 98 58 99 6 4 5 4 5 3 5 22 8 5 8 4 0 0 0 0 0 0 0 0 0 0 0 0
100 94 8 5 5 9 48 98 100 100 98 100 100 100 100 100 100 100 100 51 100 100 98 87 14 7 83 67 8 3 0 0 0 0 0 0 0 0 0 0 0 0 0 1 33 24 18 19 51
100 8 34 100 82 9 94 100 100 100 100 100 100 100 100 100 100 100 100 100 100 66 1 7 3 1 1 0 0 0 0 0 0 0 0 3 7 8 8 0 0 0 0 6 2 0 0 0 0
73 95 73 88 53 72 100 100 100 100 100 100 100 100 100 100 100 100 73 100 12 0 0 0 0 0 0 0 0 0 0 0 0 0 0 0 0 1 0 0 8 3 24 23 42 1 0 0 27
100 100 100 100 100 100 83 100 100 100 100 100 100 100 100 100 94 38 1 0 0 0 0 0 0 0 0 0 0 0 0 0 0 0 0 0 0 0 0 0 0 4 5 0 0 0 0 0 0
100 100 100 100 100 100 100 100 100 100 100 100 100 100 100 32 0 0 0 0 0 0 0 0 0 0 0 0 0 0 0 0 0 0 4 5 1 1 0 0 0 0 0 0 0 2 2 0 0
100 100 95 98 100 100 100 100 100 100 100 100 100 84 7 8 0 0 0 0 0 0 0 0 0 0 0 1 2 1 5 4 3 24 4 5 1 2 0 0 4 2 2 0 0 1 5 5 2
100 100 100 99 100 100 100 100 100 100 100 65 70 0 0 0 0 0 0 0 0 0 0 1 0 0 0 0 0 4 5 5 5 11 21 21 9 7 5 10 8 57 81 14 5 4 11 5 7
100 100 100 82 100 100 99 89 90 19 77 9 0 0 0 0 0 0 0 0 0 0 5 5 5 5 5 5 5 5 8 6 9 5 7 30 98 88 30 22 7 9 75 49 62 39 100 76 13
99 100 96 96 93 21 2 5 3 0 0 0 0 0 0 0 0 0 0 3 4 2 5 5 5 5 4 12 5 4 4 8 3 5 5 5 5 5 5 15 8 10 8 12 6 5 6 74 76
97 52 100 90 2 22 1 0 0 0 0 0 0 0 0 0 0 0 1 3 0 0 0 0 3 5 5 4 4 0 2 5 5 5 5 5 5 5 5 5 5 5 13 19 5 5 61 26 60
5 3 5 0 4 0 0 0 0 0 0 0 0 0 0 0 5 7 78 8 16 55 5 0 2 5 4 3 0 0 5 0 5 5 5 37 23 5 5 7 19 11 5 5 5 5 11 24 31
0 0 0 0 0 0 0 0 0 0 0 0 0 1 21 54 11 10 4 2 98 91 76 19 3 1 4 5 4 0 0 0 0 0 3 2 4 5 5 8 5 5 5 5 5 2 4 5 5
0 0 0 0 0 0 0 0 0 0 0 0 0 0 0 0 5 4 0 0 0 0 0 0 0 0 0 1 4 0 0 0 0 0 0 0 0 0 0 0 3 5 5 5 4 5 5 4 1
0 0 0 0 0 0 0 0 0 0 0 0 0 0 0 0 0 0 0 0 0 0 0 0 5 5 5 5 5 0 0 0 0 4 5 4 5 5 4 4 5 4 0 0 0 0 0 0 0
0 0 0 0 0 0 0 0 0 0 0 0 0 0 0 0 0 0 0 0 0 0 0 0 5 5 5 5 2 5 5 5 1 0 0 2 0 0 0 0 0 0 0 5 1 0 0 0 0
0 0 0 0 0 0 0 0 0 0 0 0 0 0 0 0 0 38 5 5 0 0 0 4 5 5 5 4 0 1 9 23 19 6 51 86 53 62 24 18 76 90 49 7 5 5 5 3 0
0 0 0 0 0 0 0 0 0 0 0 0 0 4 5 3 4 5 5 5 0 0 3 5 5 5 5 25 98 100 97 28 5 45 88 65 23 7 4 15 7 5 5 5 5 6 5 5 5
0 0 0 0 0 0 0 0 0 0 3 5 5 5 19 10 5 0 1 0 0 4 4 5 8 65 95 66 26 6 5 5 5 5 4 0 0 0 0 0 0 0 4 5 72 94 79 93 60
0 0 0 0 0 0 0 0 0 1 4 5 17 24 7 5 0 5 5 2 5 5 5 43 56 5 5 1 5 6 5 5 5 5 1 0 0 0 0 0 0 0 0 1 9 92 100 100 100
0 0 0 0 0 0 0 0 0 0 0 5 7 5 5 0 0 5 5 23 5 5 8 6 5 14 5 16 81 76 12 5 0 0 0 0 0 0 0 0 0 0 0 0 1 28 86 92 100
0 0 1 0 2 0 0 0 0 0 2 4 5 2 2 5 35 6 5 7 5 5 5 5 11 39 91 100 98 67 18 5 3 1 0 0 0 0 0 0 0 0 0 0 5 43 100 92 100
0 0 4 3 5 4 0 0 0 0 4 0 5 5 5 5 50 63 75 7 5 47 78 88 80 99 100 99 34 5 5 11 58 41 4 5 4 0 4 0 0 0 4 18 99 100 100 100 100
0 0 0 0 37 5 3 0 5 0 0 0 0 5 4 1 4 5 9 76 100 100 100 100 100 100 100 94 57 60 100 96 100 99 36 5 4 4 7 4 6 40 90 100 100 100 100 100 100
5 1 3 0 20 5 4 5 0 0 2 1 5 1 2 5 5 5 40 64 51 50 92 100 91 78 74 32 82 100 97 100 5 3 5 5 5 53 79 23 95 100 98 89 96 100 96 82 100
4 5 5 4 5 14 61 51 5 4 16 56 5 5 6 74 34 5 5 52 5 16 99 86 26 32 48 100 100 98 95 58 0 0 3 6 15 97 96 86 98 100 100 100 100 100 100 100 100
0 5 5 3 2 5 44 74 5 5 48 28 83 90 57 10 21 9 5 5 42 5 5 36 45 71 43 5 33 100 100 99 76 20 100 100 99 89 69 84 100 100 100 100 100 100 100 100 100

GFSSGP_prec_cloud_015.txt.gz
Cloud_Cover
94 99 93 94 66 61 67 63 14 5 5 5 14 43 5 5 5 73 63 96 100 100 98 100 100 100 100 100 100 100 100 100 94 69 87 54 68 70 100 87 20 55 99 100 69 34 5 4 1
54 100 100 100 100 54 19 46 5 21 4 8 8 2 2 5 40 25 57 100 100 100 100 100 100 100 100 100 100 92 58 9 17 29 0 91 24 76 100 51 5 5 44 45 63 99 17 15 5
100 100 100 100 100 100 59 4 4 22 78 11 11 47 54 5 9 100 100 100 100 100 100 100 100 100 100 9 94 11 0 1 4 5 1 1 0 2 1 0 0 1 6 8 8 3 16 67 87
58 46 43 99 100 31 41 99 100 100 98 13 35 15 68 44 17 89 100 100 100 100 100 100 100 100 29 74 8 0 0 0 0 0 0 4 13 0 0 0 0 0 0 6 13 16 2 0 0
100 76 100 48 12 8 26 100 48 5 6 6 42 100 100 100 100 100 100 100 83 100 100 100 58 24 1 0 0 0 0 0 0 0 0 0 2 0 0 0 0 0 0 31 29 0 0 0 0
100 9 38 92 84 88 65 9 5 5 60 100 100 100 100 100 100 100 100 100 100 100 100 53 14 0 0 0 0 0 0 0 0 0 0 2 0 0 0 0 0 0 0 2 0 14 16 2 16
98 74 12 10 87 67 31 31 88 97 98 100 100 100 100 100 100 100 100 100 100 100 90 2 0 0 0 0 0 0 0 0 0 0 0 0 0 0 0 0 0 6 1 5 0 0 7 4 0
69 36 7 35 40 100 98 100 100 100 100 100 100 100 100 100 100 100 100 79 5 60 12 0 0 0 0 0 0 0 0 0 0 0 0 0 0 0 0 0 0 0 0 0 0 0 0 0 3
63 95 92 100 93 100 100 100 100 88 98 100 100 100 100 100 100 86 50 5 4 0 0 0 0 0 0 0 0 0 0 0 0 0 0 0 0 0 0 0 0 0 3 0 0 0 0 0 0
100 70 100 100 100 98 95 100 100 100 100 100 100 100 100 100 93 5 2 0 0 0 0 0 0 0 0 0 0 2 4 4 5 5 6 5 4 3 0 0 0 0 0 0 0 1 0 0 0
100 100 100 100 100 100 100 100 98 100 100 100 100 100 100 7 1 0 0 0 0 0 0 0 0 0 0 0 0 0 0 0 0 0 4 14 8 2 4 5 5 24 5 5 3 3 0 0 5
100 100 100 100 100 99 100 100 100 100 100 100 98 97 95 12 0 0 0 0 0 0 0 0 0 0 0 0 0 0 0 0 0 0 0 0 4 5 5 5 5 0 0 1 2 5 5 5 4
65 98 94 100 100 100 77 74 100 100 100 70 3 2 0 0 0 0 0 0 0 0 3 1 3 0 0 0 0 4 0 0 0 0 0 0 3 5 4 0 0 0 0 0 0 1 2 4 4
100 100 100 94 100 99 23 15 37 71 32 1 0 0 0 0 0 0 0 0 0 2 5 5 6 5 5 5 5 4 0 0 2 2 0 2 1 1 0 0 0 0 0 0 0 0 0 5 5
57 78 17 7 53 4 5 1 0 0 0 0 0 0 0 0 0 0 0 0 0 1 37 52 27 5 5 14 24 6 5 5 3 0 0 0 0 0 0 0 0 0 0 0 0 0 0 0 0
0 0 3 0 0 0 0 0 0 0 0 0 0 0 0 0 0 0 0 0 0 0 0 0 0 5 4 4 2 5 3 1 0 0 0 0 0 0 0 0 0 0 0 1 0 0 1 4 0
0 0 0 0 0 0 0 0 0 0 0 0 0 0 0 0 0 0 0 0 0 0 0 0 0 0 4 5 5 5 3 0 0 0 0 2 5 4 5 5 4 3 1 0 0 0 0 0 0
0 0 0 0 0 0 0 0 0 0 0 0 0 0 0 0 0 0 0 0 0 0 0 0 0 5 5 5 5 5 2 0 4 5 0 0 0 0 0 0 0 0 0 0 0 1 2 4 1
0 0 0 0 0 0 0 0 0 0 0 0 0 0 0 0 0 0 0 0 0 0 0 0 5 5 5 5 5 5 5 1 0 0 0 0 5 5 0 4 5 5 4 5 0 2 5 4 5
0 0 0 0 0 0 0 0 0 0 0 0 0 0 0 0 0 0 0 0 0 5 0 0 5 5 5 5 5 4 5 5 5 16 58 8 5 5 5 4 4 3 2 0 0 0 0 5 5
0 0 0 0 0 0 0 0 0 0 0 0 0 0 0 0 0 0 0 0 0 2 0 0 0 1 3 0 5 4 13 43 36 9 5 5 5 5 0 0 0 0 0 0 0 0 0 3 5
0 0 0 0 0 0 0 0 0 0 0 0 0 0 0 0 0 0 0 0 0 0 0 5 5 5 5 11 9 5 21 32 5 5 5 5 5 5 5 4 0 0 0 0 0 0 1 5 5
0 0 0 0 0 0 0 0 0 0 0 4 5 5 5 5 5 5 5 0 1 5 57 91 100 97 10 5 5 6 72 5 12 18 5 5 5 5 5 5 0 0 0 0 0 0 0 5 57
0 0 0 0 0 0 0 0 0 0 3 6 5 5 5 5 5 5 31 59 60 97 97 21 73 18 77 87 86 82 27 74 70 84 76 5 17 5 4 5 5 3 0 1 18 65 84 100 75
0 0 0 0 0 0 0 0 0 0 3 4 0 4 5 5 5 6 91 100 100 68 35 87 97 100 86 87 85 100 100 41 5 41 24 7 7 21 41 8 5 2 22 60 87 85 100 100 100
0 0 0 3 5 3 4 0 0 0 0 3 0 5 5 5 7 57 6 24 8 79 100 41 27 62 72 100 100 100 99 87 88 12 95 97 94 61 58 18 5 23 14 32 82 100 100 100 100
0 0 0 2 5 4 0 0 0 0 0 0 0 1 4 5 5 5 5 5 58 80 91 100 100 100 72 5 5 87 89 39 64 91 100 100 95 22 5 5 5 93 100 100 100 99 95 96 100
0 0 0 0 3 0 0 0 0 2 3 5 0 5 10 5 5 23 39 66 93 99 100 78 55 5 5 5 24 90 95 88 100 100 68 38 72 97 90 68 100 98 99 100 100 100 97 100 100
3 4 1 0 5 6 73 34 3 5 5 4 5 5 9 38 76 100 49 51 66 48 82 16 5 5 5 95 100 100 95 88 96 46 65 32 24 65 63 49 46 88 100 100 100 100 100 100 100
4 5 0 5 5 4 18 14 30 5 6 18 50 56 96 100 99 25 17 56 5 5 5 5 5 6 94 100 100 100 100 99 100 100 91 71 96 35 94 90 94 100 100 100 100 100 100 100 100

GFSSGP_prec_cloud_018.txt.gz
Cloud_Cover
100 100 100 100 100 89 35 57 16 84 98 98 30 5 6 6 17 34 5 5 38 5 4 48 28 84 100 100 100 100 100 100 100 11 10 0 0 2 7 2 58 79 99 100 71 19 1 5 46
98 100 100 100 95 14 25 41 91 89 98 85 16 5 57 71 5 7 5 5 5 100 93 100 100 100 100 100 100 100 100 100 47 5 5 0 2 0 0 3 3 2 5 8 0 9 16 44 5
100 95 100 100 70 36 26 45 91 97 84 29 9 6 27 23 64 90 8 5 14 96 100 100 100 100 100 100 100 100 27 62 0 0 0 1 0 0 0 5 0 0 0 0 24 39 14 0 0
100 100 100 100 93 96 98 100 78 5 5 5 4 5 11 5 50 16 97 100 100 100 100 100 100 100 100 23 6 4 4 1 0 0 0 16 1 0 0 0 0 0 0 0 12 2 1 0 0
94 55 99 100 97 100 100 36 18 63 18 70 22 8 7 8 43 100 100 100 100 100 100 100 100 66 12 5 3 0 0 0 0 0 0 2 0 0 0 0 0 0 0 13 0 0 0 0 0
96 89 92 96 88 100 100 93 93 5 5 5 5 10 73 100 100 100 100 100 100 99 100 100 100 100 1 0 0 0 0 0 0 0 0 0 0 0 0 2 4 11 1 0 0 23 21 28 22
100 100 100 100 100 58 5 38 14 5 6 8 94 99 100 100 100 100 100 100 100 100 100 86 87 3 0 0 0 0 0 0 0 0 0 0 0 0 0 0 0 0 0 1 1 4 2 0 0
100 100 100 100 100 100 100 49 5 25 100 7 99 100 100 100 100 100 100 100 100 100 100 13 1 0 0 0 0 0 0 0 0 0 0 0 4 0 0 0 0 0 0 0 0 0 0 0 0
100 100 92 100 100 100 100 100 100 100 100 100 100 100 100 100 100 100 100 100 100 100 97 23 0 0 0 0 0 0 0 0 7 0 0 0 0 0 0 2 0 0 0 0 0 0 0 0 0
100 100 100 100 93 100 70 86 100 97 100 100 100 100 100 100 100 100 100 100 59 4 0 0 0 0 0 0 0 0 0 0 0 0 0 0 0 0 0 0 0 0 0 0 0 0 0 0 0
100 90 92 100 87 61 93 100 100 100 100 100 100 100 100 100 93 96 68 12 19 1 0 0 0 0 0 0 0 0 0 0 0 0 0 0 0 0 0 0 0 0 0 0 0 0 0 0 0
98 99 100 100 100 100 100 100 100 100 100 100 100 100 100 100 77 28 0 0 0 0 0 0 0 0 0 0 0 0 0 0 0 0 0 0 0 0 0 0 0 0 0 0 0 0 0 0 0
100 95 59 92 97 100 100 100 100 100 100 100 100 98 100 95 100 8 0 0 0 0 0 0 0 0 3 0 0 0 0 0 0 0 0 0 0 0 0 0 0 0 0 0 0 0 0 0 0
100 100 100 87 89 100 100 100 100 100 100 100 51 46 79 58 0 0 0 0 0 0 0 0 0 0 0 0 0 0 0 0 0 0 0 0 0 0 0 0 0 0 0 0 0 0 0 0 0
51 6 70 100 98 100 100 100 75 66 84 0 5 0 0 0 0 0 0 0 0 0 0 0 0 0 2 0 3 1 0 0 0 0 0 0 0 0 1 0 0 0 0 0 0 0 0 0 0
0 0 0 0 28 48 6 0 0 1 0 0 0 0 0 0 0 0 0 0 0 0 0 0 0 0 0 0 0 5 5 5 0 0 0 5 4 5 5 5 5 5 5 5 3 0 4 5 4
0 0 0 0 0 0 0 0 0 0 0 0 0 0 0 0 0 0 0 0 0 0 0 0 0 0 1 5 5 5 5 5 5 5 5 5 5 4 5 5 3 0 0 3 0 1 2 0 0
0 0 0 0 0 0 0 0 0 0 0 0 0 0 0 0 0 0 0 0 0 0 0 0 0 3 5 5 5 5 5 5 5 5 5 0 3 2 0 0 0 0 0 4 3 5 5 5 2
0 0 0 0 0 0 0 0 0 0 0 0 0 0 0 0 0 0 0 0 0 0 0 4 5 5 5 5 5 5 5 5 3 5 5 5 5 5 5 4 5 30 52 9 5 5 5 4 0
0 0 0 0 0 0 0 0 0 0 0 0 0 0 0 0 0 0 0 0 0 0 4 5 5 9 26 5 5 5 5 5 5 7 14 5 5 6 8 5 10 5 6 72 78 5 5 5 0
0 0 0 0 0 0 0 0 0 0 0 0 0 0 0 0 0 0 0 0 0 0 5 41 64 32 5 5 5 8 81 92 89 88 83 28 21 62 80 5 5 18 26 5 6 7 60 19 53
0 0 0 0 0 0 0 0 0 0 0 0 0 0 0 0 5 2 0 0 4 5 5 5 5 10 33 5 5 56 95 79 21 6 5 11 75 24 5 17 51 6 5 8 9 15 37 5 79
0 0 0 0 0 0 0 0 0 0 0 0 1 4 0 4 1 1 5 5 5 5 5 5 5 32 70 89 94 29 5 5 6 75 100 100 5 5 6 13 5 5 5 5 5 5 6 32 87
0 0 0 0 0 0 0 0 4 0 0 1 5 0 0 1 4 5 5 6 30 35 66 69 29 76 78 98 16 29 36 79 38 58 7 5 5 28 100 100 89 55 5 12 67 100 75 94 92
0 0 0 2 1 2 0 0 0 0 0 5 4 0 0 5 5 5 6 19 5 13 20 62 71 76 96 40 48 60 89 57 15 6 5 5 72 100 72 62 65 9 78 98 82 77 99 100 100
0 0 0 0 0 0 0 0 2 0 0 1 0 0 3 5 5 5 5 5 24 36 12 12 90 56 8 39 60 18 5 42 69 23 97 100 100 100 15 15 51 97 100 100 69 82 67 96 96
0 0 0 0 2 4 2 1 0 0 0 2 5 5 4 5 1 5 5 5 5 22 22 5 6 29 6 9 5 9 41 96 100 100 100 100 93 75 98 90 100 94 91 100 100 100 100 100 100
0 0 3 2 22 4 0 0 0 1 3 5 5 4 0 0 4 5 5 7 13 5 5 6 5 11 40 16 5 9 6 25 97 100 100 100 58 90 97 100 100 100 100 99 97 95 99 100 83
4 4 0 0 1 1 2 0 0 2 5 8 1 0 1 5 6 39 92 95 43 47 44 28 15 36 32 6 8 46 100 100 100 100 85 94 91 82 91 91 100 100 95 100 100 100 100 100 100
0 0 0 0 4 4 4 4 5 5 5 1 5 4 6 69 100 99 99 85 28 44 13 5 5 5 24 79 100 100 100 100 100 64 97 24 74 80 71 100 100 88 100 100 100 100 100 100 100

GFSSGP_prec_cloud_021.txt.gz
Cloud_Cover
100 100 100 100 100 100 10 48 97 55 56 46 56 90 61 13 50 42 60 5 34 23 5 5 5 24 42 100 100 100 100 100 100 81 5 2 0 0 0 0 0 4 2 0 0 3 15 1 5
100 100 100 100 100 100 57 95 92 96 87 100 87 85 83 91 55 10 5 5 5 5 8 5 54 100 100 100 100 100 100 95 100 98 10 1 0 0 0 0 0 0 0 0 0 26 9 0 0
97 100 100 100 100 93 74 47 85 67 68 58 82 20 76 68 5 5 5 5 6 15 96 100 100 100 100 100 100 100 58 87 77 1 3 0 0 0 0 0 0 0 0 10 14 7 18 0 0
100 100 100 100 45 84 24 97 100 100 100 100 64 60 58 18 8 14 73 35 100 99 100 100 100 100 100 100 100 94 100 100 5 0 12 12 0 0 0 0 0 0 9 29 24 3 0 0 0
100 100 100 100 100 100 100 100 100 100 100 100 95 66 7 10 30 13 50 100 100 100 100 100 100 100 100 98 12 5 4 1 0 0 0 0 0 0 0 0 0 1 9 27 9 7 0 0 1
100 100 100 99 98 100 100 88 100 100 34 10 17 24 9 24 100 100 100 100 100 100 100 100 100 100 100 100 5 2 0 0 0 0 1 0 0 0 1 14 12 4 3 0 1 16 15 7 0
100 100 100 100 100 100 93 99 100 43 5 5 6 18 91 100 100 100 100 100 100 100 100 100 100 100 15 20 2 0 0 0 0 0 0 0 0 0 0 0 0 0 0 0 0 0 0 0 0
100 100 100 100 100 100 100 99 96 7 6 17 98 100 100 100 100 100 100 100 100 100 100 100 100 100 5 0 0 0 0 0 0 0 0 0 0 0 0 0 0 0 0 0 0 0 0 0 0
100 100 100 100 100 100 100 96 47 94 98 100 100 100 100 100 100 100 100 100 100 100 100 100 100 42 4 0 3 0 0 0 2 0 0 0 0 0 5 0 0 0 0 0 0 0 0 0 0
100 100 100 100 100 100 100 99 82 100 100 100 100 100 100 100 100 100 100 100 100 100 100 100 43 3 1 0 0 0 0 0 0 0 0 0 0 0 0 3 0 0 0 0 0 0 0 0 0
100 100 100 100 100 100 100 100 98 100 100 100 100 100 100 100 100 100 100 100 100 100 100 10 0 0 0 0 0 0 0 0 0 0 0 0 0 6 3 31 16 31 0 0 0 0 0 0 0
100 100 100 100 100 100 99 100 100 100 100 100 100 100 100 100 100 100 100 100 100 57 2 0 0 0 0 0 0 0 0 0 0 0 0 0 0 0 0 0 0 0 0 0 0 0 0 0 0
100 100 100 100 100 100 100 100 100 100 100 100 100 100 100 100 100 100 99 95 52 53 13 16 0 0 0 0 0 0 0 0 0 0 0 0 0 0 0 0 0 0 0 0 0 0 0 0 0
78 100 100 100 100 100 100 100 100 100 100 100 93 41 89 98 44 54 17 18 42 32 54 52 12 0 0 0 0 0 0 0 0 0 0 0 0 0 0 0 0 0 4 0 0 0 0 0 1
0 1 6 68 100 99 100 100 100 100 100 93 8 0 2 4 4 5 5 5 5 5 25 84 36 0 0 0 0 0 0 0 0 0 0 0 0 0 5 6 8 12 5 5 33 54 38 5 5
0 0 2 0 0 0 6 69 18 1 4 4 0 0 0 0 0 5 2 5 5 10 42 4 0 0 0 0 0 5 5 5 4 5 5 1 4 5 8 41 22 56 91 52 26 12 0 2 3
0 49 1 0 0 0 0 18 5 0 0 0 0 0 0 0 5 5 2 0 0 0 0 0 0 2 3 5 22 5 7 5 5 5 5 5 5 11 40 43 25 6 5 5 0 0 1 2 34
6 0 0 0 0 0 0 0 0 0 0 0 0 0 0 0 4 4 0 0 0 0 0 0 0 3 5 41 62 45 59 5 31 51 5 5 5 5 5 5 5 5 5 2 5 5 9 5 19
0 0 0 0 0 0 0 0 0 0 0 0 0 0 0 0 1 0 0 0 0 0 0 0 5 5 30 75 77 86 89 92 87 27 10 10 5 5 5 5 5 5 5 5 5 5 5 10 5
0 0 0 0 0 0 0 0 0 0 0 0 0 0 0 0 0 0 0 0 0 0 0 4 5 21 76 100 100 100 100 87 91 93 91 71 9 46 48 30 81 88 58 18 16 12 22 21 85
0 0 0 0 0 0 0 0 0 0 0 0 0 0 0 0 0 0 0 0 2 5 4 5 5 64 100 100 83 94 95 83 81 100 30 30 89 99 28 8 5 32 51 14 5 5 78 100 100
0 0 0 0 0 10 0 77 0 0 0 0 0 0 0 0 0 0 0 5 4 5 5 5 47 17 9 5 68 98 93 89 97 24 58 31 97 39 5 5 5 48 5 5 5 11 68 35 28
0 0 0 0 0 0 0 0 62 0 0 0 0 0 0 0 0 0 0 1 5 4 5 5 5 5 44 85 95 100 93 100 30 46 62 43 19 77 17 5 5 5 5 5 9 94 80 54 31
0 0 0 0 0 1 4 0 100 64 3 2 0 0 0 0 0 0 4 5 5 5 5 5 5 5 8 28 5 21 56 78 100 75 36 24 62 43 5 5 18 69 92 99 78 96 97 76 50
0 0 5 55 19 57 3 0 9 0 0 0 0 0 0 0 0 4 5 5 25 13 13 10 59 96 89 84 100 100 98 60 70 70 95 98 37 10 88 100 73 19 89 100 100 100 91 32 22
0 0 4 2 5 18 0 1 18 0 0 0 0 0 0 0 0 4 5 5 11 67 98 100 100 35 15 62 78 68 95 99 91 81 71 41 88 72 11 7 65 100 100 100 100 100 100 73 87
0 3 0 0 0 0 1 5 2 0 0 0 0 0 1 5 5 5 5 59 100 97 97 77 83 100 100 100 90 100 100 92 100 99 93 80 100 100 100 100 100 100 100 100 100 89 100 81 61
0 0 4 5 22 0 42 12 91 3 2 42 18 20 5 5 4 8 88 86 12 35 98 89 68 100 100 100 100 100 100 90 56 92 100 100 94 99 97 100 94 100 100 100 100 100 100 100 100
2 5 0 0 0 1 0 1 2 9 2 10 4 5 5 5 18 98 53 86 100 100 100 100 100 100 100 100 96 61 61 100 100 84 22 59 78 100 100 100 100 89 100 96 83 84 99 97 100
0 2 1 0 0 5 4 15 5 0 3 5 55 5 6 45 72 83 100 100 100 100 100 88 100 98 97 93 99 100 100 71 8 53 32 100 100 46 76 62 100 100 100 100 96 96 81 100 100

GFSSGP_prec_cloud_024.txt.gz
Cloud_Cover
100 100 100 100 100 100 99 100 69 9 58 99 100 74 11 95 80 72 47 58 40 11 16 6 5 50 6 8 5 5 4 58 100 99 100 100 7 0 0 0 0 0 0 0 5 2 18 0 0
100 100 100 100 100 100 100 100 60 64 100 83 85 33 67 100 80 97 23 44 22 44 43 77 97 87 53 100 50 13 100 100 100 99 100 5 1 0 0 0 0 0 0 0 1 22 0 0 0
100 100 100 100 100 100 82 84 100 100 96 52 58 53 23 99 61 84 66 100 100 94 100 100 100 100 58 39 66 100 100 100 100 66 46 0 2 0 1 0 0 0 0 0 2 0 0 0 0
100 100 100 100 100 100 100 60 100 100 72 59 40 68 71 49 100 100 100 100 100 100 100 100 100 100 100 100 100 100 100 100 85 100 22 34 28 0 0 0 0 0 11 23 3 0 0 0 0
100 100 100 100 100 100 100 96 100 100 99 100 64 45 34 80 100 100 99 96 91 97 100 100 100 100 100 100 100 100 100 100 100 53 2 0 0 0 0 0 1 11 10 6 0 0 0 0 0
100 100 100 100 100 100 100 100 100 100 100 95 95 94 35 45 47 48 89 98 76 100 100 100 100 100 100 100 100 100 100 100 99 2 0 0 0 0 0 0 0 0 0 0 0 0 0 0 0
100 100 100 100 100 100 100 100 96 100 60 80 20 92 100 100 100 81 48 79 100 100 100 100 100 100 100 100 100 100 100 99 24 0 0 0 0 0 0 0 0 0 0 0 0 0 0 0 0
100 100 100 100 100 100 100 100 97 84 100 100 100 100 100 100 100 100 100 100 100 100 100 100 100 100 100 100 100 100 58 4 0 0 0 0 0 0 0 0 0 0 0 0 0 0 0 0 0
100 100 100 100 100 100 100 100 100 95 85 100 100 100 100 100 100 100 99 100 100 100 100 100 100 100 100 84 86 92 5 0 0 0 0 0 9 97 18 0 0 0 0 0 0 0 0 0 0
100 100 100 100 100 97 91 100 100 100 94 100 100 100 100 100 100 100 100 100 100 100 100 100 100 100 85 5 3 0 0 0 0 0 2 90 0 36 0 1 0 0 0 0 0 0 0 0 0
100 100 100 100 100 93 100 100 100 100 100 100 100 100 100 100 100 100 100 100 100 100 100 100 100 29 4 0 0 20 0 0 0 0 0 0 0 16 0 0 0 0 0 0 0 0 0 0 0
100 100 100 100 100 100 100 100 100 100 100 100 100 100 100 100 100 100 100 100 100 100 84 76 13 0 0 0 0 0 0 0 14 0 0 0 0 0 0 0 0 0 0 0 0 0 0 0 0
100 100 100 100 100 100 100 100 100 100 100 100 100 100 100 100 100 100 100 100 97 72 5 38 1 0 0 0 0 0 0 0 0 0 0 0 0 0 0 0 0 0 0 0 0 0 0 0 2
100 100 100 100 100 100 100 100 100 100 100 100 100 100 100 100 100 100 100 99 39 9 1 2 0 0 0 0 0 0 0 0 0 0 0 0 0 0 0 0 0 0 0 0 4 5 3 0 0
0 75 81 79 100 100 100 100 100 100 100 100 100 100 100 100 100 100 19 20 7 100 62 5 54 50 0 0 0 0 0 5 0 0 2 5 0 0 0 0 0 0 0 0 0 0 0 0 0
0 0 17 4 4 2 4 23 56 4 4 56 22 13 5 56 80 81 8 4 50 37 24 93 38 4 0 0 0 0 0 5 5 5 5 5 0 5 3 5 5 2 5 5 5 5 5 0 0
0 60 70 0 4 5 5 44 100 2 0 0 0 0 0 0 97 100 91 51 64 34 2 3 3 0 0 14 2 4 5 5 5 23 6 5 4 5 5 5 4 5 4 5 25 7 3 1 5
100 38 10 1 1 0 0 0 75 0 0 0 0 0 15 34 62 94 21 9 0 0 0 0 5 7 7 5 4 5 5 5 12 99 7 5 5 5 11 5 5 5 5 5 5 5 5 5 5
0 0 0 4 0 0 0 0 2 0 0 0 0 0 0 0 0 1 1 0 0 0 0 0 0 5 5 5 41 95 17 72 26 73 76 5 74 98 5 5 5 5 5 5 5 3 5 5 5
0 0 1 0 0 0 0 0 0 0 0 0 0 0 0 0 0 0 0 0 0 0 0 5 53 99 10 73 74 71 98 46 56 76 66 5 99 80 18 5 24 4 5 5 5 4 2 5 4
0 0 0 0 0 0 0 1 0 0 0 0 0 0 0 0 0 0 0 0 0 4 8 83 72 5 67 34 5 5 5 34 62 79 70 100 45 80 50 5 5 5 5 5 5 5 5 4 5
0 0 0 0 0 10 2 27 70 1 0 0 0 0 0 0 0 0 0 0 5 5 12 5 5 5 4 5 2 5 5 5 9 5 7 5 26 92 59 60 50 5 5 5 11 5 5 5 5
0 0 0 0 0 0 2 0 95 5 8 2 0 0 0 0 0 0 0 0 1 5 5 5 5 5 5 5 5 8 48 50 27 83 100 100 100 100 100 100 51 35 92 99 58 94 100 100 98
0 0 0 0 0 0 11 58 100 100 96 22 1 0 0 0 0 0 0 1 0 3 2 1 0 5 6 9 27 99 100 100 100 100 100 100 100 100 100 100 100 95 81 100 100 100 99 32 24
0 0 11 65 71 12 21 65 38 8 92 51 5 0 0 0 0 0 4 5 5 19 5 14 74 100 100 99 100 100 100 100 100 100 100 80 77 96 100 100 100 100 89 100 100 100 100 100 25
0 0 2 2 10 32 19 2 5 1 1 5 0 0 1 0 0 2 5 13 43 41 41 95 100 100 100 100 100 100 100 100 100 82 100 100 100 100 100 98 81 100 100 66 91 100 100 83 93
9 3 0 0 0 0 0 9 64 18 42 5 0 13 82 7 5 8 57 11 8 78 95 46 72 100 100 100 100 100 100 100 100 100 95 50 6 5 5 5 5 12 98 68 100 85 100 90 40
0 0 2 87 9 5 9 88 100 70 24 43 93 48 5 5 22 29 25 63 54 22 100 100 100 100 100 100 100 100 100 100 73 6 3 2 4 3 5 50 5 7 92 100 25 59 93 6 6
0 4 2 2 2 2 17 28 8 66 24 20 5 8 13 5 5 9 13 20 100 100 100 100 98 94 64 95 95 43 5 3 18 27 5 5 5 5 5 5 8 96 82 97 100 100 98 98 7
0 0 3 5 0 0 1 68 0 0 2 4 8 13 60 5 5 6 77 78 84 86 8 77 100 82 33 6 5 5 5 5 5 5 2 5 5 46 44 24 27 68 58 47 100 97 7 5 5

GFSSGP_prec_cloud_027.txt.gz
Cloud_Cover
100 100 100 100 100 100 100 99 100 100 100 91 97 97 100 11 6 42 81 80 96 11 50 68 98 100 71 18 53 24 5 5 5 11 8 73 96 100 100 96 56 4 0 0 0 22 18 0 0
100 100 100 100 100 100 100 100 100 100 100 84 100 69 100 100 100 42 19 100 65 99 96 99 83 100 69 78 96 54 5 5 18 90 100 100 100 100 71 0 0 0 0 0 0 2 2 0 0
100 100 100 100 100 100 100 100 100 100 100 100 96 100 100 100 96 27 56 100 94 49 57 84 100 77 94 100 100 10 100 98 100 100 100 100 90 100 0 0 1 0 0 0 0 0 0 0 0
100 100 100 100 100 100 100 100 100 100 100 100 100 100 100 100 100 100 100 100 100 100 89 82 90 100 97 100 100 100 100 100 100 100 100 100 23 0 0 0 0 0 4 0 0 0 0 0 0
100 100 100 100 100 100 100 100 100 100 100 91 100 100 100 100 100 100 89 14 100 84 100 100 100 100 100 100 100 100 100 100 100 100 100 87 10 0 0 0 10 11 0 0 0 0 0 0 0
100 100 100 100 100 100 100 100 100 100 98 84 100 100 100 88 100 79 72 100 100 100 100 100 100 100 100 100 100 100 100 100 100 100 69 4 0 0 0 0 0 0 0 0 0 0 0 0 0
100 100 100 100 100 100 100 100 100 100 100 100 93 100 100 100 100 100 66 94 100 100 100 100 100 100 100 100 100 100 100 100 100 35 4 0 0 0 0 0 0 0 0 0 0 0 0 0 0
100 100 100 100 100 100 100 100 100 100 100 97 100 100 100 100 95 45 45 96 100 100 100 100 100 100 100 100 100 100 100 100 6 3 0 0 0 0 0 0 0 0 0 0 0 0 0 0 0
100 100 100 100 100 100 100 100 100 100 99 100 100 100 89 56 70 77 99 100 100 100 100 100 100 100 100 100 100 100 100 94 8 0 0 0 0 0 0 0 0 0 0 0 0 0 0 0 0
100 100 100 100 100 100 100 100 100 100 100 100 99 98 99 100 100 100 100 100 100 100 100 100 100 100 100 100 100 100 100 38 0 0 0 0 0 0 0 0 0 0 0 0 0 0 0 0 0
100 100 100 100 100 100 100 100 100 100 99 98 79 100 100 100 100 100 100 100 100 100 100 100 100 100 100 100 100 100 8 1 0 0 0 0 0 0 0 0 0 0 0 0 0 0 0 0 0
100 100 100 100 100 100 100 100 100 100 100 100 100 100 100 100 100 100 100 100 100 100 100 100 100 100 100 100 44 1 2 0 0 0 0 0 0 0 0 0 0 0 0 0 0 0 0 0 0
100 100 100 100 100 100 100 100 100 100 100 100 100 100 100 100 100 100 100 100 100 100 100 100 100 100 97 47 100 100 95 16 0 0 0 0 0 0 0 0 0 0 0 0 0 0 0 0 0
100 100 100 100 100 100 100 100 100 100 100 100 100 100 100 100 100 100 100 100 100 100 100 98 33 92 96 100 100 100 100 4 0 0 0 0 0 4 5 1 0 0 0 0 0 0 0 0 0
98 97 100 100 100 100 100 100 100 100 100 100 100 100 100 100 100 100 100 100 94 42 13 15 74 100 100 100 100 100 10 0 0 0 0 1 0 5 5 3 5 5 2 0 0 0 0 0 0
10 89 71 100 100 96 3 81 85 88 97 94 98 98 38 26 43 50 6 6 5 8 1 83 100 100 100 100 100 97 5 3 0 0 1 0 5 3 4 5 5 5 3 0 0 0 0 0 0
72 100 31 24 5 0 0 0 0 5 13 20 4 3 40 45 5 83 41 5 5 4 0 1 0 100 100 100 99 5 0 1 5 5 5 5 5 5 5 5 5 36 5 5 2 0 2 0 3
12 59 67 3 0 0 0 1 67 8 2 2 0 0 0 0 4 0 5 5 5 0 0 0 0 1 2 8 4 5 5 5 5 5 5 5 5 5 5 7 33 47 5 5 5 1 0 4 5
16 30 4 0 0 0 0 0 0 0 0 0 0 0 0 0 0 0 0 5 5 3 4 4 0 0 0 0 5 5 5 5 5 5 5 5 5 16 100 5 5 1 0 0 0 0 2 5 5
3 1 0 0 0 0 0 0 0 0 0 0 0 0 0 0 0 0 0 0 0 7 0 0 5 26 5 5 5 5 5 2 4 4 66 92 55 9 5 5 3 4 5 5 33 40 10 15 5
0 0 0 0 0 0 0 0 0 0 0 0 2 0 0 0 0 0 0 0 0 0 2 5 40 62 41 5 5 5 1 3 5 5 64 77 22 6 3 2 3 4 5 4 2 1 2 5 5
0 0 0 0 0 0 0 3 2 0 0 1 1 0 0 0 0 0 0 0 5 5 5 2 5 5 5 5 2 1 5 5 44 45 71 82 25 5 5 2 4 5 0 0 2 4 5 16 82
0 0 0 0 0 0 0 1 98 31 5 4 0 0 4 1 0 0 0 0 0 0 0 5 5 5 1 5 34 100 100 100 100 100 96 41 6 10 45 89 100 100 100 97 94 60 100 100 100
0 0 0 0 0 0 0 21 99 36 10 1 0 24 7 23 0 0 0 0 0 0 1 1 0 0 0 3 5 29 91 89 100 100 100 100 100 100 100 81 38 4 4 5 54 93 100 99 100
0 0 0 3 4 82 36 24 100 100 78 2 1 5 0 0 0 0 0 3 3 3 4 5 56 100 96 100 80 23 5 31 94 72 98 72 34 14 9 7 5 4 5 5 5 80 90 43 97
0 0 0 0 2 5 8 49 98 56 5 81 80 56 5 3 1 0 0 3 5 26 22 5 12 37 96 78 100 99 93 100 98 100 44 39 11 5 5 4 2 4 2 5 5 27 100 100 99
0 0 0 0 0 0 2 4 52 15 93 100 100 90 58 5 25 27 5 0 5 20 92 84 80 84 14 98 100 98 94 61 100 100 100 39 5 0 4 5 5 9 5 5 7 99 96 77 54
0 0 0 1 0 1 0 5 31 5 51 79 100 100 60 24 5 5 7 5 77 78 6 5 5 5 20 71 68 96 100 94 52 20 5 3 5 5 1 5 5 40 51 38 10 5 5 5 96
0 0 0 0 0 2 4 2 5 5 8 23 57 22 5 5 6 87 51 56 47 97 73 39 28 50 99 100 92 54 14 5 5 5 5 4 1 0 0 5 5 5 5 8 5 64 12 86 42
0 0 1 0 0 0 4 0 2 6 40 100 45 89 64 5 6 95 100 24 5 5 12 86 46 87 40 42 86 99 12 5 1 0 0 0 0 5 5 5 9 97 86 59 46 5 5 5 5

GFSSGP_prec_cloud_030.txt.gz
Cloud_Cover
100 100 100 100 100 100 100 100 100 100 100 100 100 45 92 95 89 94 64 24 58 87 18 70 89 20 23 14 5 5 5 3 2 0 0 3 5 5 5 55 8 2 3 8 4 7 4 0 0
100 100 100 100 100 100 92 100 100 100 100 100 100 100 100 100 100 96 89 99 90 54 43 66 100 100 100 80 40 39 5 6 5 5 5 22 5 12 100 80 27 7 0 0 0 4 0 0 0
100 100 100 100 100 100 93 100 100 100 100 100 100 100 98 84 100 43 36 53 48 71 82 100 100 24 64 77 10 6 14 11 26 16 44 100 97 99 100 89 100 8 0 0 0 0 0 0 0
100 100 100 100 100 100 100 100 100 100 100 100 100 100 99 100 100 69 89 73 8 90 92 100 98 100 94 42 44 89 22 87 100 100 100 100 100 100 100 100 91 0 0 0 0 0 0 0 0
100 100 100 100 100 100 100 100 100 100 100 100 100 100 100 100 100 100 18 34 61 97 100 100 100 28 20 89 97 100 100 100 100 43 65 100 100 100 96 8 0 0 0 0 0 0 0 0 0
100 100 100 100 100 100 100 100 100 100 100 100 100 100 100 100 100 100 100 100 100 100 100 99 89 96 86 100 100 100 100 100 99 100 100 100 100 100 6 0 0 0 0 0 0 0 0 0 0
100 100 100 100 100 100 100 100 100 100 100 100 100 100 100 100 100 100 100 100 100 100 100 100 100 100 90 100 100 100 100 100 100 100 100 100 100 66 4 0 0 0 0 0 0 0 0 0 0
100 100 100 100 100 100 100 100 100 100 100 100 100 100 100 100 57 100 100 100 100 100 100 100 100 98 100 100 100 100 100 100 100 100 100 100 100 5 0 0 0 0 0 0 0 0 0 0 0
100 100 100 100 100 100 100 100 100 100 100 100 100 100 100 100 100 84 50 99 100 100 96 100 100 100 100 100 100 100 100 100 100 100 100 16 1 0 0 0 0 0 0 0 0 0 0 0 0
100 100 100 100 100 100 100 100 100 100 100 99 98 100 100 100 100 100 100 100 100 100 100 100 100 100 100 100 100 100 100 100 100 100 5 4 3 0 0 0 0 0 0 0 0 0 0 0 0
100 100 100 100 100 100 100 100 100 100 100 100 100 100 97 100 100 100 100 100 100 100 100 100 100 100 100 100 100 100 100 100 100 91 72 22 10 5 0 0 0 0 0 0 0 0 0 0 0
100 100 100 100 100 100 100 100 100 100 100 72 90 100 100 100 100 100 100 100 100 100 100 100 100 100 100 100 100 100 100 100 100 100 100 100 7 4 0 0 0 0 0 0 0 0 0 0 0
100 100 100 100 100 100 100 100 100 100 100 100 100 100 100 100 100 100 100 100 100 100 100 100 100 100 100 100 100 100 100 100 100 100 100 100 6 5 0 0 0 0 0 0 0 0 0 0 0
100 100 100 100 100 100 100 100 100 100 100 100 100 100 100 100 100 100 100 100 100 100 100 100 100 100 100 100 97 99 64 100 100 100 100 100 81 1 0 0 0 0 0 0 0 0 0 0 0
100 100 100 97 100 100 100 100 100 100 100 100 100 100 100 100 100 100 100 100 100 100 100 100 100 25 88 100 97 100 100 13 100 100 95 100 64 0 5 5 5 5 4 5 5 5 0 0 0
100 100 100 100 100 100 100 100 100 92 95 90 100 100 100 100 100 100 100 100 97 34 48 45 4 70 100 68 91 100 100 15 100 100 100 100 5 5 5 2 4 5 5 5 5 5 5 0 1
100 100 100 100 100 100 100 100 100 100 100 100 99 100 100 4 0 0 4 4 3 5 5 5 15 5 22 4 0 91 100 100 100 19 76 17 69 66 5 5 4 5 5 5 5 4 0 0 0
3 4 25 62 27 3 44 18 22 5 76 64 8 48 3 0 0 1 0 1 4 5 5 17 85 32 62 5 5 49 100 99 99 14 5 5 5 31 72 5 44 19 5 5 1 0 0 0 2
6 2 3 0 0 0 0 0 0 0 0 0 0 0 0 0 0 0 0 0 5 52 66 44 75 79 63 92 97 22 68 76 75 13 2 5 5 33 73 98 28 5 4 5 5 5 4 0 4
97 90 4 0 0 0 0 0 0 0 0 0 0 0 0 0 0 0 0 5 4 8 12 1 0 59 79 100 96 100 100 95 18 0 5 8 73 94 51 8 30 50 4 1 0 3 4 5 5
50 5 0 0 0 0 0 0 0 0 0 0 0 0 84 88 8 1 2 29 40 43 5 0 4 5 6 74 88 24 14 54 78 93 80 31 5 5 2 0 0 2 1 0 0 0 0 0 2
0 0 0 0 0 0 0 0 0 0 0 0 0 0 63 100 36 6 3 0 0 0 0 0 5 5 16 10 5 5 14 89 88 86 65 10 5 5 0 0 1 0 2 4 2 4 5 56 88
0 0 0 0 0 0 0 0 0 0 0 0 0 62 100 100 72 100 100 100 0 0 0 0 0 0 0 5 29 97 100 100 97 100 100 100 100 100 100 100 100 100 99 22 5 3 5 2 36
0 0 0 0 0 0 0 0 4 5 4 60 16 100 100 98 19 66 78 13 0 1 0 0 0 0 2 5 62 100 89 88 100 100 100 100 100 99 91 86 68 10 4 3 2 5 5 5 6
0 0 0 1 3 4 2 1 5 51 27 88 100 100 25 86 10 42 29 22 3 3 5 4 4 4 67 80 50 54 31 24 27 20 39 25 60 38 5 5 5 5 5 4 5 5 6 5 25
0 0 0 0 2 5 5 14 51 11 16 78 65 30 40 63 22 97 80 4 0 1 5 5 98 100 100 100 100 100 100 99 100 100 44 62 8 5 3 4 5 1 5 5 5 5 7 10 5
0 0 0 0 0 0 0 5 5 58 89 100 100 99 99 88 87 50 39 5 5 5 5 5 5 5 5 5 5 8 10 5 23 7 67 85 5 1 0 0 0 0 0 5 5 5 5 5 5
0 0 0 0 0 1 0 3 60 5 89 16 13 12 70 7 19 10 9 10 44 14 5 5 5 5 27 77 28 5 5 5 30 23 5 3 0 0 0 0 0 0 0 5 5 5 2 2 4
0 0 0 0 0 2 4 0 0 1 5 5 7 92 100 100 96 67 98 96 90 5 7 5 63 53 39 80 5 5 5 5 5 5 5 0 0 0 0 0 2 0 5 5 4 5 1 5 5
0 0 0 0 0 0 4 1 3 31 48 5 27 84 44 85 77 16 97 76 5 5 5 5 5 20 5 5 5 1 5 4 2 3 0 0 1 40 50 28 27 73 60 52 2 0 5 2 4

GFSSGP_prec_cloud_033.txt.gz
Cloud_Cover
100 100 100 100 100 100 100 100 100 89 100 100 100 100 100 100 100 95 65 75 83 97 89 98 90 5 5 5 5 5 5 6 1 0 0 0 1 4 5 0 4 13 11 5 5 2 1 0 0
100 100 100 100 100 100 100 100 100 100 99 100 100 100 100 100 100 100 100 100 100 100 100 57 71 23 12 15 36 5 7 17 9 4 3 6 5 5 2 5 5 12 99 23 2 0 0 0 0
100 100 100 100 100 100 100 100 100 100 100 100 100 100 100 100 100 100 100 100 100 96 69 99 50 97 98 100 71 6 5 69 7 5 12 13 8 5 39 5 5 98 10 3 2 0 0 0 0
100 100 100 100 100 100 100 100 100 100 100 100 100 100 100 92 93 74 46 72 100 100 91 24 100 100 94 100 5 26 99 98 5 7 5 19 81 6 5 34 92 17 7 5 2 0 0 0 0
100 74 100 100 100 100 100 100 100 100 100 100 100 100 100 55 91 100 100 54 83 76 59 100 100 100 100 100 100 100 100 100 76 51 56 20 5 12 64 71 99 6 88 4 0 0 0 0 0
100 93 100 100 100 100 100 100 100 100 100 100 100 100 100 100 100 100 100 92 100 100 91 99 100 100 100 100 100 100 100 100 97 97 100 90 27 62 45 84 74 5 5 2 0 0 0 0 0
100 100 80 100 100 100 100 100 100 100 100 100 100 100 100 100 100 100 100 97 91 57 90 99 100 98 100 45 96 100 100 91 100 61 19 95 100 100 52 12 5 4 2 0 1 0 0 0 0
100 100 100 100 100 100 100 100 100 100 100 100 100 100 100 100 100 100 100 100 59 80 100 100 100 100 100 100 100 100 100 100 100 16 100 100 100 98 8 69 5 2 0 0 0 0 0 0 0
100 100 100 100 100 100 100 100 100 100 100 100 100 100 100 100 100 100 100 100 100 100 100 100 100 100 100 100 100 100 100 100 100 100 100 100 75 19 69 5 4 5 0 0 0 0 0 0 0
100 100 100 100 100 100 100 100 100 100 100 100 100 100 100 100 100 100 100 100 100 100 100 100 100 100 100 100 100 100 100 100 100 100 100 100 75 20 5 5 5 5 5 0 0 0 0 0 0
100 100 100 100 100 100 100 100 100 100 100 100 100 100 100 100 100 100 100 100 100 100 100 100 100 100 100 100 100 100 100 100 100 100 100 100 100 99 88 85 5 5 5 5 0 0 0 0 0
100 100 100 100 100 100 100 100 100 100 100 100 100 100 100 100 100 100 100 100 100 100 100 100 100 100 100 100 100 100 100 100 100 100 100 100 100 21 58 100 76 13 8 6 2 0 0 0 0
100 100 100 100 100 98 100 100 100 100 94 100 100 100 100 100 100 100 100 100 100 100 100 100 100 100 100 100 100 100 100 92 76 47 88 28 96 100 100 97 96 75 54 47 0 0 0 0 0
100 100 100 100 95 87 100 100 100 100 100 100 100 100 100 100 100 100 100 100 100 100 100 100 100 100 100 100 100 100 100 94 100 100 97 100 74 100 100 80 96 100 100 57 0 0 2 2 0
100 100 100 100 100 100 100 100 100 100 100 100 100 100 100 100 100 100 100 100 100 100 100 100 100 29 11 74 100 100 100 100 100 100 100 100 92 100 53 66 76 100 64 3 2 5 5 0 0
100 100 100 100 100 100 100 100 100 100 100 100 100 100 100 100 100 100 98 100 100 55 42 40 95 32 16 70 100 100 84 4 12 35 20 96 21 51 97 84 42 5 5 5 5 2 0 0 2
96 100 100 100 100 100 100 100 61 95 100 100 97 100 100 100 100 100 100 100 100 100 87 96 92 100 100 100 100 100 80 16 20 0 1 2 47 68 21 5 5 5 5 5 5 5 4 0 0
49 95 100 100 100 100 100 100 100 100 100 100 100 100 100 100 100 72 100 50 56 34 48 60 78 100 100 100 100 100 71 11 1 2 5 5 1 3 5 6 64 91 99 13 13 5 4 0 0
5 5 5 56 92 100 100 100 100 100 100 100 100 10 5 5 5 5 5 4 1 5 87 100 100 100 51 47 98 82 49 5 5 5 5 4 54 99 86 46 5 9 4 5 5 5 3 0 0
5 5 5 9 6 33 8 5 0 0 5 5 4 0 0 0 6 6 0 2 44 98 46 42 8 74 97 75 40 60 5 5 5 5 3 5 42 8 0 0 1 24 15 4 1 0 0 0 2
3 5 5 1 0 0 1 0 0 0 0 0 0 0 5 5 10 5 5 40 46 4 2 4 2 0 0 4 5 5 5 5 5 16 10 5 5 1 0 0 2 1 1 0 0 0 0 0 0
0 0 0 0 0 0 0 0 0 0 0 0 5 0 5 78 73 85 7 5 5 23 1 1 0 0 0 2 2 2 38 8 7 4 1 2 2 4 5 5 5 5 12 4 5 2 0 0 5
0 0 0 0 0 0 0 0 0 0 0 0 5 5 57 89 100 81 14 10 6 5 6 5 5 5 4 78 100 98 92 100 100 100 98 100 100 100 100 100 100 94 90 52 0 0 2 5 14
0 0 0 0 0 0 0 0 0 0 0 0 5 15 92 97 100 100 100 100 98 86 97 96 52 5 31 82 100 100 100 100 100 100 100 100 100 100 73 13 38 6 0 0 0 0 5 5 5
0 0 0 0 0 0 0 0 0 0 0 4 42 26 49 100 100 100 100 100 100 100 93 8 5 5 91 100 100 100 100 100 100 100 100 100 67 56 74 3 0 0 0 0 0 5 5 5 3
0 0 0 0 0 0 0 4 0 0 3 5 5 5 5 28 94 100 100 100 100 97 7 6 21 99 100 100 100 100 100 100 100 100 98 8 4 0 0 0 0 0 0 0 0 0 0 0 0
0 0 0 0 0 3 0 0 0 0 5 4 2 5 60 97 81 5 5 66 5 5 10 88 93 100 100 100 100 100 92 95 23 5 5 5 5 4 0 0 3 5 5 0 5 3 5 0 0
0 0 0 0 0 1 0 0 0 0 1 5 83 97 6 5 0 0 4 5 38 68 7 5 5 5 16 34 17 5 5 5 5 5 5 5 4 1 4 33 62 95 84 30 41 64 21 11 5
0 0 0 0 0 2 3 0 0 0 1 5 4 2 5 5 6 60 68 34 64 19 26 76 5 5 19 5 5 11 5 5 5 5 5 5 9 86 6 35 100 55 88 100 100 100 100 100 48
0 0 0 0 0 1 4 1 0 0 0 5 5 5 5 33 55 33 53 99 89 97 80 57 88 100 12 10 5 5 4 5 5 38 83 99 95 90 70 59 65 99 93 100 100 100 100 100 100

GFSSGP_prec_cloud_036.txt.gz
Cloud_Cover
86 38 90 100 100 100 100 100 100 100 100 100 100 100 100 100 100 100 100 100 100 98 70 95 100 95 19 74 24 5 5 4 0 5 0 0 4 0 1 4 14 12 0 0 0 0 0 0 0
59 8 46 100 100 100 100 100 100 100 100 100 100 100 100 100 100 100 100 100 91 91 68 100 100 100 43 5 8 5 4 10 3 2 2 5 4 73 6 1 5 1 0 0 2 2 0 0 0
70 69 92 100 100 100 100 100 100 100 100 100 100 100 100 100 100 100 100 77 90 100 87 93 27 65 100 76 12 76 5 5 5 5 10 10 8 5 5 8 5 0 0 5 5 2 0 0 0
69 67 25 6 100 100 100 100 100 100 100 100 100 100 100 100 100 100 100 100 100 100 100 90 52 100 100 100 25 6 5 5 50 5 9 5 5 5 5 5 13 0 4 7 4 5 0 0 0
11 90 93 5 5 100 100 100 100 100 100 100 100 100 100 100 100 100 100 100 100 100 96 62 95 100 97 55 51 100 98 21 87 60 42 49 46 88 5 60 5 10 48 5 5 2 0 0 0
73 63 22 5 95 36 100 100 100 100 100 100 100 100 100 100 100 100 100 96 86 79 34 70 86 99 99 96 100 100 100 100 37 84 100 68 77 80 100 93 5 6 65 5 5 0 0 0 0
80 10 5 14 100 100 100 100 100 100 100 100 100 100 100 100 100 100 100 100 100 100 92 99 100 93 100 100 100 100 100 100 100 100 100 50 100 54 6 100 52 68 5 11 0 0 0 0 0
6 5 7 61 100 100 100 100 100 100 100 100 100 100 100 100 100 100 100 100 100 100 100 100 100 100 100 100 100 100 100 100 100 74 79 100 100 100 100 100 58 66 2 0 5 0 0 0 0
100 85 100 99 100 100 100 100 100 100 100 100 100 100 100 100 100 100 95 99 100 100 100 100 100 100 100 100 100 100 100 100 100 100 100 100 100 99 73 100 5 39 4 5 2 1 1 5 0
100 83 100 88 100 100 100 100 100 100 100 100 100 100 100 100 100 100 100 100 100 100 100 100 100 100 100 100 100 100 100 100 100 100 100 100 97 95 5 5 58 5 3 5 5 4 5 5 4
100 100 100 100 100 100 100 100 100 100 100 100 100 100 100 100 100 100 100 100 100 100 100 100 100 100 100 100 100 100 100 100 100 100 100 90 96 58 54 44 9 5 5 5 4 5 70 45 7
97 100 100 100 100 100 100 100 100 100 100 100 100 100 100 100 100 100 100 100 100 100 100 100 100 100 100 100 100 100 100 100 100 100 100 43 11 75 6 4 4 5 5 5 5 5 5 5 37
100 100 100 100 100 100 100 100 100 100 100 100 100 100 100 100 100 100 100 100 100 100 100 100 100 100 100 100 100 100 100 100 100 71 40 74 95 21 83 100 50 5 28 87 100 19 9 16 8
100 100 100 100 100 100 100 100 100 100 100 92 100 99 76 100 100 100 100 100 100 100 100 100 100 100 100 100 100 100 100 100 77 30 43 5 8 33 41 77 23 97 41 61 98 10 5 5 4
100 100 100 100 100 100 100 100 100 100 100 100 100 100 100 100 100 100 100 100 100 100 100 100 100 94 100 100 100 100 100 100 100 100 35 100 100 86 22 4 5 5 7 92 13 0 0 1 4
100 100 100 100 100 100 100 100 100 99 56 46 86 100 100 100 100 28 94 100 83 66 100 100 100 100 100 100 100 100 100 100 100 100 100 100 22 16 1 1 4 1 1 3 5 5 5 5 3
100 100 100 100 100 100 100 100 100 93 94 52 46 100 100 58 76 24 63 99 100 95 100 100 97 100 100 100 100 100 100 100 100 100 100 27 37 6 48 93 100 35 11 17 88 55 4 0 2
89 100 100 100 100 100 100 100 100 100 100 73 100 99 100 99 100 100 100 100 100 99 41 21 86 100 100 100 100 100 100 100 100 100 63 79 99 100 82 28 9 7 26 11 9 21 10 3 0
63 64 87 100 100 100 100 100 100 100 100 100 100 98 98 100 72 76 53 63 32 67 100 100 100 100 100 100 100 100 100 60 5 5 5 0 0 5 2 5 5 5 4 0 0 0 0 0 0
5 5 18 69 69 100 96 89 89 79 100 100 100 99 82 5 5 5 5 21 22 96 93 72 37 52 91 96 6 4 5 5 2 0 0 0 0 3 5 5 5 3 1 0 0 0 0 5 5
5 42 78 43 71 91 44 22 16 80 83 56 12 5 3 0 4 5 4 12 54 21 44 86 100 67 2 0 0 3 0 0 0 0 0 0 0 0 1 2 5 0 0 0 0 0 0 0 0
1 0 1 3 5 5 5 6 8 2 1 0 0 0 0 1 5 5 5 12 8 19 9 5 4 5 5 5 2 1 0 0 3 5 5 2 4 5 5 5 5 5 5 0 2 0 0 0 2
0 0 0 0 0 4 4 2 0 0 0 0 0 0 4 2 5 5 46 45 100 63 99 22 6 9 5 5 64 28 5 5 5 5 5 5 11 6 5 20 5 6 6 5 3 5 4 2 5
0 0 0 0 0 0 0 0 0 0 0 0 0 0 5 5 5 12 100 100 100 99 95 100 99 95 100 100 69 70 70 5 5 5 5 5 23 92 93 35 5 5 5 5 5 0 2 5 4
0 0 0 0 0 0 0 0 0 0 0 0 0 4 5 5 5 5 5 84 100 100 100 78 42 18 98 47 23 66 8 6 45 44 52 99 94 78 7 5 15 6 4 2 4 4 3 2 2
0 0 0 0 3 3 0 0 0 0 0 0 0 4 1 4 67 77 98 88 34 36 20 32 53 72 6 25 97 88 98 100 100 100 48 10 9 63 53 7 5 5 5 5 5 6 54 76 94
0 0 0 0 0 2 0 0 0 0 0 0 0 1 10 96 96 84 5 5 5 62 99 87 21 58 69 70 100 98 93 36 5 5 46 22 31 10 5 5 5 5 57 82 17 93 100 92 36
0 0 0 0 0 0 0 0 0 0 0 0 1 5 5 5 4 2 4 5 36 32 5 75 47 47 27 47 5 5 3 5 5 5 13 5 5 5 5 5 2 64 66 82 89 100 100 94 100
0 0 0 0 1 2 4 0 0 0 0 0 1 5 5 0 5 4 2 4 5 5 48 14 69 62 84 87 33 5 6 5 5 5 5 11 5 5 2 0 1 9 20 15 65 90 100 100 98
0 0 0 0 0 4 4 1 0 0 0 0 0 0 1 5 5 5 5 39 60 85 91 98 60 100 74 70 29 21 48 9 5 5 3 2 0 0 0 0 0 2 5 88 86 100 100 100 100

GFSSGP_prec_cloud_039.txt.gz
Cloud_Cover
0 5 2 0 1 58 100 100 100 100 100 100 97 68 100 100 100 100 100 100 100 100 100 100 100 100 15 11 57 94 1 5 5 5 5 5 0 1 0 5 1 0 8 85 0 4 0 4 0
2 3 0 0 0 0 100 100 100 100 100 100 100 80 99 100 100 100 100 100 100 100 100 100 100 100 7 6 5 5 6 28 9 28 72 3 3 1 3 4 2 4 100 6 1 5 0 1 7
5 4 0 0 0 4 56 100 100 100 100 100 100 100 100 100 100 100 100 100 100 99 99 99 91 80 6 37 5 9 62 37 29 7 5 34 40 34 5 5 86 39 5 5 5 5 1 0 6
15 0 1 0 5 30 40 100 100 100 100 100 100 100 100 100 100 100 100 100 100 94 100 100 100 66 98 89 78 58 84 16 5 5 84 9 100 5 5 95 100 100 7 5 5 42 3 0 4
71 5 5 1 2 3 5 90 100 77 100 100 100 100 100 100 100 100 100 100 100 100 100 100 100 100 94 78 79 100 18 8 44 11 77 68 68 25 100 100 100 93 33 95 5 5 4 1 5
46 11 5 5 5 22 5 73 91 100 100 100 100 100 100 100 100 100 100 100 100 100 100 100 100 97 77 100 100 94 29 23 90 78 96 99 97 81 100 100 98 40 5 5 5 5 20 2 0
8 65 53 5 48 41 5 83 100 100 100 100 100 100 100 100 100 100 100 100 100 100 100 100 100 100 100 100 100 98 75 98 90 100 100 100 100 100 95 69 100 22 5 5 5 1 0 5 0
94 100 83 12 95 56 6 88 94 100 100 100 100 100 100 100 100 100 100 100 100 100 100 100 100 100 100 100 85 49 100 100 100 100 100 100 100 89 100 91 39 5 5 5 1 0 5 6 0
96 85 84 98 100 100 100 84 100 100 100 100 100 100 100 100 100 100 100 100 100 100 100 100 96 95 93 100 100 100 100 100 100 100 100 100 100 100 100 95 96 5 5 5 1 0 5 22 5
93 94 86 100 100 100 100 100 100 100 100 100 100 100 100 100 100 100 100 100 100 100 100 100 91 100 100 100 100 100 100 100 100 100 100 100 100 100 100 39 22 7 5 4 0 1 0 1 4
96 93 100 100 100 100 100 100 78 100 96 93 100 100 100 100 100 100 100 100 100 100 100 100 100 100 100 100 100 100 100 100 100 100 100 100 100 100 98 6 23 2 2 4 5 3 0 3 4
99 100 100 100 100 100 100 100 100 100 100 100 100 100 100 100 100 100 100 100 100 100 100 100 100 100 100 100 100 100 100 100 100 100 100 100 100 85 10 4 5 5 5 4 0 0 0 0 4
100 100 100 100 100 100 100 100 100 100 100 100 100 100 100 100 100 100 100 100 100 100 100 100 100 100 100 100 100 100 100 100 100 100 100 75 5 17 5 5 3 1 5 34 0 0 0 0 0
100 100 100 100 100 100 100 100 100 100 100 100 100 100 100 100 100 100 73 100 100 100 100 98 90 100 100 100 100 82 100 100 100 100 100 100 100 84 100 87 26 6 5 0 0 0 0 0 0
100 100 100 100 100 100 100 100 100 100 100 100 100 100 100 100 52 59 97 100 100 100 99 100 100 80 84 86 100 100 100 100 74 100 100 100 100 97 99 100 100 79 12 32 27 5 5 3 4
100 100 100 100 100 100 100 100 100 100 100 100 83 99 100 100 100 95 83 35 33 13 97 94 100 100 100 98 100 100 100 100 100 100 100 100 100 100 100 100 100 23 5 35 5 17 10 5 5
100 100 100 100 100 100 100 100 100 100 100 100 100 100 100 72 5 5 19 13 71 98 100 100 90 100 95 100 100 100 100 100 100 100 100 100 100 100 100 100 84 6 5 5 22 13 18 87 89
100 100 100 100 100 100 100 100 100 100 100 100 100 100 100 36 99 70 66 100 100 100 100 85 83 100 100 100 100 100 100 100 100 100 100 100 100 100 100 28 0 3 5 5 5 28 36 16 7
100 100 95 48 36 62 98 97 100 100 99 100 93 58 95 26 49 100 100 100 59 61 32 75 94 86 83 100 100 100 100 100 100 100 100 100 100 100 98 5 5 5 5 5 5 5 5 5 5
100 88 44 58 75 42 19 15 17 57 23 5 5 21 48 73 91 69 77 70 52 44 41 13 55 67 72 72 5 5 72 100 76 100 98 21 1 1 0 0 0 0 0 0 2 4 2 5 4
72 99 93 84 100 100 89 78 95 66 15 5 38 6 5 5 6 29 5 4 5 5 5 23 24 5 15 5 1 5 50 5 5 5 8 5 5 0 3 5 2 14 74 93 99 97 78 5 1
26 16 13 37 38 70 75 46 6 5 5 13 53 17 7 5 5 5 4 5 5 88 80 56 5 5 5 3 5 61 48 60 82 5 3 5 5 5 5 43 95 100 100 42 8 1 0 0 3
31 5 16 10 5 10 5 4 0 0 0 0 0 0 0 0 5 4 5 5 17 68 13 69 42 8 92 99 92 74 77 91 91 54 5 5 7 71 100 100 96 6 5 5 5 0 0 0 5
0 0 0 0 2 3 4 0 0 0 0 0 0 0 0 1 0 3 5 29 25 47 72 62 100 89 74 84 19 5 16 5 4 4 5 46 100 99 68 6 4 2 0 0 5 5 5 6 5
0 0 5 4 5 2 0 0 0 0 0 0 0 0 0 0 5 5 8 92 100 97 98 50 73 84 80 72 78 27 5 17 5 5 39 78 16 4 5 5 5 5 5 3 5 18 5 48 95
0 0 0 0 0 0 0 0 0 0 0 0 0 0 0 0 5 20 99 100 96 8 7 8 32 69 61 29 82 76 79 92 5 14 3 5 5 5 5 6 5 5 5 5 5 5 5 11 42
0 0 0 0 0 0 0 0 0 0 0 0 0 0 0 1 5 40 88 51 0 5 5 5 6 26 79 100 100 100 100 10 5 5 5 7 40 89 79 8 5 1 0 0 1 5 6 25 89
0 0 0 0 0 0 0 0 0 0 0 0 0 0 0 5 5 5 4 0 0 2 5 8 94 100 100 100 98 89 6 5 5 16 56 61 31 5 5 0 0 2 0 5 81 11 74 56 100
0 0 0 0 0 0 0 0 0 0 0 0 0 0 1 5 2 0 0 2 5 5 5 62 77 95 100 100 100 30 5 5 5 8 5 5 3 4 1 1 0 0 6 98 78 35 83 100 63
0 0 0 0 0 1 0 0 0 0 0 0 5 5 0 0 0 2 5 5 5 5 45 86 89 100 100 100 21 5 5 5 5 5 3 5 5 1 5 0 0 5 98 100 42 100 99 100 100

GFSSGP_prec_cloud_042.txt.gz
Cloud_Cover
0 0 0 0 0 0 23 78 100 24 100 100 100 100 100 100 100 100 100 100 100 100 100 100 100 100 100 100 100 100 100 100 100 9 4 5 4 3 16 5 2 3 5 0 0 25 43 24 8
2 0 0 0 0 0 10 9 100 10 40 99 100 100 100 100 88 98 100 100 100 100 100 100 100 100 100 100 100 89 100 30 54 10 5 1 5 4 29 4 5 0 2 2 52 70 3 5 6
5 5 3 5 0 6 77 0 5 28 68 100 100 100 100 100 100 89 81 100 100 100 100 100 99 44 89 100 100 99 53 18 5 3 0 0 26 22 7 5 3 5 8 84 100 7 80 5 6
5 5 0 0 0 0 0 0 0 5 61 100 100 100 100 100 100 100 100 100 100 100 100 100 100 100 100 100 93 10 6 5 5 0 41 20 96 89 5 4 5 5 83 100 99 5 57 100 5
1 5 3 0 8 4 6 49 10 15 100 100 100 100 100 100 100 100 100 100 100 100 100 100 100 98 32 30 76 5 5 6 81 52 8 100 94 30 78 80 42 100 100 100 5 30 20 5 5
0 3 5 44 100 87 52 13 99 74 100 100 100 100 100 100 100 100 100 100 100 100 100 100 94 78 66 28 60 100 100 90 76 78 100 9 96 98 88 78 100 100 100 89 99 42 8 5 14
5 5 66 39 93 100 84 87 88 95 93 100 100 100 100 100 100 100 100 100 100 100 100 100 100 100 100 100 100 100 100 100 96 97 100 100 100 100 100 100 100 100 93 90 5 24 36 5 4
99 34 84 81 98 100 100 100 100 100 100 100 100 100 100 100 100 100 100 100 100 100 100 100 100 100 100 100 100 100 100 100 100 100 100 100 100 100 100 100 97 17 16 43 5 5 39 5 1
15 86 100 100 63 55 49 58 100 100 97 100 100 100 100 100 100 100 100 100 100 100 100 100 100 100 100 100 100 100 100 100 100 100 100 100 100 100 100 100 93 79 5 5 4 3 5 0 0
100 93 100 100 96 100 99 100 100 100 99 100 100 100 100 100 100 100 100 100 100 100 100 100 100 100 100 100 100 100 100 100 100 100 100 100 100 100 100 87 76 19 5 4 0 4 0 0 1
100 100 96 100 100 100 100 100 100 87 98 100 100 100 100 100 100 100 100 100 100 100 100 100 100 100 100 100 100 100 100 100 100 100 100 100 100 84 16 5 5 5 0 1 0 0 3 0 0
100 99 100 100 100 100 100 100 100 100 100 100 100 100 89 100 100 100 100 100 100 100 100 100 100 100 100 100 100 100 100 100 100 100 100 100 100 94 98 94 8 13 3 0 0 0 4 0 0
100 96 100 100 100 100 100 90 99 100 100 100 100 61 99 100 100 100 100 100 100 100 100 100 100 100 100 100 100 100 100 100 100 100 100 100 99 100 98 100 100 100 11 74 41 22 32 16 4
100 100 100 100 100 100 100 100 100 100 100 100 100 100 100 100 100 100 100 100 100 100 100 100 89 100 100 100 100 100 98 100 100 100 100 100 100 100 48 66 100 76 78 70 96 100 100 13 5
100 100 100 100 100 100 100 100 100 100 100 100 100 100 100 100 100 98 100 100 100 100 100 90 100 100 100 100 81 99 100 100 100 100 100 100 93 63 88 92 99 98 99 100 100 100 11 1 5
100 100 100 100 100 100 100 100 100 100 100 100 100 100 100 100 100 100 73 90 93 97 100 99 99 100 100 100 100 100 100 100 100 100 100 100 100 100 100 100 100 100 100 100 99 84 100 14 5
100 100 100 100 100 98 100 100 100 100 100 100 100 100 99 23 23 44 92 93 95 90 74 89 100 100 100 100 100 100 100 100 100 100 100 100 100 100 100 100 100 100 100 100 100 95 100 2 4
100 100 100 100 100 100 100 100 100 100 100 100 100 100 100 100 100 100 100 100 85 100 100 100 100 100 100 100 100 100 100 100 100 100 100 100 100 100 100 100 100 100 100 100 100 100 59 31 70
100 100 100 100 100 100 100 100 100 100 100 100 100 100 100 100 100 100 99 53 55 86 100 100 100 94 100 100 85 100 100 100 100 100 100 100 100 100 100 100 100 100 2 2 5 2 5 5 5
100 100 100 100 100 100 100 100 100 100 100 100 96 89 52 71 66 92 82 48 65 94 100 68 66 35 5 5 5 5 60 96 97 91 34 7 92 91 88 19 63 11 4 22 99 100 100 92 11
100 100 100 100 100 100 77 53 23 25 10 70 90 96 100 100 100 100 86 75 83 73 51 12 27 17 5 16 52 20 84 100 100 100 100 100 100 100 95 11 5 5 74 100 100 100 84 4 3
100 100 100 89 77 52 30 55 5 5 5 26 63 88 94 74 26 7 1 5 3 5 5 5 5 5 24 75 54 57 45 64 6 5 5 5 2 0 0 5 5 12 96 100 53 6 5 5 5
76 75 72 66 52 5 5 5 5 31 7 26 8 5 5 4 4 2 5 5 15 5 5 77 89 93 95 56 8 60 38 5 5 5 5 5 1 3 5 5 5 41 6 5 5 12 6 20 90
13 12 68 46 18 4 4 0 4 3 0 0 0 0 0 0 0 2 5 17 5 5 11 89 11 84 55 5 5 9 34 40 5 5 65 5 3 4 5 5 5 5 5 5 5 5 5 38 42
24 5 1 0 0 2 0 5 2 0 0 0 0 0 0 0 0 2 5 5 5 5 5 5 5 5 33 26 7 59 31 9 36 83 55 5 3 5 5 4 5 5 5 5 5 53 89 91 97
3 4 5 5 3 3 0 0 0 0 0 0 0 0 0 0 2 5 5 5 5 15 50 5 5 5 5 5 51 23 91 61 92 43 5 5 5 5 5 5 5 5 5 5 6 16 67 99 84
5 4 4 1 0 0 0 0 0 0 0 0 0 0 0 4 0 5 5 12 63 12 3 4 5 5 5 23 83 95 94 87 96 72 8 76 48 5 5 5 5 5 5 5 5 8 81 96 26
0 0 0 0 0 0 0 0 0 0 0 0 0 0 0 0 0 5 5 71 5 0 3 5 5 8 33 68 62 97 100 94 68 5 17 13 5 5 5 5 11 23 5 5 12 36 64 92 94
0 0 0 0 0 0 0 0 0 0 0 0 0 1 1 4 5 5 5 5 5 1 5 5 22 36 93 99 100 100 99 98 67 54 9 5 5 5 9 5 5 5 5 66 25 77 92 45 94
0 0 0 0 0 0 0 0 0 0 0 0 0 5 5 5 5 5 5 5 5 5 5 5 5 41 100 100 100 100 86 6 5 5 15 5 8 35 5 15 9 5 69 54 98 98 32 91 100

GFSSGP_prec_cloud_045.txt.gz
Cloud_Cover
0 0 1 0 0 0 0 10 62 65 98 92 24 88 49 100 100 100 100 100 100 100 100 100 100 100 100 100 100 100 100 100 100 100 86 46 87 28 5 5 0 0 0 0 2 1 0 1 5
0 5 5 5 3 0 6 57 40 24 100 99 29 47 62 98 100 100 100 100 100 98 100 100 100 100 94 88 100 100 100 100 100 100 98 12 100 13 5 4 2 1 5 40 37 5 5 5 22
0 5 14 5 5 3 85 86 5 0 0 0 99 60 41 94 90 99 100 100 99 99 100 100 90 68 63 70 100 100 100 100 89 100 96 57 3 5 4 4 0 5 38 67 5 5 29 92 100
0 5 5 5 12 83 63 90 83 4 0 0 100 26 30 92 97 100 100 100 100 100 100 100 97 100 99 85 100 100 100 23 100 53 5 5 5 5 0 5 5 5 28 61 93 65 100 100 100
0 4 27 5 5 100 50 1 5 35 67 6 10 78 100 100 100 100 100 100 100 100 100 100 100 57 45 70 98 100 70 32 6 43 7 5 5 13 5 5 25 50 51 100 33 65 100 100 100
0 1 43 99 100 30 35 36 3 100 22 3 9 9 100 100 100 100 100 100 100 100 100 100 100 94 94 100 84 99 96 94 100 100 93 22 55 49 29 97 79 100 100 5 31 57 100 34 5
0 7 14 99 100 26 0 100 81 86 100 72 73 96 100 100 73 100 100 100 100 100 100 100 100 100 100 100 100 100 100 100 100 100 98 58 74 82 100 100 100 99 100 100 69 95 68 5 22
1 70 100 83 91 22 46 10 64 34 92 99 97 79 100 78 98 100 100 100 100 100 100 100 100 100 100 100 100 100 100 100 100 100 100 100 100 100 100 100 100 100 100 100 99 53 94 6 5
5 14 86 66 56 89 100 90 16 61 40 97 96 72 100 100 100 100 100 100 100 100 100 100 100 100 100 100 100 100 100 100 100 100 100 100 100 100 100 100 100 100 100 100 99 5 11 5 5
12 100 100 56 100 100 100 92 96 43 100 100 89 91 100 100 100 100 100 100 100 100 100 100 100 100 100 100 100 100 100 100 100 100 100 100 100 100 100 100 100 88 100 53 5 5 5 2 8
62 100 100 86 100 100 100 48 79 88 100 100 78 100 98 56 100 100 100 99 100 100 100 100 100 100 100 100 100 100 100 100 100 100 100 100 100 100 100 100 100 100 61 19 7 31 6 5 0
100 100 90 100 98 100 87 100 99 100 96 33 100 100 97 40 100 99 100 100 100 100 100 100 100 100 100 100 100 100 100 100 100 100 100 100 100 100 100 82 100 79 73 45 37 45 5 5 89
100 100 100 97 100 100 92 100 96 100 99 91 100 100 59 36 55 9 100 100 100 100 100 100 100 100 100 100 100 100 100 100 100 100 100 100 100 100 100 100 100 92 87 77 60 24 5 5 51
100 100 100 100 100 100 98 100 100 99 100 100 100 100 89 100 20 8 72 100 100 100 100 100 100 100 100 100 100 100 100 100 100 100 100 100 100 100 100 100 100 100 85 73 34 97 100 100 99
100 100 100 100 100 100 97 100 100 100 100 100 100 100 93 99 100 99 100 100 91 98 100 100 100 100 100 100 82 100 100 100 99 100 100 99 100 100 100 100 100 100 100 100 96 100 100 100 100
100 100 100 100 100 99 100 100 100 100 100 100 100 100 100 100 100 100 100 100 100 100 100 98 99 100 100 100 100 100 100 100 100 100 100 100 100 100 100 100 100 100 100 100 100 100 92 80 81
100 100 100 100 99 100 100 100 100 100 100 98 78 78 76 98 100 94 78 94 99 94 100 95 84 100 100 100 100 100 100 100 100 100 100 100 100 100 100 100 100 100 100 98 100 100 94 40 100
100 100 100 100 100 99 100 100 100 100 100 86 100 100 100 100 90 98 100 100 100 100 100 100 100 100 100 100 96 100 100 100 100 100 100 100 100 100 100 99 100 100 100 100 100 4 18 27 6
100 100 100 100 100 100 100 100 100 100 100 100 100 100 100 100 100 100 100 100 100 100 100 100 92 82 28 7 52 99 100 100 100 98 100 76 76 96 95 100 100 100 82 100 90 4 6 53 49
100 100 100 100 100 100 100 100 100 100 100 100 100 100 100 100 100 100 100 99 75 59 99 100 89 100 92 97 14 6 30 65 84 72 53 17 14 7 5 90 10 4 5 5 28 100 100 100 100
100 100 100 100 100 100 100 100 100 100 100 100 100 100 100 86 76 49 9 37 91 100 91 100 99 7 17 5 5 10 54 56 59 59 52 41 17 5 5 1 2 5 5 11 29 89 87 44 37
100 100 100 100 100 100 100 100 100 49 100 97 100 100 98 98 29 42 78 91 82 72 55 42 5 5 5 5 5 33 12 39 65 13 5 5 5 5 5 0 0 5 5 5 5 5 5 8 75
100 100 100 100 100 100 87 74 100 100 100 100 61 16 28 42 30 19 23 52 29 4 5 5 5 5 5 5 6 16 17 31 13 40 5 7 10 12 5 5 5 5 5 5 5 5 18 89 98
100 100 94 92 82 100 97 100 100 98 81 28 14 5 5 6 14 1 1 2 0 0 5 5 5 5 3 4 5 5 6 7 11 36 78 84 14 5 7 5 5 24 5 5 5 5 9 97 78
89 51 92 94 99 16 37 4 5 31 4 5 4 1 0 0 0 0 0 0 0 5 5 5 5 15 6 16 8 5 5 5 5 32 78 98 77 50 33 5 5 5 5 5 5 3 7 76 73
14 74 100 52 60 48 13 3 50 5 5 0 0 0 4 2 0 0 0 0 3 5 5 5 28 97 88 56 6 5 5 38 7 64 97 92 88 91 12 5 5 5 5 5 5 5 90 99 82
31 2 1 0 3 7 32 22 0 0 0 0 0 0 5 0 0 0 0 0 0 4 6 16 37 100 92 5 5 5 15 60 100 94 58 97 63 5 5 5 5 5 5 5 5 7 100 55 77
0 4 5 5 4 2 24 0 29 0 0 0 2 0 5 0 0 0 0 0 7 20 73 52 38 95 49 5 5 23 92 97 100 98 80 10 27 28 5 5 5 5 5 5 14 53 95 6 58
8 5 5 2 1 0 0 2 0 0 0 0 0 4 0 0 0 0 12 25 34 61 54 42 30 12 5 5 48 98 100 100 74 14 5 6 5 60 87 73 57 5 5 7 15 5 47 64 94
1 0 0 0 0 0 0 0 0 0 0 0 3 0 4 5 3 20 44 51 37 8 18 27 28 78 10 59 83 100 94 51 5 5 5 5 56 84 69 64 5 5 5 7 6 73 88 89 90

GFSSGP_prec_cloud_048.txt.gz
Cloud_Cover
0 0 0 5 2 0 0 0 0 27 34 61 97 92 5 74 100 85 96 100 100 100 100 100 100 100 100 98 96 87 9 8 83 100 98 73 65 100 100 100 100 91 9 3 0 0 0 4 0
0 3 2 5 3 5 6 17 38 9 100 36 97 29 36 47 93 75 88 100 92 100 100 100 100 100 100 90 100 100 98 5 5 30 14 20 92 74 100 78 55 5 5 7 5 5 5 0 2
0 4 5 5 16 8 22 66 95 84 7 0 2 97 96 99 93 96 88 82 69 57 100 100 100 100 77 100 100 100 99 16 5 24 79 58 27 73 100 18 2 5 5 5 5 5 5 22 17
0 2 5 3 5 99 100 77 4 0 2 0 0 4 100 84 69 43 100 100 96 88 100 100 100 100 100 100 100 75 93 100 94 100 63 73 5 5 100 48 5 5 5 5 5 78 100 100 83
4 0 2 5 18 100 100 43 71 16 18 0 0 0 2 5 10 88 96 85 100 100 100 100 100 100 100 100 100 100 100 100 100 100 100 80 84 100 100 62 36 41 47 100 91 91 100 100 95
2 0 2 8 69 100 74 5 2 79 69 36 4 2 0 0 68 100 99 100 100 100 100 100 100 100 100 100 100 100 100 100 100 100 100 100 100 97 96 100 100 100 100 100 100 100 100 100 100
0 0 1 57 94 100 37 21 92 100 100 69 100 5 0 2 100 100 100 100 100 100 100 100 100 100 100 100 100 100 100 100 100 100 100 100 100 100 100 100 100 100 100 100 100 100 100 100 95
5 0 5 4 86 99 64 15 72 100 100 100 100 82 6 15 5 49 100 100 100 100 100 100 100 100 100 100 100 100 100 100 100 100 100 100 100 100 100 100 100 100 100 100 100 100 100 100 62
54 0 5 67 99 81 69 100 100 100 100 100 100 84 100 1 12 57 100 100 100 100 100 100 100 100 100 100 100 100 100 100 100 100 100 100 100 100 100 100 100 100 100 100 100 100 95 21 11
100 16 79 83 99 61 100 92 100 100 100 100 100 100 21 48 0 58 100 100 100 100 100 100 100 100 100 100 100 100 100 100 100 100 100 100 100 100 100 100 100 100 100 100 52 72 10 5 2
100 51 100 100 99 100 100 100 100 100 89 94 99 100 92 52 71 100 100 100 100 100 100 100 100 100 100 100 100 100 100 100 100 100 100 100 100 100 100 100 100 100 74 30 72 89 100 5 5
98 68 100 100 100 100 100 100 100 100 87 77 100 71 94 5 28 100 100 100 100 100 100 100 100 100 100 100 100 100 100 100 100 100 100 100 100 100 100 100 100 100 100 97 23 17 4 5 4
100 94 100 100 100 100 100 100 100 100 26 100 100 100 74 16 72 100 100 100 100 100 100 100 100 100 100 100 100 100 100 100 100 100 100 100 100 100 100 100 100 100 98 89 75 99 13 55 37
100 100 100 96 97 100 100 100 100 100 100 94 16 5 1 100 97 100 100 100 100 100 100 100 100 100 100 100 100 100 100 100 100 100 100 100 100 100 99 100 82 69 100 86 82 89 100 98 100
100 100 100 93 100 100 100 100 100 100 100 100 100 100 64 46 100 100 84 26 46 100 100 100 100 98 100 100 100 100 100 100 100 100 100 100 100 100 90 100 100 72 100 100 100 100 100 100 100
100 100 100 100 100 100 100 100 21 100 99 100 100 100 100 99 100 100 100 100 99 78 97 59 100 100 100 100 99 100 100 100 100 100 100 100 96 46 88 99 45 36 97 100 100 100 98 100 100
100 100 100 100 100 99 100 23 59 80 99 42 100 100 100 100 100 100 100 100 97 64 98 100 100 100 100 100 98 90 96 100 100 100 100 97 95 100 100 100 81 100 100 94 100 100 95 8 12
100 100 100 100 100 100 100 96 88 100 100 100 100 100 99 88 98 99 100 100 100 100 100 98 86 96 97 87 78 80 73 27 76 94 38 100 100 65 77 91 100 12 0 0 48 79 1 0 0
100 100 80 74 100 100 95 100 100 100 100 100 100 100 100 100 100 100 100 100 100 100 100 100 100 100 100 71 87 23 5 5 22 17 5 5 4 31 74 15 26 3 1 0 2 5 5 5 5
100 100 100 100 86 100 100 100 100 100 100 100 100 100 100 100 100 100 100 100 78 36 44 100 100 95 36 24 6 5 5 4 0 3 5 4 6 5 5 5 5 5 4 5 3 0 2 3 5
100 92 100 100 100 100 100 100 100 100 100 100 100 100 100 100 100 100 100 100 100 100 100 100 73 10 51 90 5 5 0 0 5 5 5 7 59 5 5 5 5 5 5 5 3 0 0 0 5
100 100 97 100 90 100 100 100 100 100 100 90 100 100 100 100 100 100 100 96 70 52 100 83 27 4 33 5 3 0 5 5 5 6 63 3 5 5 5 5 5 5 36 5 0 0 0 0 2
100 100 100 100 100 100 100 100 83 99 100 100 99 57 87 66 65 66 85 90 44 86 1 1 16 0 5 5 5 5 34 96 100 90 21 18 7 5 6 5 5 5 5 5 4 5 5 5 5
100 92 100 100 100 100 100 100 94 90 100 100 99 92 17 19 78 98 100 100 24 1 42 87 0 1 5 5 5 5 37 17 34 5 5 5 39 89 38 5 5 5 5 2 5 5 5 5 5
100 100 100 100 100 100 100 100 100 90 98 82 61 35 5 33 5 2 5 51 99 2 0 0 0 6 5 5 1 0 7 5 5 6 52 42 96 98 88 15 0 0 4 5 5 5 5 4 5
100 100 100 100 80 85 100 97 86 41 5 5 5 26 14 2 0 0 3 2 0 0 0 0 3 5 4 27 9 3 5 5 8 13 84 67 99 100 46 2 2 4 5 5 5 5 5 3 80
100 90 94 64 22 77 31 5 4 2 22 46 7 4 0 0 0 0 0 0 0 0 0 5 5 6 5 100 100 33 20 22 73 87 100 100 75 8 5 5 5 5 5 5 5 5 5 27 24
86 26 5 18 4 4 20 47 100 16 4 0 0 0 0 0 0 0 0 0 0 0 0 3 8 100 100 100 59 20 25 89 72 97 100 100 94 5 5 6 21 17 5 5 5 5 44 60 5
14 5 0 0 46 44 5 89 9 0 0 0 0 0 0 0 0 0 0 23 2 96 74 21 10 100 100 100 7 36 75 90 100 100 100 22 50 5 5 71 44 5 44 46 5 31 12 5 5
0 26 5 7 5 4 0 0 2 0 0 0 0 0 0 0 0 0 0 99 100 100 100 100 85 100 100 99 69 95 96 100 100 98 99 100 57 22 90 61 5 65 20 34 72 37 5 5 9

GFSSGP_prec_cloud_051.txt.gz
Cloud_Cover
5 5 8 56 8 5 0 1 0 0 0 0 28 100 100 76 95 70 85 69 97 98 100 100 100 100 100 100 100 96 83 33 100 100 98 25 5 5 5 8 11 91 36 5 5 1 0 3 2
18 75 3 4 80 48 56 61 5 0 0 16 0 9 100 100 98 43 72 100 69 58 100 100 100 100 96 100 100 99 100 95 83 100 100 90 82 85 100 100 46 30 5 5 41 7 4 0 0
2 1 2 3 100 80 100 100 52 2 8 23 89 97 99 95 77 100 82 82 99 84 65 100 99 88 100 100 100 100 100 100 99 100 100 100 100 100 99 98 92 57 81 97 80 100 5 2 4
5 0 0 8 100 100 100 100 100 69 2 0 36 84 100 100 92 66 100 100 100 94 56 86 100 100 100 100 100 100 100 100 100 100 100 100 100 100 100 100 96 74 100 100 77 96 86 5 5
2 0 0 5 100 100 100 100 29 2 5 3 0 91 100 100 93 42 97 100 100 100 100 100 100 100 100 100 100 100 100 100 100 100 100 100 100 100 100 82 100 100 100 100 91 5 5 5 5
5 5 3 85 92 100 97 69 85 46 90 15 1 5 27 27 37 100 98 100 100 100 100 100 100 100 100 100 100 100 100 100 100 100 100 100 99 99 100 100 100 100 100 72 65 100 50 5 100
54 5 0 5 91 83 32 87 100 100 70 28 9 80 46 10 7 60 98 100 100 100 100 100 100 100 100 100 100 100 100 100 100 100 100 100 98 100 100 100 100 100 100 100 86 99 100 100 100
5 1 2 6 96 93 100 97 47 100 97 100 99 100 100 65 16 33 97 100 100 100 100 100 100 100 100 100 100 100 100 100 100 100 100 100 100 100 100 100 100 100 100 100 100 100 94 100 100
51 5 5 10 54 100 57 94 99 100 100 100 100 100 100 100 80 34 97 100 100 100 100 100 100 100 100 100 100 100 100 100 100 100 100 100 100 100 100 100 100 100 100 100 67 100 100 100 100
100 5 0 9 48 84 47 96 41 100 100 100 86 75 100 100 98 95 92 87 100 100 100 100 100 100 100 100 100 100 100 100 100 100 100 100 100 100 100 100 100 100 95 75 100 100 95 72 44
98 13 6 15 95 4 0 99 100 100 100 100 100 92 100 100 100 100 100 100 100 100 100 100 100 100 100 100 100 100 100 100 100 100 100 100 100 100 100 100 100 100 100 100 100 100 100 98 84
87 95 100 54 30 47 58 100 100 100 48 87 100 100 100 100 100 100 100 100 100 100 100 100 100 100 100 100 100 100 100 100 100 100 100 100 100 100 100 100 100 100 100 100 100 100 100 56 3
65 96 100 100 95 100 100 100 100 100 94 16 44 100 100 100 100 100 100 100 100 100 100 100 100 100 100 100 100 100 100 100 100 100 100 100 100 96 100 100 100 100 100 100 100 100 70 80 64
85 59 85 94 100 100 100 100 100 100 100 88 42 99 100 100 98 100 100 100 100 100 100 100 100 100 100 100 100 100 100 100 100 100 100 100 100 98 100 100 100 85 93 100 79 97 97 33 80
25 100 100 100 84 100 100 100 92 71 100 82 100 100 100 90 60 94 100 100 100 100 100 100 100 100 100 100 100 100 100 100 100 100 100 100 100 100 100 100 69 95 100 80 89 95 94 94 98
84 100 100 100 80 100 100 100 100 100 100 100 94 69 64 99 100 100 100 100 100 100 100 100 100 100 100 100 100 100 100 100 100 100 98 90 100 100 100 99 68 90 98 100 78 15 1 5 3
100 100 100 100 99 100 100 100 100 100 100 92 53 84 48 94 100 100 100 100 100 100 100 100 100 100 100 100 96 100 100 100 100 91 100 100 93 78 6 5 5 5 40 57 2 0 4 0 0
100 100 100 100 100 100 100 100 95 100 100 100 100 99 100 100 100 100 100 100 100 100 100 100 100 100 100 90 100 66 89 100 92 86 99 73 38 10 5 5 5 4 0 0 0 0 0 0 0
100 100 100 100 99 97 99 100 100 100 100 100 100 100 100 100 100 100 100 100 100 100 100 100 75 100 100 100 100 100 100 100 100 100 29 5 5 5 2 0 0 0 0 0 2 0 0 5 0
100 100 100 100 100 100 100 100 99 100 100 100 100 100 100 100 97 79 91 100 98 76 49 100 100 100 100 99 66 57 98 72 6 52 16 3 4 5 5 5 3 5 5 5 5 5 4 0 0
63 74 93 94 100 100 100 100 100 100 100 100 100 100 100 95 70 83 47 66 100 100 100 100 100 100 100 100 100 59 55 42 17 1 0 5 5 5 5 3 1 0 2 5 5 1 0 0 0
96 100 100 100 98 100 100 96 100 45 97 96 91 100 100 96 72 32 100 100 95 80 47 59 93 20 16 7 15 16 2 0 0 0 2 0 0 0 0 0 0 4 5 5 0 0 0 0 0
77 72 93 100 100 100 100 100 99 100 98 100 96 78 100 100 100 100 99 98 74 76 43 11 5 5 5 1 47 2 1 0 0 0 3 12 33 76 6 5 5 5 1 4 5 5 5 0 0
72 50 55 100 100 100 94 30 100 86 100 100 100 47 56 77 76 18 40 30 84 91 20 1 0 0 4 66 5 5 0 0 14 86 97 100 71 51 5 5 5 5 0 0 3 4 4 5 5
100 71 70 100 100 98 76 100 88 100 100 100 100 19 61 49 20 62 5 10 4 0 0 0 1 0 10 5 5 5 1 1 9 13 16 92 99 38 60 76 7 5 5 5 5 5 6 47 5
100 99 96 100 100 76 100 98 100 100 97 100 100 50 4 0 0 3 2 0 0 0 0 31 100 0 4 3 5 5 5 20 56 91 100 72 71 100 100 100 26 5 5 5 5 6 43 55 5
100 96 100 100 100 100 94 43 35 91 61 49 5 5 1 5 4 0 0 0 0 0 0 18 39 0 4 5 7 86 46 18 92 86 89 100 64 94 100 100 100 100 77 38 61 7 25 5 9
100 78 98 64 65 100 30 6 35 8 89 4 0 2 3 0 0 0 0 0 0 0 0 0 0 19 42 73 91 100 100 90 98 96 100 100 100 100 100 100 99 91 93 87 62 18 67 99 65
99 61 95 25 6 9 3 14 5 97 53 3 1 0 0 0 0 0 0 0 0 0 0 0 1 14 99 100 100 100 100 100 100 76 100 100 100 100 100 93 98 93 85 99 89 96 96 68 19
5 3 8 5 5 5 0 1 14 66 11 0 0 0 0 0 0 0 0 0 0 1 73 49 99 100 100 100 100 100 100 100 100 100 100 100 100 100 90 99 91 61 100 100 100 81 53 23 87

GFSSGP_prec_cloud_054.txt.gz
Cloud_Cover
4 6 92 100 91 100 100 84 1 58 9 0 37 97 68 92 25 10 27 5 87 100 77 95 70 90 100 100 100 100 97 100 100 99 100 100 81 76 45 33 58 56 50 25 5 6 5 2 5
65 30 21 100 100 100 100 100 100 30 0 0 5 5 98 100 61 98 36 40 98 100 95 73 54 74 100 100 100 100 100 100 100 100 100 100 100 100 100 99 100 100 88 77 72 10 22 46 4
0 78 80 100 100 100 100 100 100 95 10 5 56 55 15 94 100 99 76 94 100 100 100 99 52 86 100 100 100 100 100 100 100 100 100 100 100 100 100 100 100 100 100 90 38 6 5 5 69
9 65 100 100 100 100 100 100 100 98 6 5 4 1 24 99 100 80 100 100 92 100 97 100 80 100 100 100 100 100 100 100 100 100 100 100 100 100 100 100 100 100 100 100 100 9 5 39 100
100 25 22 100 100 11 38 100 98 24 94 6 28 4 49 100 100 100 100 100 86 100 100 100 100 100 100 100 100 100 100 100 100 100 100 100 100 100 100 100 100 100 100 100 100 6 16 100 100
100 100 100 100 95 5 5 10 45 81 99 92 64 46 31 100 100 100 100 100 100 100 100 100 100 100 100 100 100 100 100 100 100 100 100 100 100 100 100 100 100 100 100 87 41 95 100 75 100
79 100 100 100 78 8 12 5 91 81 100 100 100 72 98 100 100 100 100 100 100 100 100 100 100 100 100 100 100 100 100 100 100 100 100 100 100 100 100 100 100 100 100 87 100 100 100 37 82
86 100 100 100 5 3 5 29 5 100 100 100 100 100 92 100 100 100 100 100 100 100 100 100 100 100 100 100 100 100 100 100 100 100 100 100 100 100 100 100 100 100 87 100 100 100 100 100 100
100 100 100 77 5 5 0 2 2 93 100 100 100 74 74 100 91 100 96 97 100 100 100 100 100 100 100 100 100 100 100 100 100 100 95 100 100 97 84 100 100 100 100 100 100 100 100 100 100
100 100 66 4 2 2 0 0 0 49 100 100 100 100 100 82 96 100 97 100 100 100 100 100 100 100 100 100 100 100 100 100 100 100 100 100 100 100 100 100 100 100 100 100 100 100 100 100 92
96 53 7 4 1 0 0 0 0 100 76 74 100 100 100 100 100 100 100 100 100 100 100 100 100 100 100 100 100 100 100 100 100 100 100 100 100 100 100 100 100 100 100 100 100 100 100 100 100
9 81 4 5 5 0 1 0 87 100 20 100 100 100 100 100 100 100 100 100 100 100 100 100 100 100 100 100 100 100 100 100 100 100 100 100 98 100 100 100 100 100 100 100 100 100 100 100 100
22 77 9 59 97 3 5 23 100 100 100 72 100 100 98 100 100 100 100 100 100 100 100 100 100 87 100 100 100 100 100 100 100 100 100 100 100 100 100 100 100 100 100 100 100 100 100 100 100
7 96 97 100 5 6 90 100 100 100 83 99 100 100 100 100 100 100 100 100 100 100 100 100 100 100 100 100 100 100 100 100 100 100 100 100 100 100 100 100 100 100 100 100 100 100 55 72 66
92 19 56 67 87 100 100 100 100 100 85 100 100 100 100 100 100 100 100 100 100 100 100 100 100 100 100 100 100 100 100 100 100 100 100 98 100 100 100 100 100 100 100 100 100 22 7 6 5
25 24 32 97 100 100 100 100 100 100 100 100 100 100 100 100 100 100 100 100 100 100 100 100 100 100 100 100 100 100 100 100 100 99 100 100 100 100 100 100 96 96 92 53 8 5 5 5 4
99 97 100 100 100 100 100 100 100 100 100 100 100 100 100 100 100 98 98 100 100 100 100 100 100 100 100 100 100 100 100 100 100 100 100 100 100 100 95 89 46 22 34 17 23 7 4 0 0
100 98 100 100 100 100 100 100 100 100 97 100 100 100 100 100 100 59 99 100 100 100 100 100 100 100 100 100 100 100 100 100 100 100 100 100 86 98 94 40 87 76 11 22 9 0 0 0 0
100 94 100 74 50 100 100 100 100 59 100 100 100 100 100 100 100 100 100 98 15 100 100 100 100 100 100 100 100 100 100 100 100 100 100 100 100 100 71 56 14 5 0 0 0 0 0 4 0
77 100 69 86 91 100 100 100 100 100 100 100 100 100 100 100 100 100 100 100 100 100 100 100 100 100 100 100 100 100 99 90 90 82 100 50 84 47 37 4 0 0 0 1 5 5 5 0 0
100 100 100 77 95 96 100 100 100 100 100 100 100 100 100 100 100 100 100 100 100 100 77 100 100 100 100 100 100 100 100 100 83 68 52 16 23 4 5 0 0 0 4 5 5 4 0 0 0
100 99 100 56 99 87 100 100 99 100 100 100 100 97 100 100 19 38 100 89 29 8 9 59 71 70 59 26 10 6 13 7 5 5 1 0 4 5 0 0 5 4 0 5 5 5 3 0 3
34 69 100 99 100 100 76 70 40 100 100 100 100 100 69 47 52 100 100 100 100 96 51 98 97 59 52 6 7 10 8 5 5 0 0 0 0 2 5 3 5 5 7 78 67 99 4 6 5
32 86 37 100 100 100 91 14 63 88 100 99 89 83 67 98 99 26 16 34 81 63 6 12 70 41 50 5 2 3 37 5 5 1 0 3 5 5 25 74 67 9 20 64 89 94 99 6 5
61 32 69 20 89 89 25 22 98 33 74 56 41 97 72 100 100 100 56 11 50 31 4 5 29 21 0 17 1 5 5 5 5 5 5 27 19 10 100 97 6 56 63 66 99 76 16 38 5
88 54 11 24 39 7 5 15 98 90 100 100 63 5 55 97 100 100 34 4 5 8 26 10 0 0 0 2 5 2 5 14 39 81 100 100 100 100 100 100 100 100 100 59 5 5 5 12 5
100 24 46 14 5 5 88 14 28 99 100 81 100 5 5 5 13 5 3 5 16 1 5 5 0 0 0 5 9 8 88 84 74 100 100 100 100 100 100 100 100 100 100 93 81 34 26 71 23
26 59 84 80 45 23 27 92 34 5 5 16 34 3 0 0 0 3 1 2 0 0 0 0 0 0 1 5 35 91 100 99 100 100 92 100 100 100 100 100 100 100 70 100 77 94 75 55 68
85 9 99 94 56 5 5 6 5 5 5 6 2 2 5 5 0 0 0 0 0 0 0 0 0 0 14 60 100 100 100 98 95 100 100 100 100 100 100 100 100 52 45 94 92 89 56 37 48
17 90 7 5 6 4 0 0 0 0 16 5 5 5 1 0 0 0 0 0 0 0 0 0 0 8 46 54 6 72 64 100 93 96 100 100 100 100 100 92 42 18 89 99 92 90 47 65 66

GFSSGP_prec_cloud_057.txt.gz
Cloud_Cover
0 0 0 3 44 88 57 94 100 9 0 99 83 100 94 36 37 7 28 8 100 85 100 100 63 68 91 100 97 100 100 86 100 73 5 25 97 5 45 32 65 21 11 5 5 5 5 5 4
0 0 0 54 100 100 100 100 100 100 33 5 90 100 100 73 48 98 24 93 100 73 99 76 34 83 100 100 100 100 100 100 100 100 60 94 100 100 100 72 65 58 35 15 45 5 18 57 14
0 0 48 100 100 100 100 100 100 100 90 13 100 87 73 90 100 83 53 33 100 72 83 100 22 7 39 100 100 100 100 100 100 100 100 100 100 100 100 100 100 58 85 92 18 8 10 6 98
2 10 100 100 100 100 100 100 99 76 62 2 12 99 71 100 100 100 95 100 100 100 82 31 6 74 11 100 100 100 100 100 100 100 100 100 100 100 100 100 100 41 86 67 66 53 42 6 100
5 49 32 56 100 100 100 100 100 79 56 6 2 90 93 100 100 100 76 100 100 100 93 97 100 100 100 100 100 100 100 100 100 100 100 100 100 100 100 100 100 100 100 86 92 79 3 6 75
2 99 100 100 90 100 100 100 52 29 5 96 20 36 100 100 100 97 99 100 100 100 90 100 100 100 100 100 100 100 100 100 100 100 100 100 100 100 100 100 100 98 97 44 17 12 56 6 20
5 100 100 100 74 61 57 12 5 19 5 47 100 100 100 100 100 100 100 90 80 100 97 100 100 100 100 100 100 100 100 100 100 100 100 100 100 100 100 100 100 100 100 50 67 44 98 34 94
88 95 100 100 99 97 80 75 5 97 98 100 100 100 100 100 100 100 94 100 100 100 100 100 100 100 100 100 100 100 100 100 100 100 100 100 100 100 100 100 100 100 100 100 100 100 100 100 96
52 46 89 35 100 97 100 83 5 94 100 100 100 100 42 100 100 100 100 100 100 100 100 100 100 100 100 100 100 100 100 100 100 100 100 100 100 93 100 100 100 100 100 100 100 100 96 97 72
83 27 63 87 100 83 81 15 5 25 100 100 100 100 100 100 100 100 100 100 100 100 100 100 100 100 100 100 100 100 100 100 100 100 100 93 100 100 100 94 100 100 100 99 38 77 80 86 61
42 14 86 88 100 64 9 90 5 4 100 100 97 100 100 100 100 100 100 100 100 100 100 100 100 100 100 100 100 100 100 100 100 100 100 100 100 100 100 100 100 100 100 97 98 100 100 100 98
76 100 29 12 64 100 59 21 0 0 0 96 100 100 100 100 100 100 100 100 100 100 100 100 100 100 100 100 100 100 100 100 100 100 100 100 100 100 100 94 98 100 100 86 100 100 100 100 100
7 77 100 17 51 65 96 7 0 0 39 51 100 100 100 100 100 100 100 100 100 100 89 100 100 100 100 100 100 100 100 100 100 100 100 100 100 100 100 100 100 100 100 100 100 85 100 100 100
5 82 100 51 77 100 9 5 4 100 94 100 100 100 100 100 100 98 100 100 100 100 100 100 99 100 100 100 100 100 100 100 100 100 100 100 100 100 100 100 100 72 40 93 99 100 91 39 55
5 44 100 46 86 87 57 48 99 100 100 100 100 100 100 100 100 100 99 100 100 100 100 100 100 100 100 100 100 100 100 100 98 86 100 100 90 100 100 100 100 89 98 100 100 100 96 78 95
26 6 77 68 91 70 88 100 100 91 100 100 100 100 100 100 100 99 100 100 100 100 100 100 100 100 100 100 100 100 100 100 100 100 100 100 100 100 100 58 75 100 95 100 100 100 100 99 62
87 5 69 99 98 100 100 100 100 100 100 100 100 100 100 100 100 100 100 84 100 100 100 61 100 100 100 100 100 100 100 100 100 100 100 100 100 84 100 100 100 100 100 100 92 94 56 26 66
56 100 99 98 85 100 100 100 100 100 100 100 100 100 100 100 100 100 100 100 100 100 100 100 65 84 100 94 100 100 100 98 100 81 90 100 100 100 100 100 100 100 93 70 53 80 64 5 0
100 100 72 100 98 71 100 100 100 100 100 100 100 100 100 100 100 100 100 100 100 100 100 100 100 100 100 100 100 100 100 100 100 100 100 100 100 100 100 100 100 90 33 96 92 12 0 0 0
100 100 100 100 43 52 98 100 100 100 100 100 100 100 100 100 100 100 100 100 100 99 100 100 100 100 100 100 100 100 100 100 100 100 100 82 99 100 91 94 87 42 56 42 0 0 0 2 5
99 74 88 26 94 98 100 100 100 99 100 100 100 100 100 100 100 100 79 100 100 100 100 100 100 100 100 100 100 100 100 99 99 88 81 99 96 56 16 47 26 4 0 0 5 4 5 35 70
22 100 96 82 100 100 100 88 100 100 100 100 100 100 100 100 100 100 94 100 74 32 27 96 100 98 21 30 42 98 23 23 77 90 63 49 61 6 2 0 4 5 5 5 5 2 5 10 80
100 100 97 96 100 86 90 97 100 100 100 100 100 100 99 100 99 99 99 7 57 35 88 96 84 23 56 99 100 100 68 23 70 93 8 4 0 0 5 5 5 7 10 5 3 5 34 31 59
99 95 99 100 80 43 97 100 100 100 85 84 36 93 23 58 46 74 98 100 45 26 10 18 8 5 18 77 100 100 97 7 66 96 5 5 5 5 39 85 5 81 94 94 12 16 49 7 28
100 29 13 45 99 10 15 13 5 96 88 100 78 19 15 78 42 89 75 28 58 66 61 70 43 27 60 100 100 50 5 34 85 70 5 5 47 73 60 89 100 100 100 100 100 96 89 98 74
16 19 77 88 40 35 52 48 5 23 53 80 92 78 73 8 26 18 6 26 32 41 100 76 100 98 100 100 24 3 4 84 94 6 94 94 35 86 100 100 100 95 88 100 98 100 100 82 50
81 73 86 61 59 29 21 96 6 14 76 20 18 87 91 100 98 20 3 5 22 87 100 78 100 100 99 71 5 22 0 5 5 25 99 94 98 88 100 100 100 100 100 99 99 86 96 82 84
81 22 46 57 71 82 43 58 59 5 68 34 5 31 22 42 41 6 5 2 23 60 27 44 23 5 2 0 0 0 5 5 7 40 100 88 90 100 100 80 100 100 100 100 83 72 38 26 81
80 68 15 12 8 6 31 85 20 5 21 17 21 5 5 4 2 4 5 3 0 0 0 0 0 0 0 1 4 14 82 64 5 28 54 41 100 100 100 100 100 99 71 76 97 93 98 80 87
91 12 95 5 5 5 19 68 5 5 5 5 5 5 3 5 2 0 0 0 0 0 0 0 0 5 4 5 39 74 93 94 91 100 94 100 63 100 100 44 100 84 97 96 58 92 59 13 75

GFSSGP_prec_cloud_060.txt.gz
Cloud_Cover
0 0 0 0 4 1 87 67 5 0 54 100 79 98 25 100 86 36 80 72 81 100 100 96 52 12 8 5 5 28 15 100 100 100 100 100 99 95 100 43 70 28 58 14 5 3 5 5 5
0 0 0 0 0 100 100 89 2 0 55 97 100 99 71 99 81 100 75 97 79 81 100 83 59 10 8 5 5 55 100 87 100 100 100 100 100 100 100 82 77 14 81 15 5 0 5 5 4
0 0 0 14 68 100 100 100 50 2 33 98 90 96 96 100 100 100 57 90 87 98 100 55 5 5 26 12 83 76 89 100 100 100 100 69 68 95 78 33 74 81 74 5 18 6 5 5 5
0 0 34 5 100 100 100 100 100 86 4 4 6 73 40 97 100 100 90 99 61 100 100 30 5 16 74 100 100 100 100 62 100 100 100 100 92 100 100 100 88 64 7 5 14 5 97 8 5
0 0 57 96 100 100 100 100 100 100 85 61 17 42 88 100 100 83 35 100 87 87 55 7 96 100 100 100 100 100 100 100 100 100 100 100 100 100 100 100 100 100 100 67 100 7 15 10 5
0 4 85 53 37 79 100 100 98 94 47 64 3 6 78 100 100 100 74 96 100 100 95 100 100 100 100 100 100 100 100 100 100 100 100 100 100 100 100 100 100 59 61 100 100 96 73 86 56
4 32 99 100 100 100 100 100 96 99 100 97 44 100 99 100 100 100 100 100 100 100 100 100 100 100 100 100 100 100 100 100 100 100 100 100 100 100 100 88 86 12 8 39 81 88 10 36 6
5 85 100 100 100 100 99 100 100 98 82 100 78 100 100 100 100 100 100 100 100 100 100 100 100 100 100 100 100 100 100 100 100 100 100 100 100 100 100 100 100 100 100 88 100 38 97 40 51
65 93 99 99 100 100 95 86 100 98 74 100 56 100 100 100 100 100 100 100 100 100 100 100 100 100 100 100 100 100 100 100 100 100 100 100 100 100 100 100 100 100 62 98 94 79 100 97 94
64 53 100 81 100 100 100 100 100 89 32 100 100 100 100 100 100 100 100 100 100 98 100 100 100 100 100 100 100 100 100 100 100 100 100 100 100 100 100 100 100 98 93 100 100 100 100 56 10
74 100 100 100 99 100 100 82 87 96 82 100 100 100 100 100 100 100 100 100 100 100 100 100 100 100 100 100 100 100 100 100 100 100 100 100 100 100 100 100 97 98 100 100 100 100 100 100 14
16 54 100 100 67 100 100 88 100 60 10 98 100 88 100 100 100 100 100 100 97 100 100 100 100 100 100 100 100 100 100 100 100 100 100 100 100 100 100 100 100 100 100 97 95 95 5 10 34
5 5 100 100 68 87 95 45 53 35 6 100 85 99 100 100 100 100 100 100 100 98 100 100 100 100 100 100 100 100 100 100 100 100 100 100 100 100 100 100 100 100 100 100 56 84 100 80 62
5 17 100 100 100 84 8 4 4 35 84 67 100 100 100 100 100 96 100 100 100 100 100 100 100 100 100 100 100 100 100 100 100 100 100 100 100 100 100 100 100 100 100 100 98 100 90 10 9
48 38 100 34 5 9 5 11 22 12 52 99 100 100 100 100 100 100 100 100 100 100 100 100 100 100 100 100 100 100 100 100 100 100 100 100 100 100 100 100 100 100 100 72 100 58 6 68 98
28 5 36 20 24 23 24 95 16 85 100 100 100 100 100 100 100 100 100 100 100 100 100 100 100 100 100 100 100 100 100 100 100 100 100 100 100 100 100 96 100 99 44 41 18 18 56 74 85
73 81 74 68 62 62 88 92 97 100 100 100 100 100 100 100 100 100 100 87 96 96 97 77 100 100 63 100 100 100 100 87 100 100 100 100 100 98 49 67 37 27 54 24 60 91 78 61 23
7 30 99 80 100 100 100 99 100 100 100 100 100 100 100 100 100 96 51 54 8 63 99 96 97 100 100 100 100 100 100 100 100 82 93 100 94 98 100 90 98 94 98 40 62 98 87 99 46
6 99 84 96 54 100 58 100 100 100 100 100 100 100 100 100 100 88 99 100 85 68 100 100 100 100 100 91 79 51 20 100 100 100 100 100 100 100 100 98 100 100 100 100 86 59 75 16 0
95 100 100 89 98 98 100 100 100 100 100 99 100 100 100 100 100 100 100 100 100 100 100 100 99 100 100 98 100 100 100 100 100 100 100 100 100 100 100 96 81 75 100 80 8 8 1 0 1
12 88 96 100 100 100 100 100 100 100 100 100 100 100 100 100 100 100 100 100 100 100 100 100 74 17 38 100 100 100 100 100 100 100 100 100 100 100 45 59 100 100 33 4 5 1 0 0 2
19 68 100 100 100 100 100 100 100 100 100 100 100 100 100 100 100 100 100 100 100 98 99 99 91 68 83 100 99 100 100 100 94 100 87 78 70 33 97 100 63 5 3 4 38 94 71 51 54
7 89 97 94 89 99 99 96 100 100 100 100 100 100 98 98 29 26 66 93 76 67 100 100 100 89 97 95 100 97 100 100 77 91 90 100 98 76 9 3 6 36 9 5 95 100 74 83 96
22 65 13 5 10 49 50 100 100 99 100 94 100 100 100 84 9 5 14 36 44 78 74 100 100 90 100 100 100 100 100 100 42 86 47 99 62 1 1 5 33 5 20 100 100 100 86 100 94
18 98 52 18 29 48 28 87 48 100 100 97 100 100 82 68 46 30 33 54 97 66 50 44 45 100 100 100 100 100 100 100 94 17 14 66 90 5 32 24 85 33 50 100 100 86 100 83 51
5 60 100 70 7 89 100 96 100 66 52 84 89 85 77 100 95 57 53 24 36 98 76 9 95 100 100 100 100 100 100 99 16 39 95 98 87 50 14 76 43 100 100 100 100 100 98 95 23
5 75 82 96 79 76 98 100 100 99 89 100 100 13 68 100 100 100 100 99 58 35 32 46 96 100 100 100 100 100 100 77 96 7 5 60 73 82 66 73 100 100 98 100 100 100 100 96 44
5 16 66 98 53 67 62 100 92 92 99 99 100 91 78 99 73 68 97 45 5 5 24 79 71 99 100 100 100 100 97 22 12 5 100 100 96 96 71 100 85 100 100 100 96 10 93 45 5
5 5 22 99 100 22 5 43 5 5 5 37 18 59 31 66 96 45 51 37 5 5 7 61 79 71 41 22 25 28 0 58 49 76 100 93 100 94 100 100 100 100 100 98 5 5 18 7 30
0 0 2 5 25 37 16 5 5 29 99 38 29 16 20 30 11 5 1 5 31 35 51 59 74 30 4 0 3 5 5 49 85 94 92 100 100 100 100 100 62 98 100 100 82 24 96 92 100

GFSSGP_prec_cloud_063.txt.gz
Cloud_Cover
0 0 0 0 0 0 0 5 1 5 63 100 100 100 59 97 9 48 22 50 100 70 38 2 3 6 53 5 5 5 5 55 5 5 100 5 51 66 99 55 35 22 5 5 6 5 4 0 0
0 0 0 0 0 0 2 82 100 38 1 100 100 99 85 98 28 73 91 54 100 70 37 18 5 16 5 5 5 5 5 5 15 43 100 5 73 100 81 94 70 30 66 26 36 5 2 0 2
0 0 0 0 0 3 85 8 100 95 4 3 100 100 100 75 100 64 13 100 100 95 87 40 4 11 5 5 19 92 100 81 18 63 100 91 100 70 97 99 97 100 99 100 58 81 5 5 0
0 0 0 0 30 95 99 100 100 100 95 5 61 47 100 100 100 100 100 100 100 95 95 5 5 31 76 93 89 100 100 90 65 100 73 99 100 94 95 100 100 100 27 91 54 10 14 78 90
0 0 0 0 99 100 66 91 100 100 95 5 100 100 100 100 100 100 100 100 100 98 100 31 34 100 100 100 98 100 100 100 96 95 93 100 100 100 100 100 82 58 78 40 23 28 11 98 99
0 1 1 4 66 100 100 100 93 100 100 20 80 100 100 100 100 100 98 87 84 100 100 100 100 100 100 100 100 100 100 100 100 100 100 100 100 100 100 99 98 79 89 54 5 68 67 37 9
0 5 60 100 14 100 92 100 100 100 99 100 82 100 100 100 100 100 100 100 100 88 100 100 100 100 100 100 100 100 100 100 100 100 100 100 100 100 100 100 80 100 55 62 62 100 100 68 59
1 11 100 100 99 100 98 100 100 92 95 100 74 94 97 100 100 100 100 100 100 100 100 100 100 100 100 100 100 100 100 100 100 100 100 100 100 100 100 100 98 98 75 92 93 81 15 5 5
5 11 96 100 100 100 100 38 100 96 81 99 100 100 100 100 100 100 100 100 100 100 100 100 100 100 100 100 100 100 100 100 100 100 100 100 100 100 100 100 98 99 60 100 71 49 10 5 48
4 7 70 90 100 100 100 72 79 100 100 89 100 100 100 100 100 100 100 100 100 100 100 100 93 100 100 100 100 100 100 100 100 100 100 100 100 100 100 100 100 96 86 62 48 72 57 99 97
0 5 100 100 100 100 100 73 56 30 15 10 91 100 100 100 100 100 100 99 100 100 100 100 100 100 100 100 100 100 100 100 100 100 100 100 100 100 100 100 100 100 88 73 85 94 100 100 5
0 1 16 100 93 86 100 100 66 42 65 32 5 43 100 100 100 100 100 100 100 100 100 100 100 100 100 100 100 100 100 100 100 100 100 100 100 100 100 100 100 100 100 100 100 100 100 100 65
4 5 5 83 75 63 100 72 31 92 100 32 30 90 100 100 100 100 100 100 100 100 100 100 100 100 100 100 100 100 100 100 100 100 100 100 100 99 100 96 100 100 100 100 100 100 100 100 69
0 5 13 10 75 34 40 90 21 75 85 95 100 100 100 100 100 100 100 100 100 100 96 100 100 100 100 100 100 100 100 100 100 100 100 100 100 100 100 100 100 100 100 99 74 82 78 43 5
0 10 45 55 36 2 5 3 5 7 58 100 60 100 73 89 75 87 100 100 100 100 100 100 100 100 100 100 100 100 100 100 100 100 100 100 100 100 100 100 97 82 100 100 100 100 100 95 19
0 4 67 73 50 40 14 100 78 12 47 92 99 100 100 100 83 100 100 100 100 100 100 100 100 100 100 100 100 100 100 100 100 100 100 100 99 100 100 100 94 100 100 100 100 100 83 36 21
3 5 76 99 67 78 78 71 84 95 91 87 100 100 100 100 100 100 100 100 99 100 100 100 60 100 100 100 100 100 100 100 100 99 99 100 100 100 100 100 100 99 100 70 99 89 12 5 6
6 48 71 45 61 94 100 92 100 100 100 100 100 100 100 100 100 100 98 100 73 53 97 100 100 100 100 100 100 100 100 100 100 100 100 100 100 97 86 59 68 30 7 32 35 14 8 34 26
2 48 100 88 15 66 100 100 100 100 100 100 100 100 100 100 100 100 100 100 100 5 7 99 79 100 30 32 100 100 100 100 100 100 100 100 100 100 100 100 100 100 100 100 100 100 64 20 18
5 5 67 19 100 64 100 99 100 100 100 100 100 100 100 99 29 41 100 100 95 88 97 91 88 97 100 100 100 97 66 88 98 100 100 100 84 98 100 100 88 100 100 100 100 89 46 7 5
2 80 57 96 100 100 100 100 100 100 100 100 100 87 100 100 100 100 100 100 100 100 100 100 100 100 100 72 7 5 12 15 44 63 100 100 100 100 100 100 100 100 95 48 27 14 5 5 8
5 19 64 60 63 100 100 100 100 100 100 100 100 100 100 100 100 100 100 100 100 100 100 100 100 100 76 86 52 79 94 50 61 74 96 100 100 100 95 50 79 82 10 5 28 5 36 89 69
4 5 51 99 24 78 99 100 94 98 99 74 100 100 100 99 99 100 100 100 100 98 75 79 98 100 79 75 89 96 9 55 91 94 100 100 100 90 52 86 35 5 8 8 71 92 82 94 100
0 5 19 57 80 95 99 72 32 64 100 100 92 100 30 61 85 91 94 67 98 89 93 99 52 10 26 26 17 72 64 100 96 100 100 100 100 36 17 55 8 5 70 90 80 82 48 24 97
0 2 6 46 99 100 65 97 97 85 98 100 100 100 85 5 7 33 94 96 57 59 88 77 73 98 93 100 100 100 100 100 100 100 100 100 100 88 80 96 94 76 34 73 97 100 100 100 87
0 0 5 79 73 99 100 99 84 98 81 100 100 100 89 84 6 5 5 55 5 28 92 100 94 75 71 71 100 100 100 100 100 100 100 100 100 100 100 26 15 57 65 94 100 100 100 100 20
28 1 0 5 31 14 100 100 8 68 93 72 100 100 100 100 40 7 24 36 55 46 49 85 35 22 44 97 98 100 100 100 100 100 100 100 99 88 19 17 99 99 100 99 99 100 100 49 70
5 3 0 0 5 45 91 100 100 44 73 84 100 100 100 100 100 89 58 7 10 30 41 5 41 83 92 98 100 98 100 100 100 100 100 72 87 92 89 94 100 100 100 100 100 100 99 83 75
5 3 0 1 0 91 99 100 100 100 100 27 15 74 98 100 100 100 99 19 5 14 19 43 16 10 28 92 100 100 100 100 100 100 100 90 98 100 100 100 100 100 100 100 100 100 97 67 23
5 4 5 5 1 1 99 100 84 6 82 99 88 100 100 99 24 6 5 5 6 5 5 9 90 62 65 76 98 100 100 100 100 100 100 100 100 100 100 100 100 100 100 100 96 83 99 100 99

GFSSGP_prec_cloud_069.txt.gz
Cloud_Cover
0 0 0 0 0 0 3 26 94 5 8 65 79 2 40 51 100 100 100 100 92 53 94 100 100 100 100 57 8 52 95 82 37 11 5 5 5 5 5 5 5 5 5 4 80 93 3 0 2
0 0 0 0 0 36 100 100 38 33 70 98 100 6 77 99 100 100 100 100 100 100 86 42 100 100 16 0 10 13 74 4 5 5 5 5 2 4 5 5 5 5 5 57 100 48 5 1 5
0 0 0 5 91 100 100 100 68 18 73 9 16 18 74 100 100 100 100 100 100 100 77 20 100 100 21 4 56 89 30 5 5 5 5 5 5 5 5 11 11 73 13 100 100 93 12 5 5
0 0 0 0 69 100 29 86 12 100 74 1 37 100 100 74 100 100 100 100 97 100 100 32 89 100 27 86 54 11 5 5 5 6 5 72 5 5 5 97 100 100 100 100 91 100 25 99 9
0 0 4 100 100 98 50 94 6 4 66 81 12 60 13 100 100 100 100 62 100 100 100 100 57 100 90 66 42 5 64 100 100 100 100 100 91 100 100 90 82 100 100 100 100 100 98 57 26
0 0 29 100 100 80 75 76 59 90 16 89 100 100 50 100 100 100 74 88 100 100 100 100 100 100 97 84 11 33 95 100 100 100 100 92 98 100 100 100 100 100 100 100 100 100 99 100 90
0 12 97 100 100 81 65 95 26 28 100 100 100 98 88 100 100 100 100 88 100 100 100 100 100 100 100 100 100 100 100 100 100 96 100 87 100 100 100 100 100 100 100 100 100 100 99 100 100
0 0 50 100 100 100 77 8 99 90 100 49 48 100 100 100 100 64 100 100 100 100 100 100 100 100 100 100 100 100 100 100 100 100 100 100 100 100 100 100 100 100 100 100 100 100 100 100 100
0 5 100 100 100 100 32 36 62 98 100 69 61 100 100 100 100 100 100 100 100 100 100 100 100 100 100 100 100 100 100 100 100 100 100 100 100 100 100 100 100 100 100 100 100 100 100 100 100
0 48 100 50 48 11 96 35 98 96 85 100 92 22 78 100 100 100 100 100 100 100 100 100 100 100 100 100 100 100 100 100 100 100 100 100 100 100 100 100 100 100 100 100 100 100 100 91 100
7 5 98 90 47 19 82 100 100 85 73 100 100 100 98 54 100 100 100 100 100 100 100 100 100 100 100 100 100 100 100 100 100 100 100 100 100 100 100 100 100 100 100 100 100 100 100 100 100
0 86 80 5 9 5 27 100 100 10 34 100 100 100 97 100 100 100 100 100 100 100 100 100 100 100 100 100 100 100 100 100 100 100 100 100 100 100 99 100 100 100 100 100 100 100 100 100 100
3 76 1 0 0 15 98 100 100 68 3 90 48 100 39 100 89 100 100 100 100 100 100 100 100 100 100 100 100 100 100 100 100 100 100 100 100 100 100 100 94 100 100 100 100 100 97 100 100
42 0 6 0 100 76 15 86 100 100 27 0 5 17 42 87 100 100 100 100 100 100 100 100 100 100 100 100 100 100 100 100 100 100 100 100 100 100 100 100 100 100 96 100 95 100 100 100 100
4 0 100 97 100 81 3 100 60 92 100 52 5 5 75 17 100 100 100 100 100 100 100 100 100 100 100 100 100 100 100 100 100 100 100 100 100 100 100 100 100 100 100 100 100 100 100 100 100
5 72 97 100 54 97 3 100 100 32 5 5 82 76 100 16 29 100 100 100 100 100 100 100 100 100 100 100 100 100 100 100 100 100 100 100 100 100 100 100 100 100 96 100 100 100 100 100 100
98 89 41 72 97 83 28 98 99 5 5 5 81 100 98 97 10 59 88 100 82 94 100 100 99 100 90 100 100 100 99 100 100 100 100 100 100 100 100 100 100 96 61 100 100 100 79 69 31
100 99 86 29 80 40 90 96 99 42 34 25 82 46 30 80 94 100 100 100 100 99 99 100 100 100 100 100 100 100 100 100 100 100 100 100 100 100 100 98 97 100 100 100 100 100 78 97 98
5 78 69 100 73 99 100 100 100 100 100 100 100 100 100 100 100 100 100 100 100 100 100 100 100 100 100 100 100 100 100 100 100 100 100 100 100 100 100 100 100 100 100 100 100 100 97 84 64
2 94 95 78 25 15 99 100 100 96 93 63 100 100 100 97 100 100 100 100 100 95 90 59 100 100 100 100 100 100 100 100 100 100 100 100 100 100 100 100 100 99 86 39 46 40 61 20 16
6 98 99 47 76 23 49 100 100 94 87 76 100 100 100 100 100 100 98 100 100 96 100 99 94 100 100 100 100 100 100 100 82 97 100 100 100 100 80 29 38 36 62 53 46 32 5 5 5
100 83 2 1 21 100 81 96 95 92 100 32 100 100 100 100 100 81 98 91 100 23 27 86 100 91 54 53 36 49 90 96 100 100 100 100 100 74 97 100 83 7 93 81 100 95 56 5 24
64 6 0 0 10 97 100 71 100 100 98 94 82 100 100 100 100 100 100 100 100 47 95 15 100 89 87 92 35 85 100 100 100 100 100 100 94 59 95 91 93 42 100 100 100 100 17 100 100
13 0 2 2 46 98 97 85 82 96 91 98 94 100 83 100 100 100 99 56 64 24 92 100 94 80 90 44 76 100 98 85 79 85 90 100 100 100 100 96 100 100 100 100 100 100 100 98 100
5 39 96 62 100 48 55 36 41 100 81 100 66 30 100 99 73 99 43 53 56 74 44 38 44 4 35 64 20 16 68 41 100 94 100 100 100 100 100 100 100 100 100 100 100 100 100 100 100
5 65 96 80 100 91 2 2 97 6 28 50 14 88 15 98 100 100 57 100 93 21 5 5 5 81 96 100 100 96 79 51 68 100 100 88 100 100 100 100 100 100 100 100 100 100 100 100 100
98 61 83 99 13 2 26 84 3 1 6 67 21 27 8 5 5 30 98 27 5 5 27 39 57 58 61 98 74 54 47 71 89 97 100 100 100 100 100 100 100 100 100 100 100 100 100 100 100
23 71 58 37 98 99 75 98 100 29 5 5 5 5 8 5 5 10 5 5 5 5 5 27 9 54 79 79 96 75 96 100 100 80 98 100 100 100 100 100 100 100 100 100 100 100 100 100 100
10 33 80 98 100 100 100 99 100 4 5 4 5 5 5 5 5 28 11 25 5 44 9 36 25 24 49 80 49 91 100 100 100 80 100 100 100 100 100 100 100 100 100 100 100 100 100 100 100
94 36 85 99 94 38 82 39 98 37 4 4 0 5 5 5 0 0 4 5 5 5 5 5 20 14 29 41 98 74 100 100 100 100 100 100 100 100 100 100 100 100 100 100 100 100 100 100 100

GFSSGP_prec_cloud_072.txt.gz
Cloud_Cover
0 0 0 0 0 0 1 98 100 88 28 1 0 0 0 0 0 100 100 100 100 100 100 100 100 100 87 10 0 76 100 81 18 30 98 100 100 84 5 5 5 5 42 0 0 5 5 1 59
0 0 0 0 0 0 98 73 100 56 0 0 0 0 0 3 17 100 100 100 100 100 100 100 100 100 97 98 37 52 15 21 26 9 4 4 2 5 5 4 5 5 5 0 3 3 40 29 93
0 0 0 0 2 2 100 11 5 37 52 100 31 0 0 74 100 100 100 100 100 100 100 100 100 100 100 52 99 76 5 5 5 5 5 5 5 5 5 4 5 5 5 5 5 38 32 100 87
0 0 0 0 0 59 34 70 93 59 89 99 100 99 30 16 100 100 100 100 100 100 100 100 100 100 8 5 25 52 5 5 5 5 5 5 72 98 84 75 5 5 5 6 84 93 100 100 98
0 0 0 89 64 46 72 0 66 100 100 100 100 100 70 47 100 100 100 100 100 100 100 100 100 100 86 67 100 79 33 5 11 26 5 66 92 93 76 65 58 25 33 100 100 100 100 100 100
0 0 6 100 97 60 9 0 3 42 94 100 100 100 100 98 54 100 85 69 85 100 100 100 100 100 100 100 100 100 11 19 100 20 53 73 80 60 73 69 90 92 99 100 100 100 100 100 67
0 6 32 19 31 99 7 0 5 94 14 100 100 100 100 100 98 98 94 24 100 100 100 100 100 100 100 100 100 79 77 96 94 93 95 77 67 98 100 100 100 100 100 100 100 100 99 100 94
0 0 6 99 48 65 46 10 65 4 100 100 96 100 100 100 100 100 100 100 100 100 100 100 100 100 100 100 100 100 100 100 100 98 92 100 100 100 100 100 100 100 100 100 100 92 100 100 100
0 0 88 80 75 71 80 25 85 76 100 99 95 100 100 100 100 100 100 100 100 100 100 100 100 100 100 100 100 100 100 100 100 100 100 100 100 100 100 100 100 100 100 100 100 100 100 100 100
0 8 70 83 26 29 5 27 53 93 19 100 76 100 100 100 100 100 100 100 100 100 100 100 100 100 100 100 100 100 100 100 100 100 100 100 100 100 100 100 100 100 100 100 100 100 100 100 100
5 34 95 10 96 5 1 8 100 82 88 100 100 100 100 100 100 96 100 100 100 100 100 100 100 100 100 100 100 100 100 100 100 100 100 100 100 100 100 100 100 100 100 100 95 97 100 100 100
96 4 5 31 2 3 0 98 89 32 100 100 100 100 88 100 100 98 100 100 100 100 100 100 100 100 100 100 100 100 100 100 100 100 100 100 100 100 100 100 100 100 100 70 92 50 70 100 100
9 23 60 10 3 5 13 85 100 15 84 27 91 94 54 93 95 100 100 100 100 100 100 100 100 100 100 100 100 100 100 100 100 100 100 100 100 100 100 100 100 100 96 94 73 97 93 94 100
46 6 2 13 38 3 43 37 80 97 65 2 9 28 8 77 95 100 100 100 100 100 100 100 100 100 100 100 100 100 100 100 100 100 100 100 100 100 100 100 100 100 100 100 100 6 5 48 100
5 0 90 62 100 73 12 70 100 100 100 96 4 89 6 34 88 100 100 100 100 100 100 100 100 100 100 100 100 100 100 100 100 100 100 100 100 100 100 100 100 100 100 100 77 40 98 100 100
0 4 82 9 88 97 69 95 100 100 100 100 40 73 0 0 87 100 100 100 100 100 100 100 100 100 100 100 100 100 100 97 100 100 100 100 100 100 100 100 100 100 100 100 100 100 99 99 92
21 19 94 86 1 2 78 94 100 100 100 100 15 0 1 0 88 88 97 93 100 100 100 100 100 100 100 100 100 100 100 100 100 100 100 100 100 100 100 100 100 100 100 95 100 100 100 100 99
100 87 94 98 89 5 80 100 87 58 100 39 5 5 10 0 5 11 34 46 100 100 100 100 100 100 100 100 100 100 100 100 100 100 100 100 100 100 100 100 100 100 100 100 100 100 100 100 100
12 24 93 99 17 5 3 100 100 76 100 100 98 99 70 5 42 5 52 76 83 85 100 100 100 100 100 100 100 100 100 100 100 100 100 100 100 100 100 66 90 100 100 100 100 100 100 100 94
0 1 3 26 82 0 24 80 96 87 100 95 100 100 100 100 100 97 97 83 100 89 87 94 100 100 100 97 100 100 100 99 100 100 100 100 100 100 100 100 100 100 100 100 100 95 97 86 38
2 4 82 94 100 14 6 73 77 26 54 98 100 100 100 91 99 22 58 99 100 79 98 100 100 100 97 72 5 65 100 100 100 100 100 100 100 100 100 100 96 45 96 82 40 12 72 87 84
27 90 95 4 13 82 17 6 64 71 94 57 100 100 100 100 100 92 100 38 100 100 100 22 32 33 77 100 98 10 100 100 100 100 100 100 100 100 91 96 89 92 95 100 64 93 97 80 44
13 5 5 2 5 17 85 41 100 93 29 88 71 100 100 100 100 100 100 100 100 100 100 100 92 70 87 84 100 77 70 94 87 61 100 95 72 100 100 81 98 96 100 100 100 100 100 100 36
18 2 2 0 1 3 88 25 98 100 91 100 52 100 99 100 100 100 100 100 100 100 100 100 22 5 99 100 100 100 100 100 100 100 51 100 97 99 100 100 100 100 95 93 97 100 100 100 98
99 5 10 61 62 29 70 79 5 36 76 13 59 48 91 100 100 100 100 100 100 100 100 100 100 97 100 100 100 100 100 100 95 100 99 100 100 89 51 72 90 100 100 100 100 100 100 100 100
100 5 33 99 68 36 99 73 2 70 7 5 5 7 14 94 15 100 78 59 52 57 93 100 100 14 9 86 100 57 32 5 20 91 39 81 100 99 100 87 100 100 100 100 100 100 100 100 100
100 72 12 100 71 54 31 99 16 82 68 5 3 69 14 7 9 29 64 94 19 7 5 5 34 5 5 7 72 5 5 5 5 5 5 53 100 85 100 100 100 100 100 100 100 100 100 100 100
100 100 27 63 44 57 8 42 98 86 86 17 0 2 4 4 4 1 11 9 59 83 57 5 5 5 5 5 5 34 30 34 14 6 44 100 91 100 100 100 100 100 100 100 100 100 100 100 100
100 100 83 24 9 5 5 86 99 99 62 78 4 4 3 0 1 3 3 72 93 96 96 83 5 39 51 5 5 52 98 100 100 96 25 50 41 90 100 100 100 100 100 100 100 100 100 100 100
100 100 100 100 14 99 32 72 46 14 68 71 3 0 1 4 0 0 5 5 5 26 95 83 86 59 5 33 100 46 17 79 100 100 100 91 94 100 100 100 100 100 100 100 100 100 100 100 100

GFSSGP_prec_cloud_075.txt.gz
Cloud_Cover
0 0 0 0 0 0 0 0 0 15 100 90 4 5 3 94 47 41 11 48 100 100 100 100 100 100 100 100 100 100 8 1 4 9 89 87 100 100 100 96 86 100 24 4 2 3 0 0 0
0 0 0 0 0 0 0 3 100 8 72 3 3 7 37 9 4 0 40 99 100 100 100 100 100 100 100 100 26 96 100 98 4 58 91 98 71 41 5 32 14 5 4 5 4 0 0 0 0
0 0 0 0 0 0 0 74 99 24 26 2 6 22 70 32 98 36 70 100 100 100 100 100 100 100 100 86 100 100 100 100 92 69 100 74 100 100 12 3 5 5 18 4 5 4 5 5 9
0 0 0 0 0 0 42 92 93 5 0 73 100 99 74 100 100 100 100 100 100 100 100 100 100 100 100 100 100 100 100 100 96 100 100 100 36 5 5 5 5 5 4 76 6 5 43 89 92
4 0 0 0 0 1 93 16 3 5 62 100 100 100 95 100 100 100 100 100 100 100 100 100 100 100 100 100 95 100 87 39 100 100 84 50 76 5 5 5 5 5 5 5 12 44 100 100 96
0 0 0 0 13 97 72 2 0 17 61 56 92 100 100 100 100 100 100 100 100 100 98 100 100 100 100 100 100 100 100 53 91 76 89 5 5 5 5 5 5 25 76 98 100 100 100 100 78
9 0 0 0 0 98 63 11 0 0 16 48 100 97 100 100 100 100 100 100 100 100 100 100 100 100 100 100 100 100 100 84 100 100 17 5 6 6 7 11 73 99 100 100 100 100 100 52 51
9 0 0 0 1 7 4 2 65 1 75 56 96 100 100 100 100 100 100 100 100 100 100 100 100 100 100 100 100 100 100 99 38 100 100 100 100 100 100 47 100 100 100 100 100 100 99 77 5
0 0 0 2 5 5 5 54 0 1 100 100 100 100 100 100 100 100 100 100 100 100 100 100 100 100 100 100 100 100 100 100 100 100 100 100 100 100 100 100 100 100 100 100 100 100 99 100 100
0 0 2 32 5 5 2 1 3 6 100 98 100 100 100 100 100 100 100 100 100 100 100 100 100 100 100 100 100 100 100 100 100 100 100 100 100 100 100 100 100 100 100 100 100 100 79 83 92
2 0 0 28 6 3 0 4 0 94 100 100 100 100 100 100 100 100 100 100 100 100 100 100 100 100 100 100 100 100 100 100 100 93 100 100 100 100 100 100 100 96 84 100 100 100 93 34 29
59 29 27 0 0 1 0 1 0 44 100 100 100 100 100 84 100 100 100 100 100 100 100 100 100 100 100 100 100 100 100 100 100 100 100 98 100 100 100 100 100 100 98 99 91 98 94 53 76
94 97 42 4 3 4 0 1 0 24 11 94 100 69 79 87 100 100 100 100 100 100 100 100 100 100 100 100 100 100 100 100 100 100 100 62 100 99 100 100 100 100 75 86 55 6 5 27 8
5 5 0 3 22 11 0 3 2 90 83 100 100 100 57 100 100 100 100 100 100 100 100 100 100 100 100 100 100 100 100 100 100 100 100 100 100 100 100 100 100 100 100 97 62 92 66 74 43
98 95 0 0 40 6 0 11 99 99 100 100 100 100 100 100 100 100 100 100 100 100 100 100 100 100 100 100 100 100 100 100 100 100 100 100 93 100 100 100 100 100 100 95 46 89 82 98 100
100 96 0 0 28 53 0 3 96 71 100 100 100 100 48 42 100 100 100 100 100 100 100 100 100 100 100 100 100 100 100 100 100 100 100 100 100 100 100 100 100 100 100 100 100 100 100 100 100
100 99 32 35 6 5 0 2 84 94 100 100 100 100 92 39 95 100 100 100 100 100 100 100 100 100 100 100 100 100 100 100 100 75 100 100 100 100 100 100 100 100 100 100 100 100 100 100 100
100 100 41 89 19 5 5 5 100 71 99 100 100 100 66 82 65 50 99 92 100 100 100 100 100 100 100 100 100 100 90 100 100 100 100 97 100 100 100 100 100 100 100 100 100 100 100 100 100
100 100 64 5 99 99 5 5 34 70 8 100 100 76 100 100 90 64 51 84 64 89 100 100 100 100 100 100 100 100 100 100 100 100 100 100 97 100 100 100 100 98 92 100 100 100 100 100 100
100 100 100 4 100 4 5 0 4 2 4 17 15 85 100 100 100 100 32 25 69 67 100 100 100 100 100 100 100 100 82 77 100 100 100 100 100 100 100 100 100 90 100 100 100 100 100 100 100
100 100 100 30 57 5 10 0 4 2 0 0 2 30 98 100 100 100 97 97 33 19 100 100 100 100 100 100 100 100 100 96 99 100 100 100 100 100 100 100 100 100 100 100 100 100 97 99 98
100 100 100 44 5 0 8 3 2 61 92 4 24 93 84 45 100 100 67 82 2 4 100 100 100 100 100 100 100 100 100 100 96 100 100 100 100 100 100 100 100 100 100 100 100 86 100 99 89
100 100 100 84 0 0 2 5 6 3 5 5 3 43 80 5 9 92 100 100 100 99 97 56 96 100 100 100 100 87 30 55 96 98 100 100 90 100 100 59 99 100 100 100 100 100 100 100 100
100 100 100 100 4 0 2 81 5 4 5 4 3 78 34 98 77 5 5 57 100 97 73 90 48 61 92 30 12 1 5 88 52 81 5 43 64 88 100 97 82 96 92 97 67 100 95 87 100
100 100 100 100 5 0 22 56 0 4 2 1 13 8 69 70 83 75 3 84 75 21 98 100 100 92 61 7 26 5 5 4 5 5 90 9 33 60 100 100 100 94 100 100 91 100 100 100 100
100 100 100 100 15 39 16 57 18 2 0 5 56 5 47 10 100 100 60 92 94 9 3 0 48 98 100 51 57 97 21 8 8 75 5 5 5 71 100 100 100 100 100 100 100 100 100 100 100
100 100 82 100 100 80 69 54 84 96 79 14 5 2 0 4 5 4 58 49 5 87 100 100 100 100 100 100 97 88 93 14 5 5 15 52 62 94 100 100 100 100 100 100 100 100 100 100 100
86 100 100 100 100 88 5 5 50 45 39 42 1 0 0 0 0 2 2 4 31 5 5 37 33 14 7 37 30 19 65 14 5 28 43 51 99 100 100 100 100 100 100 100 100 100 100 100 100
100 100 100 100 100 97 10 19 5 58 64 29 14 3 4 1 0 0 0 1 4 5 20 7 63 15 76 100 100 100 33 34 95 100 100 100 100 100 100 100 100 98 100 100 100 100 100 100 100
100 100 100 100 100 100 98 6 5 28 15 14 88 53 4 0 0 0 0 0 0 45 100 100 81 100 100 100 100 100 5 75 100 100 100 100 100 100 100 100 87 100 100 100 100 96 100 100 100

GFSSGP_prec_cloud_078.txt.gz
Cloud_Cover
0 0 0 0 0 0 0 0 0 0 0 4 3 2 2 0 3 5 0 5 38 9 8 95 100 100 100 100 100 100 100 100 100 100 29 13 16 27 8 57 10 88 53 28 74 60 40 5 1
0 0 0 0 0 0 0 0 0 0 0 4 77 61 52 81 9 0 13 44 92 87 93 37 100 100 100 100 100 100 100 100 100 100 100 100 100 99 99 96 78 82 100 100 100 100 68 88 99
0 0 0 0 0 0 0 0 0 0 4 4 1 25 96 100 100 99 54 0 1 85 39 54 100 100 100 100 100 100 100 100 100 100 99 100 99 90 92 100 100 100 45 100 100 100 21 100 8
0 0 0 0 0 0 3 34 92 96 98 98 99 100 35 39 100 100 100 81 100 20 27 48 100 100 100 100 100 100 100 100 65 5 30 14 64 82 93 73 90 100 99 90 28 76 66 27 96
0 0 17 2 0 0 2 0 7 100 16 37 95 22 42 100 100 100 100 100 96 100 100 100 100 100 100 100 100 100 100 100 100 51 5 51 94 100 59 85 32 57 23 5 16 5 5 89 53
0 2 4 0 0 0 38 99 100 66 29 67 97 55 77 100 100 100 100 100 100 100 100 100 100 86 100 100 100 100 100 100 100 30 22 68 98 100 83 5 5 5 5 5 5 36 53 5 100
0 1 31 2 0 0 98 76 22 5 72 100 100 100 100 100 100 100 100 100 100 100 100 100 100 100 100 100 94 100 100 100 100 88 58 100 99 75 5 32 5 41 49 96 88 48 23 5 100
0 73 12 0 0 5 98 23 31 1 100 100 100 100 100 100 100 100 100 100 100 100 100 100 100 100 100 100 100 100 100 100 100 100 99 100 100 100 61 7 100 100 100 100 100 96 88 35 100
16 95 13 0 3 5 5 5 5 5 100 100 100 100 100 100 100 100 100 100 100 100 100 100 100 100 100 100 100 100 100 100 100 100 100 100 100 100 65 100 98 100 100 100 100 100 37 13 89
73 31 1 0 0 5 4 0 2 3 100 100 89 100 100 100 100 100 100 100 100 100 100 100 100 100 100 100 100 100 100 100 100 100 100 100 100 100 49 100 100 100 100 99 98 84 100 85 99
100 5 2 0 2 0 6 44 5 1 100 100 90 100 100 100 100 100 100 100 100 100 100 100 100 100 100 100 100 100 100 100 100 100 100 100 100 100 97 100 100 100 100 66 33 26 5 59 100
56 0 5 42 5 2 79 51 4 14 100 100 66 95 100 100 100 100 100 100 100 100 100 100 100 100 100 100 100 100 100 100 100 100 100 100 100 29 99 96 88 100 100 23 66 78 11 45 82
1 0 3 96 2 5 32 6 5 58 100 100 79 58 100 100 100 100 100 100 100 100 100 100 100 100 100 100 100 100 100 100 100 100 100 100 100 88 92 100 84 100 99 56 6 5 5 11 18
0 0 5 26 2 2 1 90 20 69 100 100 100 55 88 100 100 100 100 100 100 100 100 100 100 100 100 100 100 100 100 100 100 100 100 100 100 94 78 100 100 100 97 98 37 92 100 77 69
0 0 5 100 5 0 5 100 69 84 100 100 100 100 72 100 100 100 100 100 100 100 100 100 100 100 100 100 100 100 100 100 100 100 100 100 100 100 97 100 89 98 100 80 38 20 52 96 95
0 0 9 91 4 5 5 5 5 15 100 100 100 77 31 100 100 100 100 100 100 100 100 100 100 100 100 100 100 100 100 100 100 100 100 100 100 100 100 99 99 100 96 66 82 100 86 86 100
0 0 7 5 72 69 5 5 5 6 100 100 100 100 27 99 100 85 100 100 100 100 100 100 100 100 100 100 100 100 100 100 100 100 100 100 100 100 100 100 100 100 100 93 97 100 100 100 96
0 3 5 99 100 98 18 4 5 7 94 100 100 100 85 100 100 100 100 100 100 100 100 100 100 100 100 100 100 100 100 100 100 100 100 100 100 87 86 77 100 100 94 98 67 91 99 76 77
0 0 3 99 100 100 2 2 5 17 56 100 100 100 100 95 46 43 99 100 100 100 100 100 100 100 100 100 100 100 100 100 100 100 100 100 100 100 100 97 62 83 98 100 100 100 100 100 90
0 0 2 99 100 100 5 5 5 2 4 1 2 0 1 1 76 80 64 100 100 100 92 100 100 100 100 100 98 100 100 100 100 100 100 100 100 100 100 100 100 100 100 100 66 35 83 38 41
26 3 3 49 100 100 13 0 0 0 5 0 5 20 5 5 47 100 99 100 100 100 90 100 100 100 100 100 100 70 84 100 100 99 100 100 100 100 100 94 52 98 96 43 51 71 6 62 100
46 5 97 25 99 100 17 0 0 3 0 0 0 5 99 15 85 51 86 73 89 79 66 91 100 100 100 100 100 99 94 58 62 100 100 100 100 100 98 55 61 100 97 100 100 74 62 98 100
78 5 98 91 95 100 57 1 0 0 0 0 0 67 81 95 7 100 38 5 100 100 75 95 47 100 100 100 100 100 100 100 100 82 72 41 38 99 100 98 96 99 96 64 88 45 31 84 94
95 67 24 96 93 100 75 10 2 1 0 0 0 0 49 90 3 6 5 27 60 44 100 100 57 77 70 96 100 100 100 100 100 100 100 100 87 100 100 95 97 100 87 66 29 46 100 100 99
98 92 35 5 4 92 98 96 5 0 0 2 0 0 17 58 5 5 5 5 6 33 87 99 100 100 100 100 100 100 100 100 100 100 89 67 98 100 100 40 99 61 5 30 64 79 77 96 100
100 97 70 29 2 87 92 100 6 0 0 0 0 0 1 10 98 50 35 93 3 43 7 24 24 60 94 100 100 100 100 100 100 64 37 15 16 30 18 29 17 100 100 100 100 100 100 100 100
98 55 92 5 5 92 85 100 73 4 1 0 1 5 0 0 0 4 26 6 90 39 6 4 66 6 1 2 5 5 2 19 5 5 42 5 13 73 96 41 98 100 100 100 100 100 100 100 100
13 92 42 26 37 56 14 95 92 19 5 5 5 5 32 0 0 0 0 0 0 11 97 100 59 95 100 93 72 85 94 43 23 84 99 75 18 98 100 100 100 100 100 100 78 80 100 100 81
100 100 98 99 65 7 57 98 100 100 23 30 22 5 5 11 5 4 0 0 0 0 8 74 100 58 100 100 100 100 100 40 57 100 100 100 100 100 100 100 100 100 100 100 78 95 90 64 82
20 90 67 8 100 61 6 95 100 100 68 8 5 5 1 0 4 5 2 0 0 0 5 43 53 100 99 53 100 100 90 88 100 100 100 100 100 100 100 100 100 100 100 100 100 100 100 100 100

GFSSGP_prec_cloud_081.txt.gz
Cloud_Cover
5 0 3 0 0 0 0 0 0 0 0 0 0 0 0 5 3 0 4 5 95 100 38 11 25 100 100 5 13 100 100 100 100 100 99 94 13 7 4 21 17 99 100 56 100 100 91 98 100
4 0 0 0 0 0 0 0 0 0 0 0 0 0 0 0 12 13 4 5 8 98 61 36 24 43 12 3 84 100 100 97 100 100 100 100 100 81 53 74 22 36 17 94 95 97 100 97 100
0 0 0 0 0 0 0 0 0 0 2 2 1 0 1 53 76 98 70 12 0 83 80 88 54 100 96 97 100 100 100 100 100 100 100 71 100 100 100 96 98 100 91 66 100 100 100 99 100
0 0 0 0 0 0 0 0 0 0 2 4 4 5 11 3 89 100 100 100 100 1 5 83 76 92 55 100 100 100 100 100 100 100 94 94 26 55 81 80 37 100 100 100 100 100 100 26 79
0 0 0 0 0 0 0 0 0 0 5 21 38 33 53 100 100 97 96 99 73 65 60 100 100 100 100 100 97 100 100 100 100 100 100 97 72 92 5 5 8 94 70 61 85 85 100 55 4
0 0 0 0 0 1 0 0 5 2 0 34 97 92 100 100 87 57 99 100 100 100 100 100 100 100 100 100 100 100 100 100 100 100 100 100 100 91 5 16 99 71 5 98 81 6 5 0 0
0 0 0 0 4 4 0 0 0 5 0 61 100 100 85 100 79 100 100 100 100 100 100 100 100 100 100 100 100 100 100 100 100 100 100 100 100 88 90 100 100 28 14 11 36 82 27 19 5
0 0 0 1 0 0 0 0 0 0 0 55 100 100 100 100 100 100 100 100 100 100 100 100 100 100 100 100 100 100 100 100 100 100 94 100 100 62 100 5 5 5 10 5 59 100 100 80 5
0 0 0 0 0 0 0 0 0 0 0 0 100 100 100 100 100 100 100 100 100 100 100 100 100 100 100 100 100 100 100 100 100 100 100 100 100 98 100 24 9 47 35 6 77 100 100 100 33
1 3 2 0 0 2 0 0 0 0 0 82 100 100 100 100 100 100 100 100 100 100 100 100 100 100 100 100 100 100 100 100 100 100 100 100 100 98 93 92 100 98 100 71 98 95 60 100 95
2 1 0 0 0 0 0 0 0 0 0 99 100 100 100 100 100 100 100 100 100 100 100 87 100 100 100 100 100 100 100 100 100 100 100 100 100 100 89 100 96 88 83 56 42 98 10 5 5
0 0 0 0 0 0 0 0 0 0 1 96 100 100 100 100 100 100 100 100 100 100 100 100 100 100 100 100 100 100 100 100 100 100 100 100 100 100 72 76 59 56 21 69 71 80 100 57 5
0 0 0 0 0 2 1 5 0 0 0 96 100 100 100 100 100 100 100 100 100 100 100 100 100 100 100 100 100 100 100 100 100 100 100 100 100 100 100 100 86 97 85 80 75 66 100 99 10
0 0 0 0 0 5 4 5 0 0 0 96 100 100 100 100 100 100 100 100 100 100 100 100 100 100 100 100 100 100 100 100 100 100 100 100 100 100 100 100 100 100 80 93 80 99 100 100 98
0 0 0 0 0 7 3 0 0 0 0 62 100 100 100 100 100 100 100 100 100 100 100 100 100 100 100 100 100 100 100 100 100 100 100 100 100 100 100 100 97 100 80 7 46 63 100 83 100
5 0 0 0 18 47 2 0 0 0 3 62 100 100 80 100 100 100 100 100 100 100 100 100 100 100 100 100 100 100 100 100 100 100 100 100 100 100 100 100 100 100 90 99 95 90 100 94 100
3 0 0 0 0 5 4 1 0 0 28 86 100 71 5 84 100 100 100 100 100 100 100 100 100 100 100 100 100 100 100 100 100 100 100 100 100 100 100 100 100 100 100 99 100 96 96 99 100
5 5 3 0 0 0 5 8 0 0 1 98 100 99 21 57 100 100 100 100 100 100 100 100 100 100 100 100 100 100 100 100 100 100 100 100 100 100 100 100 100 100 98 100 97 85 93 89 98
55 88 5 5 5 0 5 100 0 0 0 9 99 100 97 44 100 100 100 100 100 100 100 100 100 100 100 100 100 100 100 100 100 100 100 100 100 100 100 100 100 54 97 100 100 100 100 100 100
100 100 24 5 5 0 14 100 8 0 0 0 0 68 100 100 75 91 100 100 100 100 100 100 100 100 100 100 100 100 100 100 100 100 100 100 100 100 100 100 100 100 100 100 100 100 100 100 97
100 100 86 17 5 5 82 100 8 0 0 0 0 0 11 28 34 100 100 100 100 100 100 100 100 100 100 100 100 100 100 100 100 100 100 100 100 100 100 100 100 100 100 100 100 100 100 100 97
100 100 61 37 5 23 68 86 16 0 0 0 0 0 0 0 13 50 100 100 100 100 100 100 100 100 100 100 100 100 96 100 100 100 100 100 100 100 100 100 98 100 91 100 100 99 100 99 73
100 100 35 66 29 90 8 6 60 15 0 0 0 0 0 0 98 19 88 100 100 100 100 40 96 98 100 100 100 100 100 100 100 100 99 100 100 100 100 100 100 96 71 49 92 31 95 69 97
100 100 100 54 81 90 83 91 5 91 0 0 0 0 0 0 3 35 5 63 68 98 100 100 97 98 100 100 100 100 100 100 100 94 61 34 55 91 88 96 64 66 54 82 89 97 100 100 88
100 100 100 87 5 53 76 85 59 100 5 5 0 0 0 0 0 5 0 5 5 16 38 39 87 86 91 95 95 100 100 100 100 100 100 100 100 100 100 100 99 86 91 100 97 96 100 100 89
100 99 74 89 50 89 100 74 100 100 5 5 0 0 0 0 0 4 5 2 6 72 5 5 6 5 4 5 5 19 85 99 100 100 100 100 100 100 100 100 100 100 94 98 100 100 100 100 100
100 8 88 5 43 12 100 70 96 100 54 8 5 2 0 0 0 0 0 0 3 0 4 5 4 3 39 17 5 5 5 25 85 94 94 99 95 100 100 100 100 100 100 97 100 100 100 99 78
82 100 92 36 100 59 98 100 100 100 100 100 60 9 4 1 0 0 0 0 0 0 23 99 74 64 6 7 30 29 29 50 57 41 27 12 52 98 100 98 100 100 100 100 100 100 100 99 100
100 100 100 100 100 46 78 83 99 100 100 100 80 82 80 63 5 0 0 0 0 0 14 100 100 91 20 47 94 76 45 39 28 25 96 78 100 100 100 100 100 100 100 100 100 100 100 100 97
100 100 100 100 77 100 31 95 51 66 100 100 100 66 96 97 73 2 0 0 0 0 0 1 14 74 100 100 100 86 98 82 69 83 100 100 100 100 100 100 100 100 100 100 100 100 100 100 100

GFSSGP_prec_cloud_084.txt.gz
Cloud_Cover
0 0 0 0 0 0 0 0 0 0 0 0 0 0 0 0 0 0 4 4 5 100 96 96 100 78 25 8 47 29 16 75 100 100 100 100 100 89 72 72 91 78 93 82 91 100 100 100 89
3 0 0 0 0 0 0 0 0 0 0 0 0 0 0 0 0 0 0 0 2 24 99 44 81 76 22 97 92 7 4 9 100 99 100 100 100 100 100 100 94 5 76 100 46 76 6 21 97
0 0 0 0 0 0 0 0 0 0 0 0 0 0 0 0 0 49 23 39 100 64 98 99 37 21 75 33 5 5 16 23 97 100 100 100 100 100 100 100 100 100 100 100 99 100 100 100 57
0 0 0 0 0 0 0 0 0 0 0 0 0 0 8 5 100 100 98 100 98 100 100 100 66 78 23 93 58 15 1 100 100 100 100 100 100 100 100 100 100 100 63 90 100 100 82 100 76
0 0 0 0 0 0 0 0 0 0 0 0 0 0 0 100 100 100 75 99 29 100 100 100 100 100 74 97 77 100 100 100 100 100 100 98 100 100 100 100 92 100 10 5 91 86 91 1 5
0 0 0 0 0 0 0 0 0 0 0 0 0 0 0 100 100 100 94 99 100 100 100 100 100 100 100 99 100 100 100 100 100 100 100 96 100 100 100 100 90 58 6 66 9 3 5 5 5
0 0 0 0 0 0 0 0 0 0 0 0 0 0 30 100 100 100 100 100 100 100 72 100 100 100 100 100 100 100 100 100 100 100 100 100 100 100 100 87 11 5 22 23 5 5 5 5 99
0 0 0 0 0 0 0 0 0 0 0 0 0 0 84 100 100 100 100 100 100 100 100 100 100 100 100 100 100 100 100 100 100 100 72 100 100 92 9 82 40 100 91 27 14 56 94 100 100
0 0 0 0 0 0 0 0 0 0 0 0 5 8 100 100 100 100 100 100 100 100 100 100 100 100 100 100 100 100 100 100 100 100 80 100 81 100 100 82 5 44 69 100 100 76 74 100 100
0 0 0 0 0 0 0 0 0 0 0 1 5 100 100 100 100 100 100 100 100 100 100 100 100 100 100 100 100 100 100 100 100 100 100 100 100 89 100 45 59 79 100 100 100 99 100 100 86
0 0 0 0 0 0 0 0 0 0 0 4 5 97 100 100 100 100 100 100 100 100 100 100 100 100 100 100 100 100 100 100 100 100 100 100 100 100 100 100 94 94 100 100 100 100 67 100 39
0 0 0 0 0 0 0 0 0 0 4 0 31 100 100 100 100 100 100 100 100 100 100 100 100 100 100 100 100 100 100 100 100 100 100 100 100 100 100 100 97 97 100 100 100 100 99 75 44
1 0 0 0 0 0 0 0 5 0 5 0 100 100 100 100 100 100 100 100 100 100 100 100 100 100 100 100 100 100 100 100 100 100 100 100 100 100 100 100 93 95 98 100 100 100 100 94 99
1 5 5 5 0 0 0 0 5 0 1 0 93 98 100 100 100 100 100 100 100 100 100 100 100 100 100 100 100 100 100 100 100 100 100 100 100 100 100 100 100 100 100 100 100 100 100 100 100
0 3 64 5 0 0 0 0 0 2 0 0 20 95 100 100 100 100 100 100 100 100 100 100 100 100 100 100 100 100 100 100 100 100 100 100 100 100 100 100 100 100 100 100 100 100 100 100 100
4 47 53 2 0 0 0 0 0 0 0 0 6 100 94 100 100 100 100 100 100 100 100 100 100 100 100 100 100 100 100 100 100 100 100 100 100 100 100 100 100 100 100 100 100 100 100 100 100
5 25 100 5 3 0 0 0 0 0 0 0 1 65 98 99 100 100 100 100 100 100 100 100 100 100 100 100 100 100 100 100 100 100 100 100 100 100 100 100 100 100 100 100 100 100 100 100 100
5 17 98 23 5 3 0 0 0 4 0 0 0 38 88 99 100 100 100 100 100 100 100 100 100 100 100 100 100 100 100 100 100 100 100 100 100 100 100 100 100 100 100 100 100 100 100 100 100
15 38 100 100 5 4 4 1 0 1 2 0 0 26 19 99 63 100 100 100 100 100 100 100 100 100 100 100 100 100 100 100 100 100 100 100 100 100 100 100 100 100 100 100 100 100 100 100 100
97 8 99 100 99 42 7 20 5 0 3 0 0 0 0 27 91 100 100 100 100 100 100 100 100 100 100 100 100 100 100 100 100 100 100 100 100 100 100 100 100 100 100 100 100 100 100 100 100
98 43 76 99 66 100 100 9 5 0 5 5 0 0 0 1 90 100 100 100 100 100 100 100 100 100 100 100 100 100 100 100 100 100 100 100 100 100 100 100 100 100 98 100 100 100 100 100 100
100 53 5 38 100 100 100 72 5 0 6 41 0 0 0 0 0 46 78 100 99 100 100 100 100 100 100 100 100 100 100 100 100 100 100 100 100 100 100 100 100 100 100 100 100 100 100 100 100
92 98 6 6 100 100 96 98 8 2 0 62 0 0 0 0 0 99 6 62 100 100 100 100 100 84 100 100 100 100 100 100 100 100 100 100 100 100 100 100 100 100 100 100 100 100 100 100 99
100 68 7 5 100 100 100 100 54 5 3 58 4 0 0 0 0 0 4 13 41 100 100 100 99 100 93 18 99 100 100 100 100 100 100 100 100 100 100 100 100 100 100 89 95 96 77 71 85
88 98 5 5 99 100 100 100 64 61 4 29 74 0 0 0 0 0 36 94 95 100 100 100 98 44 70 100 100 99 100 100 100 100 100 100 100 100 100 100 100 100 100 100 100 97 75 87 58
55 66 5 73 100 100 100 100 99 100 98 11 91 41 1 0 0 0 2 32 97 100 100 100 100 56 99 99 61 88 100 100 100 100 100 100 100 100 100 100 100 100 100 100 100 100 94 90 99
99 99 100 92 5 53 100 100 87 93 97 21 2 98 41 0 5 0 0 0 0 30 70 89 45 7 5 70 28 90 100 100 99 100 100 100 100 100 93 99 98 100 100 95 100 100 100 100 100
5 52 67 23 46 100 100 100 100 58 98 98 5 46 99 4 0 4 5 3 0 0 0 0 38 6 5 5 70 55 26 16 5 6 56 94 99 99 96 100 100 100 100 100 100 100 100 100 100
100 84 75 88 99 100 100 100 100 100 99 100 17 26 100 100 1 0 3 5 5 0 1 40 44 43 42 7 5 5 5 25 7 24 58 49 28 83 97 100 100 100 100 100 100 100 100 100 100
99 50 99 76 44 7 78 100 100 100 100 100 100 98 100 100 50 5 5 5 0 5 0 0 3 5 5 51 94 100 95 100 16 99 100 100 86 86 100 100 100 100 100 100 100 100 100 100 100

GFSSGP_prec_cloud_087.txt.gz
Cloud_Cover
0 0 0 0 0 0 0 0 0 0 0 0 0 0 0 0 0 0 0 0 2 26 44 6 91 81 70 100 24 28 5 16 5 45 83 95 100 100 100 99 71 91 100 99 17 32 84 100 97
0 0 0 0 0 0 0 0 0 0 0 0 0 0 0 0 0 0 0 0 0 57 38 51 1 85 47 100 54 69 93 36 0 2 84 100 100 100 100 100 100 100 100 100 100 100 94 43 23
0 0 0 0 0 0 0 0 0 0 0 0 0 0 0 0 0 0 6 2 4 44 76 54 1 32 46 100 100 6 21 19 0 2 54 98 100 94 100 100 100 100 100 100 25 40 57 7 11
0 0 0 0 0 0 0 0 0 0 0 0 0 0 0 0 0 6 99 48 5 12 99 100 100 100 100 100 100 54 13 15 10 56 100 95 100 100 100 100 100 100 100 96 5 38 68 100 77
0 0 0 0 0 0 0 0 0 0 0 0 0 0 0 0 2 100 100 100 27 53 93 100 100 100 100 100 100 95 83 29 5 34 90 100 100 100 100 100 100 98 97 50 58 71 9 87 68
0 0 0 0 0 0 0 0 0 0 0 0 0 0 0 0 40 100 100 100 50 42 100 100 100 100 100 100 100 97 92 90 4 31 100 100 100 100 100 100 100 100 96 98 89 5 22 5 10
0 0 0 0 0 0 0 0 0 0 0 0 0 0 0 2 59 100 100 100 98 100 98 99 100 100 100 100 100 100 93 85 89 100 100 100 100 100 100 100 100 100 97 81 65 63 5 13 64
0 0 0 0 0 0 0 0 0 0 0 0 0 0 2 7 100 100 100 100 100 100 100 100 100 100 100 100 100 100 100 100 100 100 100 100 100 100 100 100 97 80 75 79 42 91 64 51 77
0 0 0 0 0 0 0 0 0 0 0 0 0 0 45 100 100 100 100 100 100 100 100 100 100 100 100 100 100 100 100 100 100 100 100 100 100 100 100 100 86 7 48 68 8 93 85 88 100
0 0 0 0 0 0 0 0 0 0 0 0 0 3 100 100 100 100 100 100 100 100 100 100 100 100 100 100 100 100 100 100 100 100 100 100 91 93 100 85 82 30 90 63 62 80 82 98 86
0 0 0 0 0 0 0 0 0 0 0 0 0 1 100 100 100 100 100 100 100 100 100 100 100 100 100 100 100 100 100 100 100 100 100 100 94 100 100 58 100 32 87 26 67 57 50 9 31
0 0 0 0 0 0 0 0 0 0 0 0 0 30 83 100 100 100 100 100 100 100 100 100 100 100 100 100 100 100 100 100 100 100 100 100 93 99 100 100 100 100 56 9 97 45 90 54 100
0 0 0 0 0 0 0 0 0 0 0 0 0 5 69 100 100 100 100 100 100 100 100 100 100 100 100 100 100 100 100 100 100 100 100 100 51 100 100 100 100 90 100 26 64 79 99 6 61
0 0 0 0 0 0 0 0 0 0 0 0 0 3 6 100 100 100 100 100 100 100 100 100 100 100 100 100 100 100 100 100 100 100 100 100 100 100 100 100 99 100 100 100 81 91 71 76 19
0 5 0 0 0 3 0 0 0 0 0 0 0 0 16 98 100 100 100 100 100 100 100 100 100 100 100 100 100 100 100 100 100 100 100 100 100 100 100 100 100 100 100 100 95 100 94 53 51
4 5 3 5 5 5 4 0 0 0 0 0 0 1 27 75 98 100 100 100 100 100 100 100 100 100 100 100 100 100 100 100 100 100 100 100 100 100 100 100 100 100 100 100 100 97 90 97 100
3 35 5 5 5 5 5 0 0 0 0 0 0 41 48 40 47 97 100 100 100 100 100 100 100 100 100 100 100 100 100 100 100 100 100 100 100 100 100 100 100 100 100 100 100 66 65 98 95
5 100 8 10 10 5 5 2 4 2 4 0 0 0 0 8 2 50 98 100 100 100 100 100 100 100 100 100 100 100 100 100 100 100 100 100 100 100 100 100 100 100 100 100 100 100 100 100 100
9 100 17 5 5 22 12 5 5 9 5 1 0 0 0 0 1 63 100 100 100 100 100 100 100 100 100 100 100 100 100 100 100 100 100 100 100 100 100 100 100 100 100 100 100 100 100 100 100
74 100 100 2 5 72 14 4 97 54 5 2 0 5 0 0 2 21 97 100 100 100 100 100 100 100 100 100 100 100 100 100 100 100 100 100 99 100 100 100 100 100 100 100 100 100 100 97 82
62 100 92 4 61 100 9 4 99 99 5 5 0 5 0 0 0 7 100 100 100 100 100 100 100 100 100 100 100 100 100 100 100 100 100 100 100 100 100 100 100 100 100 100 100 100 100 99 93
99 100 42 93 100 100 36 40 45 57 5 5 0 9 1 0 0 0 90 87 80 50 100 100 100 100 100 100 100 100 100 100 100 100 100 100 100 100 100 100 100 100 100 100 100 100 100 100 94
100 100 52 100 100 100 12 99 85 100 16 5 16 50 17 0 0 0 6 37 100 100 100 100 100 100 100 100 100 100 100 100 100 100 100 100 100 100 100 100 100 100 100 100 100 100 100 100 100
100 100 82 74 87 100 28 91 100 100 60 25 7 10 8 5 0 0 0 8 44 100 100 100 100 100 100 100 100 100 100 100 100 100 100 100 100 100 100 100 100 100 100 100 100 100 100 100 100
100 100 95 5 58 99 15 28 100 99 77 90 55 87 12 5 5 0 0 0 0 75 100 100 100 82 94 100 81 91 100 100 100 100 100 100 100 100 100 100 100 100 100 100 100 100 100 100 99
100 100 88 51 34 100 88 68 100 100 22 74 80 37 88 65 8 1 0 0 0 3 100 100 100 100 100 100 94 97 71 100 100 100 100 100 100 100 100 100 100 100 100 100 100 100 100 100 96
100 100 100 43 34 80 13 100 100 100 13 84 100 33 72 89 89 5 0 0 0 0 26 100 100 100 80 52 94 46 92 100 100 100 100 100 100 100 100 100 100 100 100 100 94 97 99 100 91
100 100 91 8 5 62 100 100 100 100 100 100 100 100 67 38 66 54 4 0 0 0 2 100 100 99 16 29 24 52 100 100 77 48 73 22 12 82 71 89 100 99 92 85 80 86 100 100 100
100 68 98 6 5 16 93 100 100 100 66 69 100 100 32 24 100 100 33 2 0 0 0 10 42 10 5 4 7 28 21 5 10 4 5 5 9 13 23 62 93 94 100 98 100 100 100 100 100
100 100 100 43 5 5 68 100 100 100 49 100 100 100 5 5 6 92 100 49 4 0 0 0 0 2 5 7 5 5 5 14 100 100 96 32 100 100 20 7 5 82 100 100 100 100 100 100 100

GFSSGP_prec_cloud_090.txt.gz
Cloud_Cover
0 0 0 0 0 0 0 0 0 0 0 0 0 0 0 0 0 0 0 0 0 0 11 2 0 0 7 53 4 1 14 100 50 1 0 99 100 99 79 100 100 63 92 100 100 100 100 100 100
0 0 0 0 0 0 0 0 0 0 0 0 0 0 0 0 0 0 0 0 0 0 100 97 2 0 64 100 47 40 16 33 40 5 0 31 100 100 100 100 100 100 100 98 54 100 100 100 100
0 0 0 0 0 0 0 0 0 0 0 0 0 0 0 0 0 0 0 0 0 0 74 100 4 0 54 100 92 100 100 41 26 3 5 17 98 99 100 100 100 95 10 56 97 100 100 100 97
0 0 0 0 0 0 0 0 0 0 0 0 0 0 0 0 0 0 0 0 5 13 58 6 75 99 100 100 100 100 100 43 100 40 8 13 95 100 100 99 9 99 100 100 84 100 83 90 100
0 0 0 0 0 0 0 0 0 0 0 0 0 0 0 0 0 0 0 5 12 82 63 100 100 100 100 100 100 100 100 82 50 2 30 24 100 100 96 70 100 100 100 100 100 98 64 79 38
0 0 0 0 0 0 0 0 0 0 0 0 0 0 0 0 0 0 9 100 98 18 68 100 100 100 100 100 100 100 100 100 93 5 5 34 100 100 100 100 100 100 100 100 100 49 13 12 29
0 0 0 0 0 0 0 0 0 0 0 0 0 0 0 0 0 5 94 66 100 59 100 100 100 99 100 100 97 100 100 100 97 5 6 100 100 100 100 100 100 100 100 89 99 93 100 17 18
0 0 0 0 0 0 0 0 0 0 0 0 0 0 1 4 10 61 95 100 88 100 100 100 100 100 100 100 100 100 100 100 97 21 10 100 100 100 100 100 100 100 100 100 100 65 48 99 31
0 0 0 0 0 0 0 0 0 0 0 0 0 0 0 40 44 100 100 99 84 100 100 100 100 100 100 100 100 100 100 100 100 22 29 100 100 100 100 100 100 100 100 99 58 5 7 63 50
5 0 0 0 0 0 0 0 0 0 0 0 0 0 3 5 91 100 100 100 77 95 100 100 100 100 100 98 100 100 100 100 100 100 100 100 100 100 100 100 100 100 100 68 5 4 5 6 5
10 0 0 0 0 0 0 0 0 0 0 19 0 0 38 95 100 40 100 100 97 80 100 100 100 100 100 100 100 100 100 100 100 100 100 100 100 100 100 100 100 80 98 12 7 5 13 12 100
63 5 5 0 0 0 0 0 0 0 0 0 0 0 0 6 100 100 84 100 91 100 100 100 100 100 100 100 100 100 100 100 100 100 100 100 100 100 100 92 33 98 75 5 5 7 63 33 66
84 32 5 2 0 0 0 0 0 0 0 0 0 0 0 90 100 100 100 100 100 67 100 100 100 100 100 100 100 100 100 100 100 100 100 100 100 98 100 100 59 100 96 16 83 100 98 87 100
97 60 5 5 2 5 0 0 0 0 0 0 0 0 0 22 100 100 100 98 100 100 100 100 100 100 100 100 100 100 100 100 100 100 100 100 100 86 93 94 62 100 100 5 56 76 96 98 100
23 80 5 5 5 55 5 0 0 0 0 0 0 0 0 0 8 100 100 100 100 100 100 100 100 100 100 100 100 100 100 100 100 100 100 100 100 100 99 100 83 69 6 12 87 100 100 100 86
100 87 5 5 20 4 30 0 0 0 0 0 0 0 0 0 0 96 100 100 100 93 100 100 100 100 100 100 100 100 100 100 100 100 100 100 100 100 88 92 98 100 100 100 100 97 100 86 51
100 69 6 91 5 7 96 3 0 0 0 0 1 0 0 0 0 13 77 95 98 100 100 100 100 100 100 100 100 100 100 100 100 100 100 100 100 100 100 100 100 100 100 100 100 100 100 76 84
100 32 79 100 53 8 89 36 0 0 0 5 5 0 0 0 0 0 17 61 78 100 100 100 100 100 100 100 100 100 100 100 100 100 100 100 100 100 100 100 100 100 100 100 100 100 100 86 92
100 100 100 100 8 24 68 100 5 5 0 4 3 0 0 0 0 0 13 91 97 100 100 100 100 100 100 100 100 100 100 100 100 100 100 100 100 100 100 100 100 100 100 100 100 100 100 94 100
100 100 100 100 76 36 100 99 5 4 0 6 5 0 0 0 0 0 6 79 100 100 100 100 100 100 100 100 100 100 100 100 100 100 100 100 100 100 100 100 100 100 100 100 100 100 100 100 100
100 97 100 100 60 90 100 97 5 4 5 5 9 5 0 0 0 0 0 32 100 100 90 100 100 100 100 100 100 100 100 100 100 100 100 100 100 100 100 100 100 100 100 98 100 100 100 100 100
100 100 34 100 5 29 100 100 5 5 5 3 52 5 5 0 0 0 0 5 99 90 94 100 100 100 100 100 100 100 100 100 100 100 100 100 100 100 100 100 100 100 100 100 100 100 100 100 100
100 95 49 100 65 72 100 100 41 5 5 5 88 4 5 5 0 0 0 0 16 93 100 92 89 100 100 100 100 100 100 100 100 100 100 100 100 100 100 100 100 100 100 100 100 100 100 100 100
100 100 52 100 6 99 100 100 59 8 5 5 15 5 21 5 0 3 0 0 0 94 100 99 65 100 100 100 96 100 100 100 100 100 100 100 100 100 100 100 100 100 100 100 100 100 100 100 100
100 100 100 100 35 100 100 38 98 16 55 71 49 5 16 4 5 2 4 0 0 17 98 99 86 64 100 100 100 100 98 100 100 100 100 100 100 100 100 100 100 100 100 100 100 100 100 100 100
100 100 100 89 72 100 82 97 100 100 100 100 5 5 5 62 11 2 13 4 0 0 14 100 100 100 53 70 100 100 100 81 100 100 100 100 100 100 100 100 100 100 100 100 100 100 100 100 100
85 100 100 87 97 100 94 100 100 100 100 100 99 6 65 100 76 5 3 19 0 0 0 5 16 23 100 97 98 100 100 100 98 100 87 96 100 100 100 100 100 100 100 100 100 100 100 100 100
100 100 100 5 100 59 100 100 100 100 85 100 100 97 77 100 100 5 5 9 5 0 0 0 0 0 2 65 100 100 100 99 99 100 100 100 100 100 100 100 100 100 100 100 100 100 100 100 100
100 66 100 25 100 100 100 100 100 100 100 100 96 71 7 100 100 5 21 76 8 1 0 0 0 0 0 0 28 75 100 100 100 99 91 81 100 100 82 63 22 5 14 85 88 82 61 95 100
100 100 100 100 100 87 49 100 100 100 100 100 99 8 8 100 100 29 65 100 92 46 4 0 0 0 0 0 0 0 5 16 23 80 74 64 42 64 5 5 6 49 6 5 26 73 100 100 100

GFSSGP_prec_cloud_093.txt.gz
Cloud_Cover
0 0 0 0 0 0 0 0 0 0 0 0 0 0 0 0 0 4 2 0 0 0 0 0 0 0 0 1 12 13 61 51 40 59 100 44 9 5 5 5 75 100 100 100 87 100 87 37 5
3 0 0 0 0 1 40 0 0 0 0 0 0 0 0 3 41 4 0 0 0 0 0 30 0 0 0 0 84 14 45 46 100 100 100 39 10 88 69 97 87 100 100 78 100 99 65 74 95
5 0 0 0 0 0 9 0 0 0 0 0 0 0 0 0 4 0 0 0 0 0 0 0 27 10 0 10 20 100 92 87 100 100 100 61 93 100 96 100 94 100 100 100 100 100 100 100 100
1 0 0 0 0 0 0 0 0 0 0 0 0 0 4 2 0 0 0 0 0 0 0 43 3 12 3 14 90 100 100 100 100 100 96 93 100 92 100 100 100 100 100 100 100 100 99 100 100
5 0 0 0 0 0 0 0 0 0 0 0 2 3 5 5 0 0 0 0 1 4 3 54 6 86 100 100 100 100 100 100 100 100 83 100 100 62 50 100 100 100 100 100 98 100 100 100 97
11 5 0 0 0 0 0 0 0 0 0 1 0 4 4 5 0 0 0 3 41 50 14 98 100 100 100 100 100 100 100 100 100 100 100 63 34 99 100 100 100 100 38 82 100 100 100 100 99
5 42 5 2 0 0 0 0 0 0 0 0 5 24 5 41 0 0 1 73 29 94 90 100 100 100 100 95 100 100 100 100 100 100 100 94 30 64 100 99 60 37 100 100 100 100 100 45 74
41 7 68 5 0 0 0 0 0 0 0 0 0 1 5 2 0 2 5 33 78 62 96 100 100 100 98 93 96 100 100 100 100 100 100 90 81 88 100 40 65 100 100 100 100 100 94 100 73
45 100 18 5 1 0 0 0 0 0 0 0 1 0 1 0 14 1 80 7 12 100 100 100 100 100 100 100 100 100 100 100 100 100 100 94 63 91 100 100 100 100 100 100 100 100 100 96 67
66 100 41 5 5 0 0 0 0 0 0 0 6 100 12 0 3 87 38 7 90 94 100 100 100 100 100 100 100 100 100 100 100 100 100 42 78 68 100 100 100 100 100 100 100 100 23 100 87
5 100 33 9 5 5 0 0 0 0 0 1 8 1 0 0 0 100 97 43 50 77 100 100 98 100 100 100 100 100 100 100 100 100 100 72 51 97 100 100 100 100 100 100 100 98 100 8 57
100 100 100 99 5 13 4 0 0 0 0 0 0 0 0 0 0 5 96 100 100 34 100 100 98 98 100 100 100 100 100 100 100 100 100 80 99 100 100 100 100 100 100 100 96 38 80 7 26
100 100 100 100 54 50 9 0 2 0 0 0 0 0 0 0 0 1 3 97 92 30 100 100 100 100 100 100 100 100 100 100 100 100 100 100 100 100 100 100 100 100 100 84 27 67 61 30 86
100 100 84 100 100 28 5 0 5 6 1 0 0 0 0 0 0 20 3 38 100 81 98 98 100 100 100 100 100 100 100 100 100 100 100 100 100 100 100 100 100 100 41 100 100 74 43 100 76
100 100 98 100 38 7 5 3 5 18 5 0 0 0 0 0 0 0 57 3 100 100 100 100 100 100 100 100 100 100 100 100 100 100 100 100 100 100 100 100 100 59 56 95 90 96 93 99 69
100 100 100 100 76 52 13 5 1 6 5 2 0 0 0 0 0 0 3 7 14 100 93 100 100 100 100 100 100 100 100 100 100 100 100 100 100 100 100 100 100 100 88 99 92 97 98 98 100
100 100 100 100 100 100 59 5 44 94 36 11 0 1 0 0 0 0 0 0 39 97 95 100 100 98 100 100 99 92 100 100 100 100 100 100 100 100 100 98 100 99 83 100 100 100 100 100 100
100 100 100 100 100 100 100 100 82 5 62 18 0 4 0 0 0 0 0 0 65 97 93 100 100 100 100 100 100 100 100 100 100 100 100 100 100 100 100 100 100 100 100 100 100 100 100 100 100
100 98 100 97 100 100 100 100 100 5 100 100 2 2 1 0 0 0 0 0 99 100 100 99 100 100 100 100 100 100 100 100 100 100 100 100 100 100 100 100 100 100 98 91 100 100 100 100 100
100 100 100 100 60 59 100 100 100 86 99 6 5 3 1 0 0 0 0 0 100 100 100 100 99 75 100 100 100 100 100 100 100 100 100 100 100 100 100 100 100 100 100 100 100 100 100 100 100
100 100 100 100 100 84 100 100 100 100 97 5 5 0 1 2 0 0 0 0 95 100 99 98 100 100 98 100 100 100 100 100 100 100 100 100 100 100 100 100 100 100 100 100 100 100 100 100 100
24 100 100 100 99 81 94 100 100 100 99 5 5 3 4 5 0 0 0 0 27 100 71 42 96 100 100 100 100 100 100 100 100 100 100 100 100 100 100 100 100 100 100 100 100 100 100 100 100
10 99 95 100 100 77 46 100 100 100 7 25 5 5 8 0 5 0 0 0 0 86 100 100 94 100 100 99 100 100 100 100 100 100 100 100 100 100 100 100 100 100 100 100 100 100 100 100 100
100 100 95 100 100 88 91 100 100 100 84 91 30 10 5 5 5 0 0 0 0 59 100 100 88 100 100 100 100 100 100 100 100 100 100 100 100 100 100 100 100 100 100 100 100 100 100 100 100
94 100 86 100 100 96 98 100 100 100 56 16 83 20 5 5 5 4 5 0 0 0 97 100 100 99 98 100 100 100 100 100 100 100 100 100 100 100 100 100 100 100 100 100 100 100 100 100 100
99 100 100 98 100 100 100 100 100 100 82 47 100 87 91 5 5 5 5 4 0 0 0 28 83 100 88 99 100 97 100 100 100 100 100 100 100 100 100 100 100 100 100 100 100 100 100 100 100
90 100 100 100 100 100 100 100 100 100 30 98 100 100 100 34 4 5 38 3 0 4 0 0 0 13 92 72 84 96 96 100 100 100 100 100 100 100 100 100 100 100 100 100 100 100 100 100 100
100 100 100 100 71 100 100 100 100 100 99 74 100 99 100 100 77 5 7 5 0 5 1 0 0 0 3 66 100 100 100 100 100 100 100 100 100 100 100 100 100 100 100 100 100 100 100 100 100
100 100 100 100 97 100 100 100 100 100 100 97 75 62 96 100 100 5 21 6 5 60 29 4 0 0 0 1 20 73 34 100 99 100 100 100 100 100 100 100 100 100 100 100 100 100 100 95 82
100 100 100 100 98 100 100 100 100 100 100 100 98 46 22 100 100 49 13 63 3 54 96 62 11 1 1 0 0 14 36 96 100 100 100 70 91 100 100 100 100 53 34 74 12 5 5 13 5

GFSSGP_prec_cloud_096.txt.gz
Cloud_Cover
71 5 4 4 0 0 0 93 3 0 0 0 0 0 0 0 0 1 0 0 0 0 0 0 0 0 0 1 30 31 45 13 8 19 29 79 93 81 5 5 5 5 15 40 94 100 100 98 12
68 0 0 0 0 0 75 85 0 0 0 0 0 0 0 1 51 76 1 0 0 0 0 0 0 0 0 0 14 38 11 98 84 48 100 100 100 64 44 5 5 31 48 81 97 100 100 100 88
44 5 5 5 0 0 5 73 0 0 0 0 0 0 0 0 4 1 0 0 0 0 0 0 0 0 0 0 0 28 81 92 58 100 39 100 99 96 99 5 79 40 100 100 100 99 100 100 96
100 76 5 5 0 0 0 0 0 0 0 0 0 0 0 57 1 0 0 0 0 0 0 9 0 0 0 0 1 25 100 100 100 99 98 100 100 100 100 57 33 100 100 100 100 100 100 100 100
98 100 5 5 4 0 9 0 0 0 0 0 0 0 2 0 3 0 0 0 0 1 3 15 2 9 4 3 12 100 100 100 100 100 100 100 100 100 100 100 70 100 100 100 100 100 100 100 100
100 19 1 5 3 10 0 0 0 0 0 0 0 0 4 58 5 0 0 0 18 24 26 94 64 17 5 54 100 100 100 100 100 100 100 100 100 100 100 73 40 98 100 100 100 100 100 100 100
100 94 50 6 5 5 3 1 0 0 0 0 0 1 34 8 0 0 0 2 4 98 99 88 55 48 15 100 100 100 100 100 100 100 100 100 100 100 99 10 87 97 100 100 100 100 100 100 100
100 100 95 5 5 5 5 4 0 0 0 0 0 0 0 0 0 0 0 96 95 19 93 54 82 99 100 100 100 100 99 100 100 100 100 100 100 100 5 90 100 99 100 100 100 100 100 100 100
89 99 78 23 5 82 16 5 1 0 0 0 0 0 7 14 0 0 1 23 5 8 54 78 100 100 100 100 63 86 93 100 100 100 100 100 100 90 34 100 69 100 100 100 100 100 100 100 100
6 98 100 100 64 98 43 5 5 0 0 0 0 5 18 0 0 0 97 22 62 100 100 100 100 100 100 100 100 100 97 100 100 100 100 100 100 23 100 9 6 56 99 100 100 100 100 100 100
0 14 99 100 3 44 28 8 5 4 0 0 0 5 0 0 0 0 2 94 62 35 100 100 100 100 100 100 100 100 100 100 100 100 100 100 100 100 94 69 30 54 100 100 100 100 100 91 100
0 0 79 100 52 75 100 100 5 8 0 0 0 0 0 0 0 0 0 100 94 100 96 100 100 100 100 100 100 100 100 100 100 100 100 100 100 90 65 92 44 100 100 100 100 100 100 92 99
2 0 1 38 65 93 100 100 100 6 5 0 5 0 0 0 0 0 0 19 100 100 34 100 100 100 100 100 100 100 100 100 100 100 100 100 100 100 99 88 68 96 99 100 100 100 100 73 59
5 0 0 100 100 99 98 100 100 8 5 0 0 5 1 0 0 0 0 0 74 100 88 94 96 98 100 100 100 100 100 100 100 100 100 100 100 100 100 73 96 100 100 100 100 100 77 43 98
2 4 0 91 100 8 31 100 100 27 5 0 0 5 3 0 0 0 0 0 20 100 100 58 100 92 100 100 100 100 100 100 100 100 100 100 100 100 100 42 94 100 100 100 100 100 94 99 99
0 0 0 99 38 44 99 97 100 11 40 0 0 5 5 0 0 0 0 0 0 82 45 100 100 100 100 100 100 100 100 100 100 100 100 100 100 100 100 100 98 100 99 98 100 100 100 100 100
2 0 1 96 100 28 90 100 100 100 90 2 0 1 3 3 0 0 0 0 0 44 100 86 100 95 99 100 100 100 100 100 100 100 100 100 100 100 100 100 100 100 100 98 100 100 100 100 100
5 4 57 4 100 13 92 100 100 100 99 93 100 7 76 71 1 0 0 0 0 10 100 100 100 100 90 100 100 100 100 100 100 100 100 100 100 100 100 100 100 100 100 100 100 100 100 100 100
100 20 5 51 100 100 100 100 100 100 98 96 100 5 100 17 4 0 0 0 0 98 85 99 100 100 100 100 100 100 100 100 100 100 100 100 100 100 100 100 100 100 100 100 100 100 91 100 100
95 58 10 60 100 100 66 85 100 100 100 100 100 85 98 5 1 0 0 0 0 100 100 100 100 95 100 100 100 100 100 100 100 100 100 100 100 100 100 100 100 100 100 100 100 100 100 100 100
8 72 92 99 100 99 29 73 100 100 100 100 100 100 60 4 1 0 0 0 0 100 100 100 100 100 100 100 100 100 100 100 100 100 100 100 100 100 100 100 100 100 100 100 100 98 93 98 100
47 100 100 100 100 17 100 71 100 100 100 57 100 100 53 4 0 0 0 0 0 100 100 100 100 100 96 100 100 100 100 100 100 100 100 100 100 100 100 100 100 100 100 100 100 100 100 100 100
60 100 100 100 91 99 62 50 79 100 100 59 91 100 7 1 4 0 0 0 0 53 91 100 100 100 100 100 99 100 100 100 100 100 100 100 100 100 100 100 100 100 100 100 100 100 100 100 100
100 100 65 96 100 66 90 85 84 100 60 98 100 100 18 5 4 2 0 0 0 23 100 100 100 97 99 100 100 100 100 100 100 100 100 100 100 100 100 100 100 100 100 100 100 100 100 100 100
100 100 100 100 98 34 76 84 92 100 88 99 100 100 100 15 5 2 0 0 0 0 99 100 100 100 96 100 100 100 100 100 100 100 100 100 100 100 100 100 100 100 100 100 100 100 100 100 100
100 100 100 99 52 67 96 90 77 100 100 100 100 100 100 5 5 27 4 0 0 0 24 100 51 100 100 100 100 100 100 100 100 100 100 100 100 100 100 100 100 100 100 100 100 100 100 100 100
100 95 98 100 96 97 62 52 100 100 100 100 100 100 100 12 59 100 100 0 0 0 0 0 75 17 95 100 100 100 100 100 100 100 100 100 100 100 100 100 100 100 100 100 100 100 100 100 100
100 100 99 9 35 75 100 100 100 100 100 100 100 100 99 57 100 100 100 68 0 0 1 0 0 8 11 100 90 97 16 78 96 100 100 100 100 100 100 100 100 100 100 100 100 100 100 100 100
100 100 43 99 48 12 100 100 100 99 100 100 100 100 96 100 100 100 100 100 100 0 4 0 1 0 9 79 65 83 28 0 47 80 100 100 100 100 100 100 100 100 100 100 100 100 100 100 100
100 92 100 100 100 99 100 100 100 100 100 100 100 100 89 100 99 97 100 100 100 0 5 0 4 2 1 2 92 100 80 30 47 97 32 100 99 100 100 100 100 100 100 100 100 100 100 100 100

GFSSGP_prec_cloud_099.txt.gz
Cloud_Cover
0 2 4 96 86 3 0 0 0 0 0 0 0 0 0 0 0 0 0 0 0 0 0 0 0 0 0 0 0 4 5 3 5 5 5 5 4 4 5 0 1 0 6 80 100 100 94 75 90
0 0 0 0 0 1 1 2 4 0 0 0 0 0 0 0 0 0 0 0 0 0 0 0 0 0 0 0 0 40 5 57 79 37 100 50 22 5 5 5 5 5 28 100 100 100 84 100 80
0 0 0 5 43 5 4 0 0 0 0 0 0 0 0 0 0 0 0 0 0 0 0 0 0 0 0 0 0 0 80 14 97 22 5 96 42 89 24 80 21 8 45 100 100 65 97 100 100
0 0 0 3 29 26 6 1 0 0 0 0 0 0 0 0 0 0 0 0 0 0 0 0 0 3 0 0 0 0 41 100 31 97 29 99 97 100 84 100 38 5 83 99 100 5 36 29 88
0 0 0 5 12 53 0 3 0 0 0 0 0 0 0 0 0 0 0 0 0 0 2 100 84 11 99 16 0 2 56 81 100 100 100 100 100 100 100 89 96 7 30 99 64 57 100 100 62
0 0 0 27 90 4 1 1 0 0 0 0 0 0 0 0 0 0 0 0 0 0 5 2 55 100 100 100 5 2 63 100 100 100 100 100 100 100 100 100 90 87 8 99 99 100 100 100 71
0 0 0 3 74 99 42 21 7 0 0 0 0 0 0 0 0 0 0 0 0 0 0 91 100 99 30 64 25 96 100 100 100 100 100 100 100 100 100 99 96 87 36 18 100 100 100 100 91
0 0 0 0 32 70 87 5 5 5 5 2 0 0 0 0 0 0 0 0 0 0 4 4 100 100 100 70 100 100 100 100 97 100 100 100 100 100 100 100 100 98 98 53 100 100 100 100 100
0 0 0 0 0 3 4 29 5 34 21 5 0 0 0 0 0 0 0 0 0 0 99 100 100 100 100 100 100 100 100 98 80 100 15 100 100 100 100 100 100 61 100 56 98 100 100 100 100
0 0 0 0 0 34 84 100 94 73 5 5 5 3 0 0 0 0 0 0 0 1 7 100 100 100 100 100 100 100 100 92 100 100 82 100 99 100 100 100 66 28 45 100 100 100 100 100 100
0 0 0 2 0 0 13 5 5 3 5 31 7 5 1 0 0 0 0 0 0 88 33 100 100 100 100 100 100 100 100 100 100 100 100 100 100 100 100 98 41 51 100 100 100 100 100 100 100
0 2 0 0 2 0 0 4 100 25 86 100 99 5 3 0 0 0 0 0 0 3 3 100 100 100 100 100 100 100 100 100 100 100 100 100 100 100 100 100 68 53 63 95 100 100 100 100 100
0 0 0 3 3 1 0 2 5 100 24 100 100 5 0 0 0 0 0 0 0 0 17 29 100 100 100 100 100 100 100 100 100 100 100 100 100 100 100 100 32 8 23 73 100 100 100 100 92
7 3 0 1 5 0 0 0 0 100 5 99 100 100 3 0 0 0 0 0 0 0 38 67 37 100 100 100 100 100 100 100 100 100 100 100 100 100 100 48 62 16 56 99 97 100 100 100 77
99 1 0 54 5 5 0 0 18 100 5 60 100 9 5 0 0 0 0 0 0 0 0 7 19 100 100 100 100 100 100 100 100 100 100 100 100 100 100 94 100 69 93 98 96 100 100 99 96
8 1 4 46 1 0 35 0 79 96 9 96 100 79 44 0 0 0 0 0 0 0 2 2 8 50 100 100 100 100 100 100 100 100 100 100 100 100 100 100 100 100 100 100 100 100 100 99 100
94 91 2 0 0 5 61 0 5 92 5 100 100 100 100 0 12 0 37 0 0 0 13 14 81 50 98 100 100 100 100 100 100 100 100 100 100 100 100 100 100 100 100 100 100 100 100 90 94
98 1 0 0 5 99 4 3 21 88 5 83 100 100 100 57 67 6 58 0 0 0 0 4 48 40 100 100 100 100 100 100 100 100 100 100 100 100 100 100 100 100 100 100 100 100 100 96 97
6 5 0 0 5 90 2 15 18 95 18 72 100 100 100 8 100 52 15 0 0 0 6 19 59 100 97 100 100 100 100 100 100 100 100 100 100 100 100 100 100 100 100 100 100 100 100 100 100
78 4 8 0 5 100 8 0 7 70 100 44 50 100 100 33 100 100 100 0 0 0 100 73 79 100 93 100 100 100 100 100 100 100 100 100 100 100 100 100 100 100 100 100 100 100 100 100 98
72 5 4 4 5 17 16 0 4 47 100 37 5 89 100 100 100 100 87 0 0 0 100 100 48 1 99 100 100 100 100 100 100 100 100 100 100 100 100 100 100 100 100 100 100 100 95 98 100
0 0 4 24 96 9 100 11 0 16 100 87 5 60 99 5 100 100 9 0 0 19 100 100 92 40 66 63 100 100 100 100 100 100 100 100 100 100 100 100 100 100 100 100 100 100 100 100 100
0 6 8 69 6 5 89 19 5 17 100 100 64 41 100 10 73 100 18 0 0 19 100 100 75 100 100 14 100 100 100 100 100 100 100 100 100 100 100 100 100 100 100 100 100 100 100 100 100
20 72 90 83 46 23 83 76 33 100 100 100 95 8 100 98 77 94 46 3 0 0 100 100 100 100 100 100 89 100 100 100 100 100 100 100 100 100 100 100 100 100 100 100 100 100 100 100 100
5 43 89 79 58 3 99 83 100 100 100 100 100 5 90 100 100 93 52 4 0 0 59 100 100 100 100 100 100 100 100 100 100 100 100 100 100 100 100 100 100 100 100 100 100 100 100 100 100
5 95 69 15 3 51 100 39 100 100 88 100 100 100 55 100 100 100 100 5 61 25 0 97 100 100 100 100 100 100 98 100 100 100 100 100 100 100 100 100 100 100 100 100 100 100 100 100 100
10 31 25 100 100 67 85 73 100 100 100 100 100 99 46 100 99 100 100 39 25 100 1 0 63 100 100 100 100 100 100 93 100 100 100 100 100 100 100 100 100 100 100 100 100 100 100 100 100
92 86 90 99 100 79 99 100 100 100 81 100 98 100 98 100 99 100 100 52 100 100 43 0 0 99 100 100 100 100 100 100 100 100 100 100 100 100 100 100 100 100 100 100 100 100 100 100 100
100 100 73 77 100 100 100 100 100 100 100 100 100 100 100 100 100 100 100 98 100 100 100 100 0 11 39 100 100 100 100 85 75 94 100 100 100 100 100 100 100 100 100 100 100 100 100 100 100
100 100 100 100 100 100 100 100 100 100 100 100 100 100 100 99 100 100 100 100 100 97 100 100 0 0 0 17 100 100 100 54 48 4 12 100 100 100 100 100 100 100 100 100 100 100 100 100 100

GFSSGP_prec_cloud_102.txt.gz
Cloud_Cover
0 0 0 0 0 0 0 0 0 0 0 0 0 0 0 0 0 0 0 0 0 0 29 0 0 0 0 0 0 1 0 55 100 53 10 10 91 0 0 0 4 0 32 100 56 96 100 100 46
0 0 0 0 0 0 0 0 0 0 0 0 0 0 0 0 0 0 0 0 0 0 20 10 0 0 0 0 0 0 11 1 12 95 86 5 5 5 5 0 0 0 1 100 100 100 99 18 98
0 0 0 0 0 0 0 0 0 2 0 0 0 0 0 0 0 0 0 0 0 0 0 2 0 0 0 3 0 0 58 88 94 82 68 51 85 82 5 1 0 4 6 100 100 100 23 90 100
0 0 0 0 0 0 0 0 5 4 0 0 0 0 0 0 0 0 0 0 0 0 0 0 0 0 0 5 5 4 39 75 100 54 34 100 30 100 37 92 57 35 97 100 100 38 36 99 5
0 0 0 0 0 0 0 0 63 20 0 0 0 0 0 0 0 0 0 0 0 0 0 0 0 4 39 5 98 51 73 50 97 93 61 100 99 100 100 86 100 100 90 100 56 82 90 96 19
0 0 0 0 0 0 0 0 9 5 0 3 0 0 0 0 0 0 0 0 0 1 6 0 0 5 24 23 51 73 85 7 95 100 100 100 100 100 100 100 100 100 90 96 92 67 13 90 100
0 0 0 0 0 0 0 0 16 99 5 5 0 0 0 0 0 0 0 0 0 0 15 20 8 33 100 100 98 57 35 2 100 100 100 100 100 100 100 100 100 100 100 55 27 28 99 100 100
0 0 0 0 0 0 0 0 0 100 42 0 0 5 5 3 0 0 0 0 0 0 5 16 13 100 8 100 100 100 100 18 100 100 100 100 100 100 100 100 100 100 100 100 20 97 100 100 100
0 0 0 0 0 0 0 0 0 0 57 7 5 5 5 5 26 0 0 0 0 0 0 1 5 100 100 94 100 100 100 100 100 100 100 100 100 100 100 100 100 100 100 27 99 100 91 99 100
0 0 0 0 0 0 0 0 0 0 5 81 95 5 0 5 23 2 0 0 0 0 0 0 5 100 87 100 100 100 100 100 100 100 100 100 100 100 100 100 100 100 99 52 74 100 5 78 100
4 5 0 0 0 0 0 0 0 1 0 4 4 4 1 10 5 5 0 0 0 0 0 0 0 69 98 100 100 100 100 98 100 100 96 100 100 100 100 96 100 100 37 10 61 32 96 100 100
94 6 1 0 0 0 0 1 0 1 0 0 0 5 17 100 5 0 0 0 0 0 0 0 0 18 100 100 99 100 100 100 100 100 100 100 99 100 100 100 100 72 100 43 90 80 100 100 100
100 74 0 0 0 13 0 5 2 1 1 0 0 0 7 99 5 6 0 0 0 0 0 0 0 4 34 100 100 100 100 100 100 100 100 100 100 100 100 100 100 100 99 56 90 98 100 100 100
100 5 11 2 1 100 60 0 4 27 5 0 0 0 1 52 77 6 0 0 0 0 0 3 0 0 5 100 100 100 100 100 100 100 100 100 100 100 100 100 98 100 34 58 72 76 99 100 100
100 14 6 86 95 64 66 3 5 5 2 0 0 1 3 91 93 32 2 0 0 0 4 3 0 0 2 80 100 100 100 100 100 100 100 100 100 100 100 100 100 100 25 11 32 99 86 100 100
100 100 100 99 98 84 13 2 5 0 0 0 0 5 33 7 83 4 5 0 5 32 20 18 7 0 39 48 98 100 100 100 100 100 100 100 100 100 100 99 100 100 41 94 81 9 86 99 100
100 100 99 85 93 98 48 0 3 3 2 1 0 0 5 38 100 8 6 28 35 4 34 20 9 1 10 38 86 100 100 100 100 100 100 100 100 100 100 100 100 100 32 100 39 89 86 100 99
100 97 77 28 100 76 68 0 0 3 4 0 0 5 11 5 90 44 53 98 70 7 5 13 27 8 91 98 100 100 100 100 100 100 100 100 100 100 100 100 100 100 100 100 97 96 99 100 100
100 91 39 100 100 95 54 5 0 3 5 0 2 30 18 8 100 93 3 100 100 24 31 23 30 17 95 100 100 100 100 100 100 100 100 100 100 100 100 100 100 100 100 97 100 100 100 100 100
9 5 17 100 100 68 12 3 18 5 46 10 0 63 63 27 100 93 4 98 100 76 20 37 24 55 100 100 95 100 100 100 100 100 100 100 100 100 100 100 100 100 100 100 100 100 100 100 100
94 98 99 96 100 5 5 5 70 94 11 56 31 100 97 95 100 100 10 100 100 52 21 44 51 90 86 100 95 95 100 100 100 100 100 100 100 100 100 100 100 100 100 100 92 100 100 97 96
7 96 89 99 100 100 99 10 6 32 3 43 4 99 81 100 100 100 5 97 100 10 0 4 30 20 18 100 100 100 100 100 100 100 100 100 100 100 100 100 100 100 100 100 100 100 100 100 100
23 100 90 24 5 0 3 4 96 32 0 6 5 98 90 96 100 100 90 86 31 15 2 0 17 42 33 27 100 100 100 100 100 100 100 100 100 100 100 100 100 100 100 100 100 100 100 100 100
34 75 8 12 5 5 28 3 5 18 15 26 5 99 100 84 100 100 100 93 21 12 4 0 34 51 21 96 100 100 100 100 100 100 100 100 100 100 100 100 100 100 100 100 100 100 100 100 100
10 49 83 82 81 15 69 1 2 1 49 1 29 99 100 99 66 82 100 24 27 5 5 17 35 34 67 54 100 100 100 100 100 100 100 100 100 100 100 100 100 100 100 100 100 100 100 100 100
46 35 17 27 5 5 3 0 5 3 5 55 91 100 100 100 100 9 100 8 28 38 4 22 39 28 91 74 51 62 97 100 100 100 100 100 100 100 100 100 100 100 100 100 100 100 100 100 100
5 28 89 100 7 1 4 1 0 71 83 80 99 89 100 100 100 95 93 5 33 81 5 100 20 9 90 100 100 65 79 95 98 100 100 100 100 100 100 100 100 100 100 100 100 100 100 100 100
0 19 63 17 16 6 4 0 1 17 100 100 100 100 100 100 100 100 30 5 11 100 5 95 41 1 28 100 100 100 100 86 32 99 100 100 100 100 100 100 100 100 100 100 100 100 100 100 100
0 2 100 97 61 2 3 2 59 79 100 100 100 82 65 73 99 98 85 29 99 100 75 45 100 100 98 100 100 100 100 100 38 57 100 100 100 100 100 100 100 100 100 100 100 100 100 100 100
4 66 100 24 12 44 57 4 38 97 100 100 100 92 100 64 10 100 99 62 66 100 97 60 100 100 100 38 100 100 100 89 58 32 87 79 52 29 100 100 100 100 100 100 100 100 100 100 100

GFSSGP_prec_cloud_105.txt.gz
Cloud_Cover
0 0 0 0 0 0 0 0 0 0 0 0 0 0 0 0 0 0 0 0 0 12 50 6 0 0 0 0 0 0 0 24 76 67 96 38 13 65 5 0 0 0 5 71 2 0 100 100 50
0 0 0 0 0 0 0 0 0 0 0 0 0 0 0 0 0 0 0 0 0 4 36 11 0 0 0 0 0 0 76 48 63 7 92 5 76 5 10 5 0 0 100 13 0 57 99 95 71
0 0 0 0 0 0 0 0 0 0 0 0 0 0 0 0 0 0 0 0 0 0 30 5 0 0 0 0 1 0 0 91 100 5 5 15 68 23 93 31 1 1 100 96 1 81 39 100 96
0 0 0 0 0 0 0 0 0 0 0 0 0 0 0 0 0 0 0 0 0 0 10 13 0 0 0 4 24 0 0 0 52 47 100 22 52 88 60 66 5 5 6 97 5 20 50 94 83
0 0 0 0 0 0 0 0 0 0 0 0 1 0 0 0 0 0 0 0 0 0 0 7 2 0 0 2 8 13 5 5 6 68 100 100 95 79 100 54 17 100 58 95 10 18 10 100 25
0 0 3 0 0 0 0 0 0 0 0 0 3 2 5 5 3 0 0 0 0 4 9 13 33 1 0 4 0 2 11 76 86 60 100 100 100 100 100 100 100 100 100 98 84 61 100 45 50
0 0 13 5 0 0 0 0 0 0 0 0 0 58 31 0 0 4 2 0 0 4 23 20 27 24 31 73 84 58 91 67 100 33 100 100 100 100 100 100 100 100 100 94 100 88 94 79 74
0 0 62 23 2 0 0 0 0 0 0 0 0 0 2 5 0 5 5 0 0 15 18 30 29 25 52 73 48 45 100 100 100 100 100 100 98 100 100 100 100 100 100 100 100 100 11 98 7
0 0 88 79 9 0 0 0 0 0 0 0 0 0 0 25 95 8 5 0 0 9 24 30 30 18 15 23 21 56 100 100 100 100 100 100 100 100 100 100 100 100 100 98 89 57 16 96 5
0 0 62 100 84 2 2 0 0 0 0 0 0 0 0 0 14 99 21 0 5 0 8 29 22 20 24 46 61 68 100 100 100 100 100 100 100 100 100 67 74 100 100 98 84 11 13 18 29
1 0 2 99 73 76 100 3 0 0 0 0 0 0 0 0 3 4 4 4 5 0 0 9 5 20 72 79 100 78 100 100 100 100 100 100 100 100 100 100 100 100 100 99 70 48 52 80 92
0 0 43 99 78 87 100 94 0 0 0 0 0 0 0 0 0 8 100 6 5 0 0 0 0 85 100 100 100 100 97 100 100 100 100 100 100 100 88 86 100 100 92 100 99 48 87 100 80
0 7 92 84 26 100 100 100 0 0 0 0 0 0 3 0 0 3 56 58 22 0 1 0 6 63 100 100 100 84 100 100 100 100 100 100 100 100 100 98 100 96 100 92 100 100 96 99 86
97 6 92 8 87 100 100 30 0 32 0 0 0 4 2 0 0 0 0 100 41 2 0 5 22 27 49 98 100 100 100 100 100 100 100 100 100 100 100 100 100 100 100 100 100 54 99 99 97
67 35 62 100 100 100 69 13 6 0 0 0 5 24 4 5 0 4 1 99 90 4 1 17 14 8 20 39 100 100 100 100 100 100 100 100 100 100 100 100 100 98 92 100 91 23 32 87 50
100 100 100 98 100 100 69 21 19 4 0 0 5 6 5 5 0 3 5 71 100 19 10 20 17 21 17 35 94 100 100 100 100 100 100 100 100 100 100 100 100 90 100 74 81 88 100 50 59
14 100 100 100 100 100 31 1 100 5 0 1 5 96 23 46 0 5 5 1 18 24 16 40 32 20 30 34 88 100 100 100 100 100 100 100 100 100 100 100 100 100 100 100 53 46 27 62 89
100 88 97 100 100 57 76 18 5 53 0 5 6 100 87 100 3 0 56 6 98 28 19 26 33 14 21 33 100 99 100 100 100 100 100 100 100 100 100 100 99 100 89 36 81 52 80 8 65
0 0 0 12 100 100 91 1 3 0 3 5 99 64 100 100 8 49 97 27 100 56 40 37 60 32 50 96 100 99 100 100 100 100 100 100 100 100 100 100 100 100 100 100 100 100 100 100 100
0 0 1 14 100 100 99 0 0 0 5 5 79 90 100 87 0 100 100 54 49 93 37 100 61 67 41 18 59 72 87 100 100 100 100 100 100 100 100 100 100 100 100 100 100 100 100 100 100
0 3 7 16 100 76 3 0 4 5 5 5 6 86 100 20 6 49 100 38 45 71 72 59 60 91 25 7 76 98 99 100 100 100 100 100 100 100 100 100 100 100 100 100 85 79 100 100 100
0 3 5 2 7 3 83 0 5 15 98 99 100 78 28 1 5 100 100 53 72 100 45 44 100 51 6 69 64 77 100 100 100 100 100 100 100 100 100 100 100 100 86 100 99 100 100 100 100
3 0 0 0 1 0 3 2 65 100 100 100 30 5 19 5 89 100 100 46 94 100 70 92 85 28 25 16 88 100 87 64 100 100 100 100 100 100 100 100 100 100 100 100 100 100 100 100 100
52 2 0 0 2 0 5 7 13 99 97 10 5 15 22 0 29 100 100 100 96 49 76 97 100 100 79 31 74 77 78 100 100 100 100 100 100 100 100 100 100 100 100 100 100 100 100 100 100
18 31 24 4 0 0 47 84 90 16 51 6 4 17 8 0 5 100 100 100 100 92 71 96 100 100 100 100 92 100 97 100 100 100 100 100 100 100 100 100 100 100 100 100 100 100 100 100 100
100 100 95 5 0 4 10 1 5 47 100 59 5 10 0 0 32 100 100 100 100 72 70 79 100 100 100 100 100 100 100 100 100 100 100 100 100 100 100 100 100 100 100 100 100 100 100 100 100
96 98 93 5 5 4 0 0 4 38 14 5 11 4 0 5 100 100 96 87 99 100 65 82 100 100 100 45 96 100 100 100 100 100 100 100 100 100 100 100 100 100 100 100 100 100 100 100 100
12 28 4 3 5 9 3 0 5 97 45 89 100 12 5 26 100 100 78 38 50 76 66 83 79 57 71 40 15 19 76 100 100 100 100 100 100 100 100 100 100 100 100 100 100 100 100 100 100
0 0 1 65 76 5 4 4 94 99 100 32 81 57 91 100 100 100 99 6 18 63 45 70 65 49 38 47 52 5 29 88 92 97 100 100 100 100 100 100 100 100 100 100 100 100 100 100 100
0 0 0 5 8 5 5 39 100 80 6 5 7 99 100 100 100 100 100 8 100 100 85 100 90 35 100 100 100 28 0 20 74 93 100 100 100 100 100 100 100 100 100 100 100 100 100 100 100

GFSSGP_prec_cloud_108.txt.gz
Cloud_Cover
0 0 0 0 0 0 0 0 0 0 0 0 0 0 0 0 0 0 0 0 0 0 11 16 99 26 13 0 0 0 2 7 99 56 29 30 34 100 13 16 1 4 7 62 1 0 3 63 2
0 0 0 0 0 0 0 0 0 0 0 0 0 0 0 0 0 0 0 0 0 9 51 45 15 27 20 7 0 1 1 13 38 55 39 14 95 94 16 5 5 5 97 78 0 0 36 37 5
0 0 0 0 0 0 0 0 0 0 0 0 0 0 0 0 0 0 0 0 0 11 24 14 4 10 2 7 8 0 34 80 90 4 79 19 53 99 9 39 5 5 0 1 5 4 94 22 82
5 2 0 0 0 0 0 0 0 0 0 0 0 0 3 5 0 0 0 0 0 12 20 2 0 12 1 28 4 0 0 0 8 3 96 90 4 100 74 89 5 5 0 14 3 41 36 14 60
5 5 0 0 0 0 0 0 0 0 0 0 0 0 0 16 2 0 0 0 0 15 36 15 0 0 3 1 62 14 5 4 96 66 97 100 100 90 62 65 14 37 11 0 5 42 39 36 12
5 5 5 1 0 0 0 0 0 0 0 0 0 0 0 8 17 23 2 0 0 12 19 24 7 0 2 1 68 58 0 75 100 41 94 100 99 100 100 100 100 100 100 1 47 40 27 82 66
17 5 25 3 0 0 0 0 0 0 0 0 0 0 0 0 9 32 5 5 0 4 15 28 46 7 0 9 5 54 0 100 100 100 100 95 100 100 100 100 100 100 100 99 37 63 99 90 52
9 2 5 0 5 0 0 0 0 0 0 0 0 0 0 0 0 0 0 0 5 26 20 30 51 43 49 100 38 14 4 100 100 100 100 100 100 100 100 100 100 100 100 99 100 100 100 95 5
81 5 5 4 5 0 0 0 0 1 0 0 0 0 0 0 0 0 0 0 3 43 42 36 43 52 98 100 85 30 80 100 100 100 100 100 100 100 100 100 100 100 100 100 100 100 100 38 20
64 10 9 5 1 0 0 0 0 0 44 18 0 0 0 0 0 0 0 0 0 29 42 41 37 45 49 82 69 100 100 100 100 100 100 100 100 100 100 98 100 100 100 100 92 100 100 8 5
99 21 32 17 4 0 0 0 0 2 92 22 5 0 0 0 0 0 0 0 0 0 18 62 38 28 39 100 100 100 100 100 100 100 100 100 100 93 100 100 100 100 100 98 100 92 100 37 8
97 7 26 91 5 0 0 0 0 1 100 8 9 4 0 0 0 0 0 0 0 0 3 43 30 43 98 100 100 100 100 100 100 100 99 84 100 99 100 98 100 100 100 98 93 72 92 35 99
5 39 5 5 1 5 0 59 76 5 87 0 5 5 0 0 1 5 5 0 0 0 0 8 21 93 100 100 100 100 100 100 100 100 100 100 100 86 96 99 100 100 100 100 91 100 99 89 88
13 5 5 6 28 64 86 100 1 22 2 0 3 8 4 0 5 5 4 0 0 0 0 30 73 66 100 100 100 100 100 100 100 100 100 100 100 100 97 100 100 100 100 100 100 98 84 100 100
57 58 64 99 71 100 100 3 32 100 2 0 0 60 7 5 5 56 5 0 0 0 1 28 43 36 100 100 100 100 100 100 100 100 100 100 82 100 100 100 100 100 100 100 90 94 98 99 68
100 70 100 97 100 100 100 6 96 92 2 0 36 8 4 5 78 60 2 0 0 4 9 89 88 47 87 100 100 100 100 100 100 100 100 100 100 100 100 100 100 100 100 100 100 99 100 70 100
57 100 100 100 100 100 100 5 74 86 65 67 79 35 4 5 95 90 6 2 0 0 12 24 31 36 37 46 97 100 92 100 100 100 100 100 100 100 100 100 100 100 100 100 100 100 99 26 100
100 95 100 100 100 12 3 75 100 100 75 31 4 9 2 5 64 22 5 4 7 10 10 60 55 87 36 63 86 100 100 100 100 100 100 100 100 100 100 100 100 100 100 100 99 87 100 100 63
40 5 5 63 36 69 89 74 2 2 4 0 0 1 3 0 65 45 12 41 56 47 47 55 84 64 88 100 100 100 100 100 100 100 100 100 100 100 100 100 100 100 100 100 100 100 100 100 5
5 5 17 7 6 14 59 3 0 0 4 29 5 8 5 5 9 5 31 99 97 96 73 74 98 99 100 100 100 100 97 98 100 100 100 100 100 100 100 100 100 100 100 100 100 100 100 82 16
54 28 15 21 5 12 4 4 0 2 5 19 100 100 39 5 4 13 94 37 95 100 100 100 89 99 100 77 100 98 91 100 100 100 100 100 100 100 100 100 100 100 100 100 100 100 99 100 95
100 100 100 100 6 5 3 1 0 4 48 58 100 100 3 0 3 8 99 30 73 100 99 73 32 100 81 65 97 89 98 100 100 100 100 100 100 100 100 100 100 100 100 100 100 100 60 100 83
98 100 100 100 65 5 0 0 87 94 69 100 99 5 3 0 81 100 91 12 40 100 87 81 88 100 50 27 9 99 91 100 100 100 100 100 100 100 100 100 100 100 100 100 100 100 100 100 100
66 42 89 98 19 0 1 4 1 33 72 88 6 5 4 5 61 58 5 75 100 100 97 100 100 100 30 44 13 86 100 89 100 100 100 100 100 100 100 100 100 100 100 100 100 100 100 100 100
100 91 32 100 98 12 89 77 0 9 32 4 4 1 2 5 14 5 39 48 80 100 100 100 100 100 100 29 76 50 70 78 100 100 100 100 100 100 100 100 100 100 100 100 100 100 100 100 100
100 100 100 100 100 97 70 11 2 5 2 5 55 6 13 5 2 5 5 20 100 100 100 100 100 100 100 42 100 100 100 74 100 100 100 100 100 100 100 100 100 100 100 100 100 100 100 100 100
100 92 100 100 100 98 77 5 5 6 5 5 5 5 5 5 4 5 1 2 100 100 100 100 100 100 100 96 100 100 97 100 100 100 100 100 100 100 100 100 100 100 100 100 100 100 100 100 100
1 76 100 100 100 88 70 99 100 100 96 1 1 4 5 5 5 16 5 30 100 100 100 100 100 100 100 100 100 100 100 99 100 100 100 100 100 100 100 100 100 100 100 100 100 100 100 100 100
0 0 1 2 4 14 100 100 100 100 100 5 1 5 53 8 65 61 2 99 100 100 100 100 100 100 100 100 100 100 99 98 92 100 100 100 100 100 100 100 100 100 100 100 100 100 100 100 100
5 4 0 5 5 3 6 79 100 100 100 78 0 5 14 76 36 100 100 100 100 100 100 100 100 100 100 100 100 83 53 94 100 100 100 100 100 100 100 100 100 100 100 100 100 100 100 100 100

GFSSGP_prec_cloud_111.txt.gz
Cloud_Cover
0 0 0 0 0 0 0 0 0 0 0 0 0 0 0 0 0 0 0 0 0 0 0 0 0 94 86 8 28 1 20 0 0 0 16 2 8 76 100 13 5 6 56 12 0 0 7 25 5
0 0 0 0 0 0 0 0 0 0 0 0 0 0 0 0 0 0 0 0 0 0 0 0 0 54 89 0 3 4 5 8 14 29 10 14 92 100 63 78 20 8 5 67 0 8 100 18 5
0 0 0 0 0 0 0 0 0 0 0 0 0 0 0 0 0 0 0 0 0 0 0 0 23 90 100 0 1 36 80 66 2 0 25 1 87 70 100 99 31 94 5 5 9 11 23 5 5
5 0 4 2 0 0 0 0 0 0 0 0 0 0 0 0 0 0 0 0 0 0 0 25 1 27 100 0 0 2 73 100 0 56 79 56 100 100 100 70 78 20 5 6 8 33 23 5 48
5 8 12 5 0 0 0 0 0 0 0 0 0 0 0 0 0 0 0 0 0 0 0 0 0 0 85 93 1 0 2 96 52 100 89 57 100 100 100 88 99 42 5 2 12 24 7 8 95
5 5 5 5 3 0 0 0 0 0 0 0 0 0 0 0 0 0 0 0 0 0 0 5 11 0 19 93 100 3 0 0 50 100 100 97 100 100 77 88 100 65 84 81 5 18 5 8 94
5 54 10 10 5 2 0 0 0 0 0 0 0 0 0 0 0 0 0 0 0 0 0 13 16 13 18 40 100 80 0 0 52 100 100 96 96 100 100 100 100 100 100 100 100 26 35 90 98
5 7 67 86 50 0 0 0 0 0 0 0 0 0 0 0 0 0 0 0 0 0 0 0 21 35 58 59 8 97 0 0 6 99 78 100 100 100 100 100 100 100 100 100 100 26 5 98 100
100 97 100 100 100 19 0 0 0 0 0 0 0 0 0 5 23 0 0 0 0 16 1 0 46 63 96 100 36 23 17 0 0 90 98 75 99 100 100 92 100 37 100 100 100 52 100 100 100
94 86 100 100 100 42 0 0 0 1 1 0 0 0 0 6 96 26 2 0 0 1 63 21 38 92 100 100 89 90 97 96 75 5 100 62 86 95 100 96 100 78 100 100 100 100 100 99 100
100 99 100 100 100 89 5 1 0 5 0 0 0 0 0 5 66 94 14 0 0 0 1 40 42 68 100 100 84 100 100 100 100 92 100 96 100 84 83 98 100 93 100 96 100 100 100 99 20
100 100 100 100 100 41 6 4 5 5 5 5 0 0 0 0 9 100 92 0 2 5 0 0 31 64 95 100 100 100 100 100 100 100 100 100 100 97 14 96 100 100 100 100 100 100 100 90 60
100 100 100 100 100 100 96 56 15 5 6 5 0 0 5 0 25 100 74 3 29 45 5 0 8 56 98 100 100 100 100 100 100 100 100 100 100 100 41 99 100 95 100 100 99 100 100 99 88
93 98 100 73 21 79 98 100 5 29 18 0 0 1 5 5 5 18 19 19 92 11 4 0 2 82 100 100 100 94 100 100 100 100 100 100 100 38 98 100 99 100 100 100 100 100 100 94 100
99 93 87 28 94 81 98 76 26 19 49 2 0 1 6 9 1 5 8 65 5 5 5 0 2 87 100 98 97 100 100 100 100 100 100 100 100 100 91 100 100 100 100 100 100 100 100 100 100
94 27 94 100 100 100 100 18 20 97 94 2 0 4 1 5 5 5 54 42 5 6 7 0 2 86 100 100 100 81 100 100 100 100 100 100 100 100 96 100 100 100 100 100 100 100 100 100 91
34 98 100 100 100 100 100 59 98 87 5 0 1 0 2 4 5 41 15 3 5 77 5 3 6 44 100 100 96 92 100 100 100 100 100 100 100 100 100 100 100 100 100 100 100 100 100 100 95
89 100 68 100 100 100 100 100 100 100 91 96 5 5 4 20 82 4 3 3 5 57 5 5 10 35 99 100 100 100 99 98 85 100 100 100 100 100 100 100 100 100 100 100 100 100 100 99 100
19 5 5 5 12 5 8 98 100 100 99 35 74 8 16 9 1 0 0 0 5 5 4 5 33 70 99 100 100 100 100 100 100 100 100 100 100 100 100 100 100 100 100 100 100 100 100 100 100
8 5 12 65 94 33 35 32 37 95 79 84 10 16 48 12 2 5 5 5 62 26 27 52 47 81 99 100 100 58 94 100 100 100 100 100 100 100 100 100 100 100 100 100 100 95 88 98 92
94 20 20 60 100 87 3 48 67 9 5 14 18 46 6 5 5 5 5 34 38 64 100 100 96 96 85 54 92 69 98 100 100 100 97 100 100 100 100 100 100 100 100 100 100 100 94 100 100
59 88 98 100 97 10 28 0 3 5 5 43 26 50 95 77 10 11 8 40 2 94 100 100 98 98 100 92 72 50 100 86 67 90 100 100 100 100 100 100 100 100 100 100 100 100 100 100 100
100 100 100 100 86 5 5 2 5 13 41 5 75 100 100 92 14 5 5 5 0 29 100 100 60 79 100 100 95 90 100 98 100 100 99 100 100 100 100 100 100 100 100 100 100 100 100 100 100
54 100 92 7 5 0 5 5 5 41 100 100 45 69 100 96 6 5 4 5 5 97 97 100 68 100 100 100 100 100 100 100 100 100 100 100 100 100 100 100 100 100 100 100 100 100 100 100 100
36 94 100 91 5 5 45 5 49 100 100 100 100 74 16 5 5 8 40 6 18 100 100 100 100 100 100 99 98 79 68 99 47 99 100 100 100 100 100 100 100 100 100 100 100 100 100 100 100
87 99 100 99 34 6 62 5 21 94 98 99 93 62 10 5 47 100 80 6 61 100 100 100 100 100 100 98 89 46 53 61 65 100 100 100 100 100 100 100 100 100 100 100 100 100 100 100 100
51 29 52 100 100 14 5 6 31 45 89 6 80 29 100 11 93 100 20 18 63 100 100 100 100 100 100 100 94 100 62 93 100 100 100 100 100 100 100 100 100 100 100 100 100 100 100 100 100
5 63 100 59 55 15 7 11 100 100 43 5 100 100 97 100 66 93 49 39 85 99 100 100 100 100 100 100 100 100 83 100 100 95 100 100 100 100 100 100 100 100 100 100 100 100 100 100 100
0 2 28 81 8 15 100 60 100 100 100 10 7 6 10 100 67 72 100 100 100 100 100 100 100 100 100 100 100 96 100 100 100 100 100 100 100 100 100 100 100 100 100 100 100 100 100 100 100
90 1 1 7 9 5 7 100 100 100 100 100 96 90 52 99 79 31 79 100 100 100 100 100 100 100 100 100 100 96 100 100 88 100 100 100 100 100 100 100 100 100 100 100 100 100 100 100 100

GFSSGP_prec_cloud_114.txt.gz
Cloud_Cover
0 0 0 0 0 0 0 0 0 0 0 0 0 0 0 0 0 0 0 0 0 0 0 1 0 53 41 21 25 22 0 0 3 0 2 0 42 77 69 29 35 20 5 0 0 3 20 6 0
0 0 0 0 0 0 0 0 0 0 0 0 0 0 0 0 0 0 0 0 0 0 0 0 0 0 26 1 6 0 0 0 16 1 24 4 49 66 66 100 50 6 5 5 2 7 19 6 2
0 0 0 0 0 0 0 0 0 0 0 0 0 0 0 0 0 0 0 0 0 0 0 0 0 0 0 0 0 2 81 1 22 5 0 9 22 81 91 100 96 5 5 5 3 27 7 5 5
0 2 2 0 0 0 0 0 0 0 0 0 0 0 0 0 0 0 0 0 0 0 0 40 0 0 0 0 0 8 82 100 0 0 1 100 95 100 100 100 100 82 25 5 3 23 0 5 5
5 5 10 5 5 5 5 2 0 0 0 0 0 0 0 0 0 0 0 0 0 0 0 0 0 0 0 0 0 0 80 100 0 5 35 6 90 100 100 100 100 100 98 69 0 1 0 5 5
19 5 37 69 5 5 5 4 0 0 0 0 0 0 0 0 0 0 0 0 0 0 0 0 18 0 0 0 0 0 0 4 0 0 1 0 32 100 100 100 100 100 100 84 5 0 4 5 5
7 15 51 38 5 5 5 0 1 0 0 0 0 0 0 0 0 0 0 0 0 0 0 0 0 15 14 52 0 0 0 0 0 0 0 5 5 99 100 100 79 100 98 57 76 5 5 15 5
100 100 72 75 18 5 0 0 0 0 0 2 0 0 0 0 0 0 0 0 0 0 0 0 0 3 77 84 98 2 0 0 0 0 0 2 6 97 100 93 100 100 100 100 100 90 98 5 5
100 76 99 100 100 5 0 2 5 12 15 5 1 0 0 0 0 0 0 0 4 0 0 0 0 0 62 100 92 95 30 1 5 0 0 41 65 100 75 100 100 100 100 99 100 93 47 50 5
100 100 100 100 100 100 76 20 100 100 59 25 5 0 0 0 0 0 0 4 0 1 0 0 0 0 74 100 100 85 63 33 19 13 7 2 29 93 100 100 100 100 100 100 100 57 33 38 65
100 93 100 100 100 100 88 9 15 13 34 100 5 0 0 0 0 2 4 3 3 0 0 0 0 0 100 100 98 54 100 48 47 74 86 48 94 93 100 100 100 100 100 100 100 100 100 100 97
100 100 100 100 100 100 100 100 89 56 48 55 5 0 0 0 0 7 6 5 3 0 5 1 0 0 98 100 98 60 78 68 43 72 27 27 99 100 100 100 100 100 100 100 96 100 100 100 100
100 100 100 100 100 100 100 100 100 100 100 100 23 0 0 0 0 22 57 6 1 2 46 5 2 4 89 100 100 99 88 100 97 100 100 100 46 100 100 100 100 100 100 100 100 100 100 100 100
100 76 79 100 100 100 100 100 96 43 99 89 83 63 2 0 6 62 47 4 5 3 2 4 5 0 40 98 100 100 62 91 100 97 54 80 94 70 100 100 100 100 100 100 100 100 100 100 100
100 100 100 100 66 70 98 99 99 100 62 5 5 0 0 0 12 47 5 5 5 4 6 2 5 0 9 0 13 75 81 76 76 100 100 100 38 79 100 100 100 100 100 100 100 100 100 100 100
100 100 100 100 100 100 100 46 100 39 8 5 0 0 0 0 7 80 25 11 12 18 5 7 2 0 24 1 6 29 92 66 91 84 100 100 96 100 100 100 100 100 100 100 100 100 100 100 100
100 100 100 100 100 100 100 100 100 68 48 5 0 0 4 5 6 6 7 30 12 4 5 21 5 5 28 21 41 90 100 82 100 100 100 100 100 98 100 100 100 100 100 100 100 100 100 100 100
100 100 100 100 100 100 98 100 100 100 99 47 4 4 5 24 45 6 5 5 13 4 5 5 5 5 80 90 100 100 100 100 94 95 100 72 87 100 100 100 100 100 100 100 100 100 100 100 100
100 100 100 100 100 100 89 87 100 89 100 100 100 100 88 45 100 95 75 38 85 92 68 5 0 0 100 100 100 100 88 53 99 52 93 100 100 100 100 100 100 100 100 100 100 100 100 100 100
100 100 100 100 100 65 100 99 82 48 82 92 54 74 100 100 100 100 100 100 97 16 10 6 3 1 100 100 62 59 72 84 100 100 68 86 100 100 100 100 100 100 100 100 100 100 100 100 100
100 100 96 100 100 32 74 28 100 71 34 81 35 16 8 68 100 100 94 62 61 33 26 7 4 1 97 63 97 48 80 100 77 97 99 100 100 100 100 100 100 100 100 100 100 100 100 100 100
60 100 100 100 100 6 99 16 11 7 14 5 5 39 99 100 100 100 100 38 100 86 22 5 4 6 95 67 41 18 4 20 27 50 71 50 97 100 100 100 100 100 100 100 100 100 100 100 100
100 100 100 100 100 100 41 37 50 8 100 32 5 44 26 64 100 100 100 100 99 100 90 86 44 75 96 60 33 12 0 5 17 80 85 97 90 92 100 100 100 100 100 100 100 100 100 100 100
100 100 100 86 18 5 66 35 4 91 92 97 41 28 9 89 95 72 98 100 98 94 98 100 100 100 100 76 45 12 4 28 38 62 60 80 84 100 100 100 100 100 100 100 100 100 100 100 100
94 100 100 100 79 28 99 38 60 5 56 95 90 56 40 18 83 100 100 100 77 91 96 100 100 100 100 98 47 17 28 49 99 55 99 68 100 100 100 100 100 100 100 100 100 100 100 100 100
5 24 100 100 61 90 100 100 97 32 5 5 69 84 88 51 36 14 34 81 100 92 79 100 100 100 100 83 36 53 88 93 86 85 81 55 93 100 100 100 100 100 100 100 100 100 100 100 100
0 5 7 98 98 83 9 5 21 98 11 5 3 5 91 100 51 5 8 99 100 100 100 100 100 100 100 54 55 57 100 98 100 98 73 100 94 100 100 100 100 100 100 100 100 100 100 100 100
0 4 36 53 61 5 5 5 5 8 5 5 5 47 73 85 100 48 89 95 100 100 100 100 100 100 100 80 94 97 100 100 98 83 91 100 100 100 100 100 100 100 100 100 100 100 100 100 100
0 12 34 5 10 69 99 34 99 78 6 5 5 5 56 99 100 100 100 100 100 100 100 100 100 100 100 100 88 100 100 100 75 85 87 100 100 100 100 100 100 100 100 100 100 100 100 100 100
13 21 36 8 5 5 86 91 31 59 51 5 5 43 34 99 100 100 97 100 100 100 100 100 100 100 100 98 100 100 100 100 81 97 100 100 100 100 100 100 100 100 100 100 100 100 100 100 100

GFSSGP_prec_cloud_117.txt.gz
Cloud_Cover
0 0 0 0 0 0 0 0 0 0 0 0 0 0 0 0 1 3 0 0 0 0 0 1 0 0 0 0 0 0 3 2 0 0 0 0 0 0 68 99 97 6 3 18 0 0 2 2 0
0 0 0 0 0 0 0 0 0 0 0 0 0 0 0 0 0 0 0 0 0 0 0 0 0 0 0 0 0 0 21 2 0 0 0 0 0 15 99 100 100 100 70 90 6 12 16 7 0
0 2 0 0 1 0 0 0 0 0 0 0 0 0 0 0 0 0 0 0 0 0 0 0 0 0 0 0 0 0 6 40 41 6 0 0 21 100 100 100 100 100 100 100 41 62 16 1 5
0 5 0 5 21 4 0 0 0 0 0 0 0 0 0 0 0 0 0 0 0 0 0 40 0 0 0 0 0 0 11 82 87 71 0 0 98 100 100 100 100 100 100 100 100 100 46 0 2
5 25 5 4 36 5 3 1 5 1 1 0 0 0 0 0 0 0 0 0 0 0 0 0 0 0 0 0 0 0 12 92 99 0 0 0 86 100 100 100 100 100 100 100 100 29 5 0 0
89 28 3 0 5 5 5 5 5 5 5 3 0 0 0 0 0 0 0 0 0 0 0 0 7 0 0 0 0 0 0 78 2 0 0 0 40 100 100 100 100 100 100 100 100 69 5 0 4
96 99 100 100 100 100 41 4 5 5 0 0 5 0 0 0 0 0 0 0 0 0 0 0 0 0 0 0 0 0 0 0 0 0 0 0 0 90 100 100 100 94 100 100 100 26 6 13 35
95 100 85 63 42 6 8 4 35 2 0 0 5 5 0 2 0 0 0 0 0 0 0 0 0 0 0 0 4 0 0 0 0 0 0 0 3 6 40 96 100 64 100 100 70 88 55 70 28
100 100 100 100 100 100 68 54 7 4 0 5 5 5 0 5 0 0 0 0 0 0 0 0 0 0 1 0 1 41 13 1 9 1 1 67 1 0 5 100 55 100 100 100 100 100 100 95 61
100 100 100 100 100 100 26 5 5 0 0 5 48 98 91 74 5 0 0 0 0 0 0 0 0 0 3 0 21 11 4 2 3 0 3 0 13 24 0 65 93 67 74 100 100 100 100 100 98
100 100 100 100 100 100 100 100 56 4 6 100 100 100 100 99 6 2 0 0 0 0 0 0 0 0 2 98 53 3 26 0 36 82 54 15 34 5 82 88 60 100 100 100 100 100 100 98 82
100 100 100 100 100 100 100 70 8 76 100 100 100 100 56 94 5 2 0 0 0 0 0 0 0 0 11 3 1 0 12 4 47 54 79 26 31 18 62 85 41 98 100 100 100 100 100 100 100
100 100 95 100 100 100 100 93 75 10 69 100 100 100 100 100 92 98 47 14 76 42 0 0 0 1 35 2 0 0 21 9 8 35 29 22 53 24 82 99 48 65 100 100 100 100 100 100 100
32 100 100 98 99 100 100 100 100 100 100 95 100 100 100 100 100 100 100 100 58 85 0 0 4 5 17 99 29 2 6 19 67 64 64 55 26 2 30 18 100 96 100 100 100 100 100 100 100
58 55 100 100 100 100 100 100 100 100 100 96 100 100 36 89 31 6 34 15 34 40 0 4 5 5 38 100 100 24 0 14 79 81 48 80 42 15 8 14 100 99 96 100 100 100 100 100 100
98 92 5 100 100 100 100 94 100 100 100 100 82 16 7 36 19 11 25 100 100 16 1 1 11 54 10 28 25 1 8 44 39 87 35 46 83 46 36 76 34 100 98 100 100 100 100 100 100
23 46 80 90 100 100 100 100 100 100 100 55 68 15 1 5 5 5 18 29 5 20 26 4 75 62 5 10 18 14 46 26 86 94 62 55 87 82 70 92 82 98 93 100 100 100 100 100 100
98 100 100 100 100 100 100 100 100 100 100 100 100 82 5 4 5 7 14 5 28 22 100 5 72 71 5 51 44 34 45 98 100 100 99 90 63 89 34 90 97 91 100 100 100 100 100 100 100
100 100 100 100 100 100 29 100 100 100 100 100 100 87 52 13 7 93 26 8 52 84 100 5 62 12 5 26 43 90 100 100 100 100 100 88 26 70 58 71 93 88 100 100 100 100 100 100 100
100 99 99 100 100 100 98 88 100 100 100 100 100 100 100 100 100 83 48 54 100 100 100 100 100 45 35 79 100 90 36 58 71 96 100 84 53 89 95 84 79 80 100 100 100 100 100 100 100
100 100 100 100 100 100 100 24 77 100 100 99 100 64 89 100 100 100 100 100 100 100 100 100 100 37 75 100 100 80 92 99 100 100 84 100 91 80 85 80 100 100 100 100 100 100 100 100 100
100 100 100 100 100 100 100 82 100 97 99 83 100 100 68 5 58 100 100 100 100 100 100 100 100 100 43 61 83 49 46 70 32 29 39 91 65 76 97 100 100 100 100 100 100 100 100 100 100
100 100 100 100 100 100 100 89 100 100 100 43 47 100 100 93 5 51 33 98 93 100 100 100 100 97 99 47 34 84 24 19 0 0 25 100 48 73 92 100 100 100 100 100 100 100 100 100 100
92 100 100 100 88 100 100 98 100 100 100 98 13 97 100 100 94 60 25 16 48 77 87 92 100 89 100 100 72 86 37 8 0 3 7 96 46 71 69 97 100 100 100 100 100 100 100 100 100
83 18 100 100 100 6 100 100 98 100 100 100 80 97 100 100 100 100 94 95 71 63 35 71 100 100 100 100 100 100 87 32 8 6 17 100 100 86 99 93 100 100 100 100 100 100 100 100 100
100 100 20 100 100 88 93 78 100 100 100 100 100 100 74 48 80 100 94 24 5 5 21 100 100 100 100 100 100 100 90 46 10 14 13 47 9 75 100 99 100 100 100 100 100 100 100 100 100
100 100 26 100 100 100 100 100 100 100 100 35 94 100 100 33 28 92 99 7 5 23 63 100 100 100 100 100 99 100 100 37 10 18 99 92 57 44 99 100 100 100 100 100 100 100 100 100 100
99 100 95 100 100 100 100 100 100 100 100 100 100 100 100 100 100 52 65 62 82 100 100 100 100 100 100 100 100 100 100 56 29 46 100 72 68 68 98 100 100 100 100 100 100 100 100 100 100
100 100 100 100 100 100 90 100 100 100 100 100 100 100 100 100 93 100 94 97 96 100 99 100 100 100 100 100 100 100 100 92 83 98 100 79 53 93 99 100 100 100 100 100 100 100 100 100 100
97 100 100 100 100 100 100 46 100 100 100 100 100 100 100 100 100 100 77 34 100 100 100 100 100 100 100 100 100 100 100 100 100 100 100 95 98 100 100 100 100 100 100 100 100 100 100 100 100

GFSSGP_prec_cloud_120.txt.gz
Cloud_Cover
0 0 0 0 0 5 5 0 0 0 0 0 0 0 0 3 3 3 0 0 0 0 0 0 0 0 0 0 0 0 0 0 0 0 0 0 0 0 36 100 100 100 100 87 75 7 6 8 0
0 0 0 0 0 0 3 0 0 0 0 0 0 0 0 0 0 0 0 0 0 0 0 0 0 0 0 0 0 0 0 4 0 0 0 0 0 89 100 100 100 100 100 100 74 68 50 100 32
0 0 0 0 0 0 0 0 80 1 0 0 0 0 0 0 0 0 0 0 0 0 0 0 0 0 0 0 0 0 0 3 10 17 0 0 7 100 100 100 100 100 100 100 100 100 100 100 7
0 0 0 0 1 4 1 4 0 0 2 0 0 0 0 0 0 0 0 0 0 0 0 23 0 0 0 0 0 0 0 100 100 100 0 0 27 100 100 100 100 100 100 100 100 100 100 100 91
0 0 0 0 0 6 24 6 0 0 0 0 0 0 0 0 0 0 0 0 0 0 0 0 0 0 0 0 0 0 0 82 100 53 0 0 4 100 100 100 100 100 100 100 100 100 100 100 12
0 0 0 0 2 19 41 27 5 0 5 3 0 0 2 0 0 0 0 0 0 0 0 0 0 0 0 0 0 0 0 66 100 0 0 0 1 61 98 100 100 100 100 100 100 100 100 100 42
1 0 2 0 28 99 98 80 0 0 5 5 5 5 4 0 4 0 0 0 0 0 0 0 0 0 0 0 0 0 0 5 50 15 0 0 0 24 90 100 100 100 100 100 100 100 100 100 41
28 2 0 4 92 100 100 93 89 100 100 100 72 5 2 0 47 0 0 0 0 0 0 0 0 0 0 0 6 0 0 0 0 13 0 0 0 0 100 100 100 100 100 100 100 66 100 100 8
100 94 2 92 100 100 100 100 8 3 71 16 0 20 10 1 5 0 0 0 1 0 0 0 0 0 0 0 0 14 2 1 8 12 0 9 0 0 0 97 100 100 100 100 100 100 100 100 45
27 97 100 62 82 100 100 100 35 1 62 5 15 100 83 5 1 0 11 89 5 0 0 0 0 0 0 0 0 0 0 0 0 0 43 0 0 0 0 10 100 100 100 100 100 100 100 100 100
0 0 100 100 82 72 100 100 98 93 92 92 98 11 22 4 7 39 4 0 0 0 0 4 0 0 0 0 0 0 0 0 0 0 0 1 0 0 0 3 40 20 52 97 100 100 100 100 100
1 0 3 98 100 99 33 100 100 100 84 64 63 19 94 72 100 100 72 0 0 3 6 1 5 5 0 0 0 0 0 1 0 0 0 0 0 0 0 2 7 6 7 6 100 100 100 93 100
0 3 2 4 98 100 100 100 100 100 100 100 100 100 100 100 100 100 100 18 67 100 100 96 25 2 0 0 0 2 0 5 0 0 0 0 0 0 0 1 11 5 6 19 100 100 99 100 92
0 4 11 33 5 56 100 100 100 100 100 100 100 100 72 92 100 100 100 100 100 100 52 100 3 0 1 0 1 5 5 4 0 0 0 0 0 0 0 6 98 6 81 100 99 100 100 100 83
0 5 73 74 32 5 96 100 100 100 100 99 100 100 100 100 100 100 100 100 100 100 8 13 7 0 14 5 5 5 4 5 0 0 0 0 0 0 0 63 60 59 37 100 100 100 100 100 100
1 3 31 48 100 33 100 0 100 100 100 100 29 22 98 100 100 100 100 100 100 42 5 6 5 3 5 9 5 5 13 5 0 80 2 0 2 0 0 1 40 63 9 100 100 100 100 100 100
87 94 99 83 100 100 100 1 90 100 100 100 100 28 5 5 6 64 69 95 100 100 90 57 8 3 2 56 5 39 4 11 19 0 14 5 26 0 0 0 5 5 25 84 100 100 100 100 100
100 99 100 8 89 100 100 19 95 61 100 100 100 100 94 100 100 18 100 100 100 96 21 10 94 5 5 100 20 5 5 6 9 12 5 1 0 1 0 0 3 11 56 51 99 100 100 100 100
57 100 100 100 82 100 100 100 100 100 100 100 100 100 100 100 100 100 98 98 45 74 93 100 9 60 5 25 20 6 12 58 40 100 100 32 60 0 4 0 13 96 38 37 100 100 100 100 100
0 100 100 100 100 100 100 95 97 100 62 100 100 100 100 100 100 100 100 100 93 35 21 95 96 13 5 7 42 84 99 94 100 100 100 100 88 1 0 12 0 78 100 79 100 83 96 100 100
0 10 100 100 100 100 100 100 5 18 78 95 100 100 100 100 100 100 100 100 100 100 94 100 100 100 76 28 100 100 100 100 97 100 100 100 100 93 50 27 35 10 67 100 100 97 100 100 100
0 0 40 100 100 100 100 92 100 86 86 100 100 100 100 100 100 100 100 100 100 100 100 100 100 100 100 100 100 100 100 100 99 100 100 100 100 100 100 37 100 31 73 72 100 100 100 100 100
16 0 0 94 99 100 100 98 100 100 100 100 100 100 100 100 100 100 100 94 100 100 100 100 100 100 100 100 100 100 100 100 100 98 27 60 86 55 15 85 97 82 84 99 100 100 100 100 100
38 56 29 30 100 99 100 100 100 100 100 100 100 100 100 78 69 90 100 100 79 57 99 100 100 100 100 88 74 96 95 75 27 15 42 11 59 96 69 51 100 100 80 88 94 100 100 100 100
58 99 48 84 16 5 100 100 100 100 100 100 100 100 100 100 100 100 98 74 100 100 97 93 70 42 99 82 5 23 36 69 100 6 4 2 92 73 99 58 100 100 100 88 100 100 100 100 100
86 83 91 100 91 5 100 77 100 100 100 100 100 100 92 95 100 100 100 100 64 34 91 100 99 6 92 63 51 24 100 97 100 95 40 1 43 100 74 99 100 100 99 100 100 100 100 100 100
99 94 62 100 100 98 94 78 94 100 100 100 100 100 100 100 100 100 100 100 100 20 57 17 21 56 73 100 99 100 100 100 100 100 77 58 40 62 42 100 100 100 100 100 100 100 100 100 100
100 94 100 100 100 99 70 93 100 100 100 100 100 100 100 100 100 100 100 100 100 75 80 97 100 100 100 100 99 100 100 100 100 100 38 62 73 54 77 100 100 100 100 100 100 100 100 100 100
100 100 100 100 39 84 83 94 100 100 100 100 100 100 100 100 100 100 100 100 100 100 100 82 100 100 100 100 100 100 100 100 100 100 94 100 100 82 100 100 100 100 100 100 100 100 100 100 100
100 100 97 100 98 100 100 18 100 100 100 100 100 89 92 100 100 100 100 100 100 99 99 100 100 100 100 100 100 100 100 100 100 100 97 100 72 100 100 92 70 100 100 100 100 100 100 100 100

GFSSGP_prec_cloud_123.txt.gz
Cloud_Cover
2 3 5 5 5 5 45 5 0 0 0 0 0 0 0 0 0 0 0 0 0 0 0 0 0 0 0 0 0 0 0 0 9 0 0 0 0 0 0 100 100 100 100 100 100 100 54 67 90
0 0 0 0 0 0 11 4 0 0 0 0 0 0 0 0 0 0 0 0 0 0 0 0 0 0 0 0 0 0 0 2 0 0 0 0 0 0 4 100 100 100 100 100 100 100 100 100 94
0 0 0 0 0 0 0 3 0 0 3 3 0 0 0 0 0 0 0 0 0 0 0 0 0 0 0 0 0 0 0 0 0 0 0 0 0 0 89 100 100 100 100 100 100 100 100 100 100
0 0 0 0 0 0 0 0 0 0 0 4 0 0 0 0 0 0 0 0 0 0 0 0 0 0 0 0 0 0 0 31 0 0 0 0 0 0 89 100 92 100 100 100 100 100 100 100 100
0 0 0 0 0 0 0 0 0 0 0 1 5 2 1 0 0 0 0 0 0 0 0 0 0 0 0 0 0 0 0 0 0 0 0 0 0 0 80 100 100 100 100 100 100 100 100 100 100
0 0 0 0 0 0 0 4 6 3 5 2 84 4 5 0 0 0 0 0 0 0 0 0 0 0 0 0 0 0 0 2 0 0 0 0 0 0 0 100 100 100 100 100 100 100 100 100 100
0 0 0 0 2 2 4 18 14 4 4 7 57 21 5 0 2 9 3 1 0 0 0 0 3 0 0 0 0 0 0 2 14 0 0 0 0 0 0 85 100 100 100 100 100 100 100 100 100
0 0 0 0 0 34 100 100 14 5 8 10 100 100 100 5 20 99 9 0 1 0 2 0 3 16 25 30 6 0 0 0 0 0 0 0 0 0 0 0 99 100 100 100 100 100 100 84 100
0 0 0 0 0 1 92 100 78 1 63 63 91 75 23 36 70 100 7 0 5 0 0 5 1 7 17 14 7 2 0 0 1 1 0 0 0 0 0 0 0 100 100 100 100 100 100 100 100
0 0 0 0 0 0 3 63 100 100 39 5 100 99 14 10 7 57 4 32 11 4 14 100 18 0 5 0 8 28 20 26 42 36 0 0 0 0 0 0 0 25 100 100 100 100 100 100 100
0 0 0 0 0 0 0 0 39 100 15 100 100 100 100 5 5 2 5 7 5 5 5 30 5 5 3 1 15 25 38 26 26 67 8 0 0 0 0 3 0 5 32 100 100 100 100 100 100
5 0 0 0 0 0 0 0 0 5 49 98 100 100 100 100 100 100 100 5 0 10 100 28 14 22 24 62 8 1 2 3 8 57 30 7 3 0 6 15 25 12 58 94 100 100 100 100 100
0 0 0 0 0 0 0 0 0 1 6 19 100 100 100 100 100 100 100 11 1 52 81 88 98 100 100 82 18 4 0 0 0 21 18 0 0 0 0 11 13 0 17 41 85 99 100 100 100
5 0 0 0 0 0 0 1 66 0 3 5 100 100 100 100 100 100 100 100 49 6 100 70 100 100 100 61 5 4 2 3 4 1 2 0 0 0 0 4 1 0 4 8 9 40 100 100 100
0 0 0 0 0 0 0 0 6 4 100 15 100 100 100 100 100 100 100 100 6 16 80 100 100 100 100 100 5 5 5 5 5 5 5 4 0 0 0 0 0 1 5 25 7 46 100 100 100
0 0 0 0 0 0 0 0 0 69 100 100 91 100 100 100 100 100 100 100 100 100 95 100 100 100 100 100 6 5 6 22 7 5 5 4 0 0 0 0 0 1 26 100 60 48 100 100 100
0 0 0 0 0 0 0 0 0 69 100 100 82 32 93 100 20 41 100 100 100 100 100 100 100 100 100 78 20 6 18 59 36 8 5 16 3 0 0 0 0 0 24 100 100 18 88 100 100
0 0 0 0 0 2 4 7 4 2 100 100 100 94 100 100 15 88 65 73 100 100 100 100 100 100 58 5 5 5 11 70 5 5 4 18 47 1 9 0 0 0 36 44 63 100 37 94 100
0 0 0 0 0 0 0 85 0 5 100 100 94 100 100 98 41 100 100 100 36 85 83 11 5 100 100 20 36 35 5 34 7 43 22 0 47 66 36 8 6 23 33 43 4 14 5 73 97
0 0 0 0 0 0 0 83 5 74 77 100 58 76 100 100 98 100 100 82 78 72 100 100 51 100 100 46 8 19 52 19 5 17 96 97 50 99 91 23 37 52 85 97 45 5 48 60 84
0 0 0 0 0 0 0 5 9 55 100 100 87 24 98 78 70 100 100 71 97 100 100 100 100 100 75 99 6 25 18 90 62 34 100 100 100 100 81 50 36 50 68 93 55 15 12 52 83
0 1 2 0 0 0 0 0 5 54 100 24 5 94 100 100 100 100 100 100 100 100 100 99 100 100 100 100 98 76 93 100 100 100 100 100 100 100 100 68 13 26 52 88 100 32 12 45 100
44 0 0 1 0 6 0 0 0 100 100 100 30 49 100 100 100 100 100 100 100 98 76 100 100 100 100 100 100 69 5 100 100 100 100 100 100 100 100 100 95 83 74 98 94 100 60 71 100
6 35 0 0 2 94 0 0 0 100 100 100 100 100 100 100 100 100 100 100 100 100 100 100 100 100 100 100 100 100 100 100 100 100 100 100 100 100 100 100 100 100 100 100 100 100 86 40 98
3 38 81 46 8 24 3 0 0 100 100 100 100 100 100 100 100 35 5 61 100 100 100 100 100 100 100 100 100 100 100 91 55 98 89 100 81 92 100 100 86 100 100 100 100 100 100 58 83
8 36 100 100 73 4 48 0 0 100 100 100 100 100 100 100 100 13 5 11 90 100 100 100 100 100 100 100 100 100 69 7 63 82 97 15 21 92 98 100 98 100 100 100 100 100 100 94 59
98 100 100 100 70 23 91 12 0 100 100 100 98 100 79 92 100 100 100 98 69 97 100 100 100 99 100 100 86 74 96 64 43 34 100 98 89 100 95 88 99 74 100 100 100 100 100 100 100
100 100 100 83 85 2 56 0 0 100 100 100 100 100 100 94 97 100 100 100 100 100 100 100 64 79 91 100 100 83 100 80 100 100 100 100 100 100 88 83 91 100 100 100 100 100 100 100 100
100 100 100 100 100 42 19 0 68 100 100 100 80 100 100 100 100 100 100 100 100 100 100 100 100 100 100 100 100 100 100 100 100 100 100 100 100 100 100 60 99 98 100 100 100 100 100 100 100
94 98 100 100 100 70 73 100 100 99 100 100 100 12 98 100 100 100 100 100 100 100 100 100 100 100 100 100 100 100 86 100 100 100 100 100 100 100 100 100 100 100 100 100 100 100 100 100 100